<?xml version="1.0" encoding="UTF-8" standalone="no" ?>
<gpx xmlns="http://www.topografix.com/GPX/1/1" xmlns:xsi="http://www.w3.org/2001/XMLSchema-instance" xsi:schemaLocation="http://www.topografix.com/GPX/1/1 http://www.topografix.com/GPX/1/1/gpx.xsd" version="1.1" creator="VisuGPX - https://www.visugpx.com">
  <metadata>
    <name>84_00km_Le Beaucet à St Didier par la crête face à Venasque_09km280_287m</name>
  </metadata>
  <trk>
    <name><![CDATA[84_00km_Le Beaucet à St Didier par la crête face à Venasque_09km280_287m]]></name>
    <trkseg>
      <trkpt lat="43.98415" lon="5.11825">
        <ele>223.1</ele>
        <time>2018-11-29T15:05:27.000Z</time>
      </trkpt>
      <trkpt lat="43.98417" lon="5.11834">
        <ele>223</ele>
        <time>2018-11-29T15:05:27.000Z</time>
      </trkpt>
      <trkpt lat="43.98418" lon="5.1184">
        <ele>222.9</ele>
        <time>2018-11-29T15:05:27.000Z</time>
      </trkpt>
      <trkpt lat="43.98419" lon="5.11846">
        <ele>222.8</ele>
        <time>2018-11-29T15:05:43.000Z</time>
      </trkpt>
      <trkpt lat="43.98422" lon="5.11855">
        <ele>222.6</ele>
        <time>2018-11-29T15:05:43.000Z</time>
      </trkpt>
      <trkpt lat="43.98425" lon="5.11858">
        <ele>222.4</ele>
        <time>2018-11-29T15:05:43.000Z</time>
      </trkpt>
      <trkpt lat="43.98428" lon="5.11862">
        <ele>222.3</ele>
        <time>2018-11-29T15:05:59.000Z</time>
      </trkpt>
      <trkpt lat="43.98433" lon="5.11862">
        <ele>222.1</ele>
        <time>2018-11-29T15:05:59.000Z</time>
      </trkpt>
      <trkpt lat="43.98436" lon="5.11862">
        <ele>222</ele>
        <time>2018-11-29T15:05:59.000Z</time>
      </trkpt>
      <trkpt lat="43.98441" lon="5.11863">
        <ele>221.9</ele>
        <time>2018-11-29T15:05:59.000Z</time>
      </trkpt>
      <trkpt lat="43.98446" lon="5.11863">
        <ele>221.7</ele>
        <time>2018-11-29T15:06:15.000Z</time>
      </trkpt>
      <trkpt lat="43.9845" lon="5.11864">
        <ele>221.6</ele>
        <time>2018-11-29T15:06:15.000Z</time>
      </trkpt>
      <trkpt lat="43.98455" lon="5.11866">
        <ele>221.5</ele>
        <time>2018-11-29T15:06:15.000Z</time>
      </trkpt>
      <trkpt lat="43.98458" lon="5.11869">
        <ele>221.4</ele>
        <time>2018-11-29T15:06:15.000Z</time>
      </trkpt>
      <trkpt lat="43.98463" lon="5.11871">
        <ele>221.3</ele>
        <time>2018-11-29T15:06:31.000Z</time>
      </trkpt>
      <trkpt lat="43.98468" lon="5.11875">
        <ele>221.3</ele>
        <time>2018-11-29T15:06:31.000Z</time>
      </trkpt>
      <trkpt lat="43.98473" lon="5.11876">
        <ele>221.1</ele>
        <time>2018-11-29T15:06:31.000Z</time>
      </trkpt>
      <trkpt lat="43.98478" lon="5.11874">
        <ele>221</ele>
        <time>2018-11-29T15:06:47.000Z</time>
      </trkpt>
      <trkpt lat="43.98481" lon="5.11875">
        <ele>220.9</ele>
        <time>2018-11-29T15:06:47.000Z</time>
      </trkpt>
      <trkpt lat="43.98486" lon="5.11876">
        <ele>220.9</ele>
        <time>2018-11-29T15:06:47.000Z</time>
      </trkpt>
      <trkpt lat="43.98489" lon="5.11878">
        <ele>220.8</ele>
        <time>2018-11-29T15:06:47.000Z</time>
      </trkpt>
      <trkpt lat="43.98495" lon="5.11875">
        <ele>220.6</ele>
        <time>2018-11-29T15:07:3.000Z</time>
      </trkpt>
      <trkpt lat="43.985" lon="5.11877">
        <ele>220.6</ele>
        <time>2018-11-29T15:07:3.000Z</time>
      </trkpt>
      <trkpt lat="43.98505" lon="5.11879">
        <ele>220.9</ele>
        <time>2018-11-29T15:07:3.000Z</time>
      </trkpt>
      <trkpt lat="43.9851" lon="5.11881">
        <ele>221.4</ele>
        <time>2018-11-29T15:07:3.000Z</time>
      </trkpt>
      <trkpt lat="43.98514" lon="5.11882">
        <ele>221.8</ele>
        <time>2018-11-29T15:07:19.000Z</time>
      </trkpt>
      <trkpt lat="43.98518" lon="5.11881">
        <ele>222.1</ele>
        <time>2018-11-29T15:07:19.000Z</time>
      </trkpt>
      <trkpt lat="43.98521" lon="5.11883">
        <ele>222.4</ele>
        <time>2018-11-29T15:07:19.000Z</time>
      </trkpt>
      <trkpt lat="43.98524" lon="5.11885">
        <ele>222.7</ele>
        <time>2018-11-29T15:07:19.000Z</time>
      </trkpt>
      <trkpt lat="43.98527" lon="5.11886">
        <ele>223.1</ele>
        <time>2018-11-29T15:07:35.000Z</time>
      </trkpt>
      <trkpt lat="43.98531" lon="5.11884">
        <ele>223.3</ele>
        <time>2018-11-29T15:07:35.000Z</time>
      </trkpt>
      <trkpt lat="43.98535" lon="5.11885">
        <ele>223.7</ele>
        <time>2018-11-29T15:07:35.000Z</time>
      </trkpt>
      <trkpt lat="43.98543" lon="5.11888">
        <ele>224.7</ele>
        <time>2018-11-29T15:07:51.000Z</time>
      </trkpt>
      <trkpt lat="43.98547" lon="5.1189">
        <ele>225.2</ele>
        <time>2018-11-29T15:07:51.000Z</time>
      </trkpt>
      <trkpt lat="43.9855" lon="5.11891">
        <ele>225.6</ele>
        <time>2018-11-29T15:07:51.000Z</time>
      </trkpt>
      <trkpt lat="43.98557" lon="5.11894">
        <ele>226.5</ele>
        <time>2018-11-29T15:08:23.000Z</time>
      </trkpt>
      <trkpt lat="43.9856" lon="5.11897">
        <ele>227.3</ele>
        <time>2018-11-29T15:08:23.000Z</time>
      </trkpt>
      <trkpt lat="43.98563" lon="5.119">
        <ele>227.9</ele>
        <time>2018-11-29T15:08:23.000Z</time>
      </trkpt>
      <trkpt lat="43.98563" lon="5.11901">
        <ele>228.1</ele>
        <time>2018-11-29T15:08:23.000Z</time>
      </trkpt>
      <trkpt lat="43.98565" lon="5.11903">
        <ele>228.7</ele>
        <time>2018-11-29T15:08:23.000Z</time>
      </trkpt>
      <trkpt lat="43.98568" lon="5.11907">
        <ele>229.5</ele>
        <time>2018-11-29T15:08:39.000Z</time>
      </trkpt>
      <trkpt lat="43.98571" lon="5.1191">
        <ele>230.2</ele>
        <time>2018-11-29T15:08:39.000Z</time>
      </trkpt>
      <trkpt lat="43.98574" lon="5.11913">
        <ele>231</ele>
        <time>2018-11-29T15:08:39.000Z</time>
      </trkpt>
      <trkpt lat="43.98577" lon="5.11916">
        <ele>232</ele>
        <time>2018-11-29T15:08:39.000Z</time>
      </trkpt>
      <trkpt lat="43.9858" lon="5.11921">
        <ele>233.4</ele>
        <time>2018-11-29T15:08:55.000Z</time>
      </trkpt>
      <trkpt lat="43.98584" lon="5.11925">
        <ele>234.6</ele>
        <time>2018-11-29T15:08:55.000Z</time>
      </trkpt>
      <trkpt lat="43.98586" lon="5.11929">
        <ele>235.9</ele>
        <time>2018-11-29T15:08:55.000Z</time>
      </trkpt>
      <trkpt lat="43.98588" lon="5.11933">
        <ele>237.1</ele>
        <time>2018-11-29T15:08:55.000Z</time>
      </trkpt>
      <trkpt lat="43.98591" lon="5.11936">
        <ele>238.3</ele>
        <time>2018-11-29T15:09:11.000Z</time>
      </trkpt>
      <trkpt lat="43.98593" lon="5.11939">
        <ele>239.3</ele>
        <time>2018-11-29T15:09:11.000Z</time>
      </trkpt>
      <trkpt lat="43.98596" lon="5.11942">
        <ele>240.3</ele>
        <time>2018-11-29T15:09:11.000Z</time>
      </trkpt>
      <trkpt lat="43.98599" lon="5.11946">
        <ele>241.7</ele>
        <time>2018-11-29T15:09:11.000Z</time>
      </trkpt>
      <trkpt lat="43.98602" lon="5.1195">
        <ele>243.1</ele>
        <time>2018-11-29T15:09:27.000Z</time>
      </trkpt>
      <trkpt lat="43.98604" lon="5.11953">
        <ele>244.1</ele>
        <time>2018-11-29T15:09:27.000Z</time>
      </trkpt>
      <trkpt lat="43.98608" lon="5.11956">
        <ele>245.3</ele>
        <time>2018-11-29T15:09:27.000Z</time>
      </trkpt>
      <trkpt lat="43.98612" lon="5.11957">
        <ele>246.4</ele>
        <time>2018-11-29T15:09:27.000Z</time>
      </trkpt>
      <trkpt lat="43.98614" lon="5.11957">
        <ele>246.9</ele>
        <time>2018-11-29T15:09:43.000Z</time>
      </trkpt>
      <trkpt lat="43.98616" lon="5.11957">
        <ele>247.3</ele>
        <time>2018-11-29T15:09:43.000Z</time>
      </trkpt>
      <trkpt lat="43.9862" lon="5.11956">
        <ele>247.8</ele>
        <time>2018-11-29T15:09:43.000Z</time>
      </trkpt>
      <trkpt lat="43.98625" lon="5.11955">
        <ele>248.5</ele>
        <time>2018-11-29T15:09:43.000Z</time>
      </trkpt>
      <trkpt lat="43.98629" lon="5.11954">
        <ele>248.8</ele>
        <time>2018-11-29T15:09:59.000Z</time>
      </trkpt>
      <trkpt lat="43.98631" lon="5.11951">
        <ele>248.6</ele>
        <time>2018-11-29T15:09:59.000Z</time>
      </trkpt>
      <trkpt lat="43.98634" lon="5.11949">
        <ele>248.7</ele>
        <time>2018-11-29T15:09:59.000Z</time>
      </trkpt>
      <trkpt lat="43.98638" lon="5.11947">
        <ele>248.8</ele>
        <time>2018-11-29T15:09:59.000Z</time>
      </trkpt>
      <trkpt lat="43.98645" lon="5.1194">
        <ele>248.6</ele>
        <time>2018-11-29T15:11:27.000Z</time>
      </trkpt>
      <trkpt lat="43.98646" lon="5.11939">
        <ele>248.6</ele>
        <time>2018-11-29T15:11:27.000Z</time>
      </trkpt>
      <trkpt lat="43.98649" lon="5.11938">
        <ele>248.9</ele>
        <time>2018-11-29T15:11:27.000Z</time>
      </trkpt>
      <trkpt lat="43.98654" lon="5.11935">
        <ele>249.1</ele>
        <time>2018-11-29T15:11:27.000Z</time>
      </trkpt>
      <trkpt lat="43.98658" lon="5.11934">
        <ele>249.6</ele>
        <time>2018-11-29T15:11:43.000Z</time>
      </trkpt>
      <trkpt lat="43.98666" lon="5.11933">
        <ele>250.7</ele>
        <time>2018-11-29T15:11:43.000Z</time>
      </trkpt>
      <trkpt lat="43.98667" lon="5.11932">
        <ele>250.7</ele>
        <time>2018-11-29T15:11:43.000Z</time>
      </trkpt>
      <trkpt lat="43.9867" lon="5.11932">
        <ele>250.8</ele>
        <time>2018-11-29T15:11:59.000Z</time>
      </trkpt>
      <trkpt lat="43.98676" lon="5.11928">
        <ele>250.3</ele>
        <time>2018-11-29T15:11:59.000Z</time>
      </trkpt>
      <trkpt lat="43.98678" lon="5.11927">
        <ele>250.4</ele>
        <time>2018-11-29T15:11:59.000Z</time>
      </trkpt>
      <trkpt lat="43.98682" lon="5.11926">
        <ele>250.5</ele>
        <time>2018-11-29T15:12:31.000Z</time>
      </trkpt>
      <trkpt lat="43.98685" lon="5.11924">
        <ele>250.3</ele>
        <time>2018-11-29T15:12:31.000Z</time>
      </trkpt>
      <trkpt lat="43.98688" lon="5.11924">
        <ele>250.5</ele>
        <time>2018-11-29T15:12:31.000Z</time>
      </trkpt>
      <trkpt lat="43.98694" lon="5.11926">
        <ele>251.5</ele>
        <time>2018-11-29T15:12:31.000Z</time>
      </trkpt>
      <trkpt lat="43.98702" lon="5.11927">
        <ele>252.6</ele>
        <time>2018-11-29T15:12:47.000Z</time>
      </trkpt>
      <trkpt lat="43.98706" lon="5.1193">
        <ele>253.8</ele>
        <time>2018-11-29T15:12:47.000Z</time>
      </trkpt>
      <trkpt lat="43.9871" lon="5.11932">
        <ele>254.6</ele>
        <time>2018-11-29T15:12:47.000Z</time>
      </trkpt>
      <trkpt lat="43.98713" lon="5.11936">
        <ele>255.9</ele>
        <time>2018-11-29T15:12:47.000Z</time>
      </trkpt>
      <trkpt lat="43.98716" lon="5.11941">
        <ele>257.5</ele>
        <time>2018-11-29T15:13:3.000Z</time>
      </trkpt>
      <trkpt lat="43.98719" lon="5.11944">
        <ele>258.6</ele>
        <time>2018-11-29T15:13:3.000Z</time>
      </trkpt>
      <trkpt lat="43.98721" lon="5.11947">
        <ele>259.7</ele>
        <time>2018-11-29T15:13:3.000Z</time>
      </trkpt>
      <trkpt lat="43.98724" lon="5.1195">
        <ele>260.9</ele>
        <time>2018-11-29T15:13:31.000Z</time>
      </trkpt>
      <trkpt lat="43.98725" lon="5.11954">
        <ele>262</ele>
        <time>2018-11-29T15:13:31.000Z</time>
      </trkpt>
      <trkpt lat="43.98727" lon="5.11956">
        <ele>262.7</ele>
        <time>2018-11-29T15:13:31.000Z</time>
      </trkpt>
      <trkpt lat="43.98729" lon="5.11958">
        <ele>263.6</ele>
        <time>2018-11-29T15:13:31.000Z</time>
      </trkpt>
      <trkpt lat="43.98732" lon="5.11961">
        <ele>264.6</ele>
        <time>2018-11-29T15:13:31.000Z</time>
      </trkpt>
      <trkpt lat="43.98734" lon="5.11964">
        <ele>265.7</ele>
        <time>2018-11-29T15:13:51.000Z</time>
      </trkpt>
      <trkpt lat="43.98735" lon="5.11968">
        <ele>266.9</ele>
        <time>2018-11-29T15:13:51.000Z</time>
      </trkpt>
      <trkpt lat="43.98738" lon="5.11971">
        <ele>268.2</ele>
        <time>2018-11-29T15:13:51.000Z</time>
      </trkpt>
      <trkpt lat="43.9874" lon="5.11973">
        <ele>268.8</ele>
        <time>2018-11-29T15:13:51.000Z</time>
      </trkpt>
      <trkpt lat="43.98742" lon="5.11974">
        <ele>269.3</ele>
        <time>2018-11-29T15:13:51.000Z</time>
      </trkpt>
      <trkpt lat="43.98746" lon="5.11979">
        <ele>271.4</ele>
        <time>2018-11-29T15:14:15.000Z</time>
      </trkpt>
      <trkpt lat="43.98747" lon="5.11982">
        <ele>272.3</ele>
        <time>2018-11-29T15:14:15.000Z</time>
      </trkpt>
      <trkpt lat="43.98749" lon="5.11983">
        <ele>272.7</ele>
        <time>2018-11-29T15:14:15.000Z</time>
      </trkpt>
      <trkpt lat="43.9875" lon="5.11984">
        <ele>273.1</ele>
        <time>2018-11-29T15:14:15.000Z</time>
      </trkpt>
      <trkpt lat="43.98751" lon="5.11984">
        <ele>273.2</ele>
        <time>2018-11-29T15:14:15.000Z</time>
      </trkpt>
      <trkpt lat="43.98757" lon="5.11983">
        <ele>272.8</ele>
        <time>2018-11-29T15:15:11.000Z</time>
      </trkpt>
      <trkpt lat="43.98758" lon="5.11985">
        <ele>273.3</ele>
        <time>2018-11-29T15:15:11.000Z</time>
      </trkpt>
      <trkpt lat="43.98758" lon="5.11985">
        <ele>273.4</ele>
        <time>2018-11-29T15:15:11.000Z</time>
      </trkpt>
      <trkpt lat="43.98758" lon="5.1199">
        <ele>274.8</ele>
        <time>2018-11-29T15:15:11.000Z</time>
      </trkpt>
      <trkpt lat="43.9876" lon="5.11994">
        <ele>275.9</ele>
        <time>2018-11-29T15:15:11.000Z</time>
      </trkpt>
      <trkpt lat="43.98759" lon="5.11994">
        <ele>276</ele>
        <time>2018-11-29T15:15:35.000Z</time>
      </trkpt>
      <trkpt lat="43.98759" lon="5.11999">
        <ele>277.4</ele>
        <time>2018-11-29T15:15:35.000Z</time>
      </trkpt>
      <trkpt lat="43.98759" lon="5.12003">
        <ele>278.5</ele>
        <time>2018-11-29T15:15:35.000Z</time>
      </trkpt>
      <trkpt lat="43.98759" lon="5.12004">
        <ele>278.7</ele>
        <time>2018-11-29T15:15:35.000Z</time>
      </trkpt>
      <trkpt lat="43.9876" lon="5.1201">
        <ele>279.9</ele>
        <time>2018-11-29T15:15:35.000Z</time>
      </trkpt>
      <trkpt lat="43.98763" lon="5.12019">
        <ele>281.9</ele>
        <time>2018-11-29T15:16:19.000Z</time>
      </trkpt>
      <trkpt lat="43.98763" lon="5.12021">
        <ele>282.3</ele>
        <time>2018-11-29T15:16:19.000Z</time>
      </trkpt>
      <trkpt lat="43.98761" lon="5.12024">
        <ele>282.8</ele>
        <time>2018-11-29T15:16:19.000Z</time>
      </trkpt>
      <trkpt lat="43.98758" lon="5.12025">
        <ele>283.1</ele>
        <time>2018-11-29T15:16:19.000Z</time>
      </trkpt>
      <trkpt lat="43.98758" lon="5.12025">
        <ele>283.1</ele>
        <time>2018-11-29T15:16:19.000Z</time>
      </trkpt>
      <trkpt lat="43.98755" lon="5.12025">
        <ele>283.3</ele>
        <time>2018-11-29T15:22:23.000Z</time>
      </trkpt>
      <trkpt lat="43.98752" lon="5.12023">
        <ele>282.9</ele>
        <time>2018-11-29T15:22:23.000Z</time>
      </trkpt>
      <trkpt lat="43.9875" lon="5.12023">
        <ele>282.7</ele>
        <time>2018-11-29T15:22:23.000Z</time>
      </trkpt>
      <trkpt lat="43.98747" lon="5.12026">
        <ele>283.1</ele>
        <time>2018-11-29T15:22:23.000Z</time>
      </trkpt>
      <trkpt lat="43.98742" lon="5.12027">
        <ele>282.8</ele>
        <time>2018-11-29T15:22:23.000Z</time>
      </trkpt>
      <trkpt lat="43.98735" lon="5.12034">
        <ele>283.4</ele>
        <time>2018-11-29T15:24:59.000Z</time>
      </trkpt>
      <trkpt lat="43.98735" lon="5.12037">
        <ele>284.1</ele>
        <time>2018-11-29T15:24:59.000Z</time>
      </trkpt>
      <trkpt lat="43.98734" lon="5.12037">
        <ele>284.1</ele>
        <time>2018-11-29T15:24:59.000Z</time>
      </trkpt>
      <trkpt lat="43.98734" lon="5.12041">
        <ele>284.8</ele>
        <time>2018-11-29T15:24:59.000Z</time>
      </trkpt>
      <trkpt lat="43.98731" lon="5.12046">
        <ele>285.8</ele>
        <time>2018-11-29T15:25:39.000Z</time>
      </trkpt>
      <trkpt lat="43.9873" lon="5.1205">
        <ele>286.6</ele>
        <time>2018-11-29T15:25:39.000Z</time>
      </trkpt>
      <trkpt lat="43.98729" lon="5.12053">
        <ele>287.1</ele>
        <time>2018-11-29T15:25:39.000Z</time>
      </trkpt>
      <trkpt lat="43.9873" lon="5.12058">
        <ele>288.4</ele>
        <time>2018-11-29T15:25:39.000Z</time>
      </trkpt>
      <trkpt lat="43.98731" lon="5.12062">
        <ele>289.3</ele>
        <time>2018-11-29T15:25:59.000Z</time>
      </trkpt>
      <trkpt lat="43.98731" lon="5.12068">
        <ele>290.6</ele>
        <time>2018-11-29T15:25:59.000Z</time>
      </trkpt>
      <trkpt lat="43.98734" lon="5.12074">
        <ele>292.2</ele>
        <time>2018-11-29T15:25:59.000Z</time>
      </trkpt>
      <trkpt lat="43.98735" lon="5.12079">
        <ele>293.5</ele>
        <time>2018-11-29T15:25:59.000Z</time>
      </trkpt>
      <trkpt lat="43.98736" lon="5.12083">
        <ele>294.4</ele>
        <time>2018-11-29T15:26:15.000Z</time>
      </trkpt>
      <trkpt lat="43.98738" lon="5.12086">
        <ele>294.8</ele>
        <time>2018-11-29T15:26:15.000Z</time>
      </trkpt>
      <trkpt lat="43.9874" lon="5.12091">
        <ele>295</ele>
        <time>2018-11-29T15:26:15.000Z</time>
      </trkpt>
      <trkpt lat="43.98742" lon="5.12095">
        <ele>295.1</ele>
        <time>2018-11-29T15:26:15.000Z</time>
      </trkpt>
      <trkpt lat="43.98745" lon="5.12101">
        <ele>295.2</ele>
        <time>2018-11-29T15:26:39.000Z</time>
      </trkpt>
      <trkpt lat="43.98746" lon="5.12106">
        <ele>295.2</ele>
        <time>2018-11-29T15:26:39.000Z</time>
      </trkpt>
      <trkpt lat="43.98745" lon="5.12109">
        <ele>295</ele>
        <time>2018-11-29T15:26:39.000Z</time>
      </trkpt>
      <trkpt lat="43.98746" lon="5.12112">
        <ele>295.1</ele>
        <time>2018-11-29T15:26:39.000Z</time>
      </trkpt>
      <trkpt lat="43.98749" lon="5.1212">
        <ele>295.1</ele>
        <time>2018-11-29T15:26:39.000Z</time>
      </trkpt>
      <trkpt lat="43.9875" lon="5.12126">
        <ele>295</ele>
        <time>2018-11-29T15:26:55.000Z</time>
      </trkpt>
      <trkpt lat="43.98751" lon="5.1213">
        <ele>294.9</ele>
        <time>2018-11-29T15:26:55.000Z</time>
      </trkpt>
      <trkpt lat="43.9875" lon="5.12134">
        <ele>294.8</ele>
        <time>2018-11-29T15:26:55.000Z</time>
      </trkpt>
      <trkpt lat="43.98749" lon="5.12138">
        <ele>294.7</ele>
        <time>2018-11-29T15:26:55.000Z</time>
      </trkpt>
      <trkpt lat="43.9875" lon="5.12142">
        <ele>294.6</ele>
        <time>2018-11-29T15:27:19.000Z</time>
      </trkpt>
      <trkpt lat="43.98751" lon="5.12148">
        <ele>294.4</ele>
        <time>2018-11-29T15:27:19.000Z</time>
      </trkpt>
      <trkpt lat="43.98753" lon="5.12151">
        <ele>294.3</ele>
        <time>2018-11-29T15:27:19.000Z</time>
      </trkpt>
      <trkpt lat="43.98753" lon="5.12154">
        <ele>294.2</ele>
        <time>2018-11-29T15:27:19.000Z</time>
      </trkpt>
      <trkpt lat="43.98754" lon="5.12158">
        <ele>294.1</ele>
        <time>2018-11-29T15:27:35.000Z</time>
      </trkpt>
      <trkpt lat="43.98758" lon="5.12163">
        <ele>293.9</ele>
        <time>2018-11-29T15:27:35.000Z</time>
      </trkpt>
      <trkpt lat="43.98762" lon="5.12171">
        <ele>293.7</ele>
        <time>2018-11-29T15:27:35.000Z</time>
      </trkpt>
      <trkpt lat="43.98763" lon="5.12175">
        <ele>293.6</ele>
        <time>2018-11-29T15:27:51.000Z</time>
      </trkpt>
      <trkpt lat="43.98766" lon="5.12178">
        <ele>293.5</ele>
        <time>2018-11-29T15:27:51.000Z</time>
      </trkpt>
      <trkpt lat="43.98767" lon="5.12183">
        <ele>293.4</ele>
        <time>2018-11-29T15:27:51.000Z</time>
      </trkpt>
      <trkpt lat="43.98768" lon="5.12187">
        <ele>293.3</ele>
        <time>2018-11-29T15:27:51.000Z</time>
      </trkpt>
      <trkpt lat="43.98769" lon="5.12191">
        <ele>293.2</ele>
        <time>2018-11-29T15:28:7.000Z</time>
      </trkpt>
      <trkpt lat="43.98771" lon="5.12194">
        <ele>293.1</ele>
        <time>2018-11-29T15:28:7.000Z</time>
      </trkpt>
      <trkpt lat="43.98773" lon="5.12197">
        <ele>293</ele>
        <time>2018-11-29T15:28:7.000Z</time>
      </trkpt>
      <trkpt lat="43.98774" lon="5.12201">
        <ele>292.9</ele>
        <time>2018-11-29T15:28:7.000Z</time>
      </trkpt>
      <trkpt lat="43.98776" lon="5.12206">
        <ele>292.8</ele>
        <time>2018-11-29T15:28:23.000Z</time>
      </trkpt>
      <trkpt lat="43.98774" lon="5.12217">
        <ele>292.7</ele>
        <time>2018-11-29T15:28:23.000Z</time>
      </trkpt>
      <trkpt lat="43.98775" lon="5.12224">
        <ele>292.5</ele>
        <time>2018-11-29T15:28:23.000Z</time>
      </trkpt>
      <trkpt lat="43.98781" lon="5.12228">
        <ele>292.3</ele>
        <time>2018-11-29T15:28:39.000Z</time>
      </trkpt>
      <trkpt lat="43.98782" lon="5.12233">
        <ele>292.1</ele>
        <time>2018-11-29T15:28:39.000Z</time>
      </trkpt>
      <trkpt lat="43.98782" lon="5.1224">
        <ele>292</ele>
        <time>2018-11-29T15:28:39.000Z</time>
      </trkpt>
      <trkpt lat="43.98778" lon="5.12246">
        <ele>292</ele>
        <time>2018-11-29T15:28:39.000Z</time>
      </trkpt>
      <trkpt lat="43.98777" lon="5.12251">
        <ele>292</ele>
        <time>2018-11-29T15:28:55.000Z</time>
      </trkpt>
      <trkpt lat="43.98778" lon="5.12256">
        <ele>292</ele>
        <time>2018-11-29T15:28:55.000Z</time>
      </trkpt>
      <trkpt lat="43.98778" lon="5.1226">
        <ele>292</ele>
        <time>2018-11-29T15:28:55.000Z</time>
      </trkpt>
      <trkpt lat="43.98779" lon="5.12264">
        <ele>292</ele>
        <time>2018-11-29T15:28:55.000Z</time>
      </trkpt>
      <trkpt lat="43.9878" lon="5.12267">
        <ele>291.9</ele>
        <time>2018-11-29T15:29:11.000Z</time>
      </trkpt>
      <trkpt lat="43.98781" lon="5.12272">
        <ele>291.9</ele>
        <time>2018-11-29T15:29:11.000Z</time>
      </trkpt>
      <trkpt lat="43.98783" lon="5.12277">
        <ele>291.8</ele>
        <time>2018-11-29T15:29:11.000Z</time>
      </trkpt>
      <trkpt lat="43.98785" lon="5.12284">
        <ele>291.7</ele>
        <time>2018-11-29T15:29:11.000Z</time>
      </trkpt>
      <trkpt lat="43.98793" lon="5.12293">
        <ele>291.5</ele>
        <time>2018-11-29T15:29:35.000Z</time>
      </trkpt>
      <trkpt lat="43.98792" lon="5.12296">
        <ele>291.5</ele>
        <time>2018-11-29T15:29:35.000Z</time>
      </trkpt>
      <trkpt lat="43.98792" lon="5.12297">
        <ele>291.5</ele>
        <time>2018-11-29T15:29:35.000Z</time>
      </trkpt>
      <trkpt lat="43.98793" lon="5.12299">
        <ele>291.5</ele>
        <time>2018-11-29T15:29:35.000Z</time>
      </trkpt>
      <trkpt lat="43.98793" lon="5.12304">
        <ele>291.4</ele>
        <time>2018-11-29T15:29:35.000Z</time>
      </trkpt>
      <trkpt lat="43.98795" lon="5.12309">
        <ele>291.4</ele>
        <time>2018-11-29T15:29:51.000Z</time>
      </trkpt>
      <trkpt lat="43.98799" lon="5.12319">
        <ele>291.2</ele>
        <time>2018-11-29T15:29:51.000Z</time>
      </trkpt>
      <trkpt lat="43.988" lon="5.12324">
        <ele>291.2</ele>
        <time>2018-11-29T15:29:51.000Z</time>
      </trkpt>
      <trkpt lat="43.98802" lon="5.12328">
        <ele>291.1</ele>
        <time>2018-11-29T15:30:7.000Z</time>
      </trkpt>
      <trkpt lat="43.98803" lon="5.12332">
        <ele>291.1</ele>
        <time>2018-11-29T15:30:7.000Z</time>
      </trkpt>
      <trkpt lat="43.98804" lon="5.12338">
        <ele>291.2</ele>
        <time>2018-11-29T15:30:7.000Z</time>
      </trkpt>
      <trkpt lat="43.98808" lon="5.12353">
        <ele>291.4</ele>
        <time>2018-11-29T15:30:39.000Z</time>
      </trkpt>
      <trkpt lat="43.98811" lon="5.12355">
        <ele>291.4</ele>
        <time>2018-11-29T15:30:39.000Z</time>
      </trkpt>
      <trkpt lat="43.98811" lon="5.12356">
        <ele>291.4</ele>
        <time>2018-11-29T15:30:39.000Z</time>
      </trkpt>
      <trkpt lat="43.98812" lon="5.12358">
        <ele>291.4</ele>
        <time>2018-11-29T15:30:39.000Z</time>
      </trkpt>
      <trkpt lat="43.98813" lon="5.1236">
        <ele>291.4</ele>
        <time>2018-11-29T15:30:39.000Z</time>
      </trkpt>
      <trkpt lat="43.98814" lon="5.12363">
        <ele>291.5</ele>
        <time>2018-11-29T15:31:43.000Z</time>
      </trkpt>
      <trkpt lat="43.98814" lon="5.12364">
        <ele>291.5</ele>
        <time>2018-11-29T15:31:43.000Z</time>
      </trkpt>
      <trkpt lat="43.98815" lon="5.12367">
        <ele>291.5</ele>
        <time>2018-11-29T15:31:43.000Z</time>
      </trkpt>
      <trkpt lat="43.98817" lon="5.12368">
        <ele>291.5</ele>
        <time>2018-11-29T15:31:43.000Z</time>
      </trkpt>
      <trkpt lat="43.98819" lon="5.12373">
        <ele>291.5</ele>
        <time>2018-11-29T15:31:43.000Z</time>
      </trkpt>
      <trkpt lat="43.98823" lon="5.12379">
        <ele>291.5</ele>
        <time>2018-11-29T15:32:59.000Z</time>
      </trkpt>
      <trkpt lat="43.98823" lon="5.12383">
        <ele>291.6</ele>
        <time>2018-11-29T15:32:59.000Z</time>
      </trkpt>
      <trkpt lat="43.98823" lon="5.12386">
        <ele>291.7</ele>
        <time>2018-11-29T15:32:59.000Z</time>
      </trkpt>
      <trkpt lat="43.98824" lon="5.12387">
        <ele>291.7</ele>
        <time>2018-11-29T15:32:59.000Z</time>
      </trkpt>
      <trkpt lat="43.98829" lon="5.12396">
        <ele>291.7</ele>
        <time>2018-11-29T15:33:15.000Z</time>
      </trkpt>
      <trkpt lat="43.9883" lon="5.12401">
        <ele>291.8</ele>
        <time>2018-11-29T15:33:15.000Z</time>
      </trkpt>
      <trkpt lat="43.98834" lon="5.12405">
        <ele>291.7</ele>
        <time>2018-11-29T15:33:15.000Z</time>
      </trkpt>
      <trkpt lat="43.98837" lon="5.12408">
        <ele>291.7</ele>
        <time>2018-11-29T15:33:15.000Z</time>
      </trkpt>
      <trkpt lat="43.98839" lon="5.1241">
        <ele>291.8</ele>
        <time>2018-11-29T15:33:31.000Z</time>
      </trkpt>
      <trkpt lat="43.98841" lon="5.12413">
        <ele>291.8</ele>
        <time>2018-11-29T15:33:31.000Z</time>
      </trkpt>
      <trkpt lat="43.98845" lon="5.12416">
        <ele>291.8</ele>
        <time>2018-11-29T15:33:31.000Z</time>
      </trkpt>
      <trkpt lat="43.98847" lon="5.12418">
        <ele>291.9</ele>
        <time>2018-11-29T15:33:31.000Z</time>
      </trkpt>
      <trkpt lat="43.98857" lon="5.12428">
        <ele>292.1</ele>
        <time>2018-11-29T15:33:48.000Z</time>
      </trkpt>
      <trkpt lat="43.98859" lon="5.1243">
        <ele>292.2</ele>
        <time>2018-11-29T15:33:48.000Z</time>
      </trkpt>
      <trkpt lat="43.98859" lon="5.12431">
        <ele>292.2</ele>
        <time>2018-11-29T15:34:3.000Z</time>
      </trkpt>
      <trkpt lat="43.98861" lon="5.12434">
        <ele>292.3</ele>
        <time>2018-11-29T15:34:3.000Z</time>
      </trkpt>
      <trkpt lat="43.98864" lon="5.12437">
        <ele>292.4</ele>
        <time>2018-11-29T15:34:3.000Z</time>
      </trkpt>
      <trkpt lat="43.98867" lon="5.1244">
        <ele>292.4</ele>
        <time>2018-11-29T15:34:3.000Z</time>
      </trkpt>
      <trkpt lat="43.9887" lon="5.12443">
        <ele>292.5</ele>
        <time>2018-11-29T15:34:19.000Z</time>
      </trkpt>
      <trkpt lat="43.98873" lon="5.12446">
        <ele>292.6</ele>
        <time>2018-11-29T15:34:19.000Z</time>
      </trkpt>
      <trkpt lat="43.98876" lon="5.12449">
        <ele>292.6</ele>
        <time>2018-11-29T15:34:19.000Z</time>
      </trkpt>
      <trkpt lat="43.98878" lon="5.12452">
        <ele>292.7</ele>
        <time>2018-11-29T15:34:19.000Z</time>
      </trkpt>
      <trkpt lat="43.98878" lon="5.12453">
        <ele>292.8</ele>
        <time>2018-11-29T15:34:35.000Z</time>
      </trkpt>
      <trkpt lat="43.98879" lon="5.12456">
        <ele>292.9</ele>
        <time>2018-11-29T15:34:35.000Z</time>
      </trkpt>
      <trkpt lat="43.98882" lon="5.12461">
        <ele>293</ele>
        <time>2018-11-29T15:34:35.000Z</time>
      </trkpt>
      <trkpt lat="43.98884" lon="5.12464">
        <ele>293.1</ele>
        <time>2018-11-29T15:34:35.000Z</time>
      </trkpt>
      <trkpt lat="43.98886" lon="5.12468">
        <ele>293.2</ele>
        <time>2018-11-29T15:34:51.000Z</time>
      </trkpt>
      <trkpt lat="43.9889" lon="5.12473">
        <ele>293.3</ele>
        <time>2018-11-29T15:34:51.000Z</time>
      </trkpt>
      <trkpt lat="43.98892" lon="5.12478">
        <ele>293.5</ele>
        <time>2018-11-29T15:34:51.000Z</time>
      </trkpt>
      <trkpt lat="43.98896" lon="5.1248">
        <ele>293.5</ele>
        <time>2018-11-29T15:34:51.000Z</time>
      </trkpt>
      <trkpt lat="43.98902" lon="5.12486">
        <ele>293.6</ele>
        <time>2018-11-29T15:35:15.000Z</time>
      </trkpt>
      <trkpt lat="43.98906" lon="5.12487">
        <ele>293.6</ele>
        <time>2018-11-29T15:35:15.000Z</time>
      </trkpt>
      <trkpt lat="43.98907" lon="5.12488">
        <ele>293.7</ele>
        <time>2018-11-29T15:35:15.000Z</time>
      </trkpt>
      <trkpt lat="43.98911" lon="5.12488">
        <ele>293.6</ele>
        <time>2018-11-29T15:35:35.000Z</time>
      </trkpt>
      <trkpt lat="43.98912" lon="5.12489">
        <ele>293.6</ele>
        <time>2018-11-29T15:35:35.000Z</time>
      </trkpt>
      <trkpt lat="43.98916" lon="5.12486">
        <ele>293.5</ele>
        <time>2018-11-29T15:35:35.000Z</time>
      </trkpt>
      <trkpt lat="43.98919" lon="5.12485">
        <ele>293.2</ele>
        <time>2018-11-29T15:35:35.000Z</time>
      </trkpt>
      <trkpt lat="43.98921" lon="5.12485">
        <ele>293</ele>
        <time>2018-11-29T15:35:35.000Z</time>
      </trkpt>
      <trkpt lat="43.98924" lon="5.12485">
        <ele>292.7</ele>
        <time>2018-11-29T15:35:55.000Z</time>
      </trkpt>
      <trkpt lat="43.98927" lon="5.12485">
        <ele>292.5</ele>
        <time>2018-11-29T15:35:55.000Z</time>
      </trkpt>
      <trkpt lat="43.98929" lon="5.12484">
        <ele>292.2</ele>
        <time>2018-11-29T15:35:55.000Z</time>
      </trkpt>
      <trkpt lat="43.98933" lon="5.12482">
        <ele>291.8</ele>
        <time>2018-11-29T15:35:55.000Z</time>
      </trkpt>
      <trkpt lat="43.98937" lon="5.12484">
        <ele>291.4</ele>
        <time>2018-11-29T15:35:55.000Z</time>
      </trkpt>
      <trkpt lat="43.9894" lon="5.12486">
        <ele>291.2</ele>
        <time>2018-11-29T15:36:11.000Z</time>
      </trkpt>
      <trkpt lat="43.98944" lon="5.12487">
        <ele>290.9</ele>
        <time>2018-11-29T15:36:11.000Z</time>
      </trkpt>
      <trkpt lat="43.98947" lon="5.12488">
        <ele>290.5</ele>
        <time>2018-11-29T15:36:11.000Z</time>
      </trkpt>
      <trkpt lat="43.9895" lon="5.12489">
        <ele>290.3</ele>
        <time>2018-11-29T15:36:11.000Z</time>
      </trkpt>
      <trkpt lat="43.98949" lon="5.12489">
        <ele>290.4</ele>
        <time>2018-11-29T15:36:27.000Z</time>
      </trkpt>
      <trkpt lat="43.98949" lon="5.12493">
        <ele>290.4</ele>
        <time>2018-11-29T15:36:27.000Z</time>
      </trkpt>
      <trkpt lat="43.98948" lon="5.12508">
        <ele>290.3</ele>
        <time>2018-11-29T15:36:27.000Z</time>
      </trkpt>
      <trkpt lat="43.98946" lon="5.12515">
        <ele>290.3</ele>
        <time>2018-11-29T15:36:43.000Z</time>
      </trkpt>
      <trkpt lat="43.98944" lon="5.12518">
        <ele>290.4</ele>
        <time>2018-11-29T15:36:43.000Z</time>
      </trkpt>
      <trkpt lat="43.98941" lon="5.12523">
        <ele>290.6</ele>
        <time>2018-11-29T15:36:43.000Z</time>
      </trkpt>
      <trkpt lat="43.98938" lon="5.12525">
        <ele>290.8</ele>
        <time>2018-11-29T15:36:43.000Z</time>
      </trkpt>
      <trkpt lat="43.9894" lon="5.12529">
        <ele>290.5</ele>
        <time>2018-11-29T15:37:7.000Z</time>
      </trkpt>
      <trkpt lat="43.98941" lon="5.12534">
        <ele>290.2</ele>
        <time>2018-11-29T15:37:7.000Z</time>
      </trkpt>
      <trkpt lat="43.9894" lon="5.12536">
        <ele>290.2</ele>
        <time>2018-11-29T15:37:7.000Z</time>
      </trkpt>
      <trkpt lat="43.9894" lon="5.12536">
        <ele>290.2</ele>
        <time>2018-11-29T15:37:7.000Z</time>
      </trkpt>
      <trkpt lat="43.98937" lon="5.12539">
        <ele>290.4</ele>
        <time>2018-11-29T15:37:7.000Z</time>
      </trkpt>
      <trkpt lat="43.98938" lon="5.12543">
        <ele>290.2</ele>
        <time>2018-11-29T15:37:23.000Z</time>
      </trkpt>
      <trkpt lat="43.9894" lon="5.12549">
        <ele>289.8</ele>
        <time>2018-11-29T15:37:23.000Z</time>
      </trkpt>
      <trkpt lat="43.98941" lon="5.12553">
        <ele>289.5</ele>
        <time>2018-11-29T15:37:23.000Z</time>
      </trkpt>
      <trkpt lat="43.98942" lon="5.12558">
        <ele>289.2</ele>
        <time>2018-11-29T15:37:23.000Z</time>
      </trkpt>
      <trkpt lat="43.98943" lon="5.12563">
        <ele>288.9</ele>
        <time>2018-11-29T15:37:59.000Z</time>
      </trkpt>
      <trkpt lat="43.98944" lon="5.12563">
        <ele>288.9</ele>
        <time>2018-11-29T15:37:59.000Z</time>
      </trkpt>
      <trkpt lat="43.98941" lon="5.1256">
        <ele>289.2</ele>
        <time>2018-11-29T15:37:59.000Z</time>
      </trkpt>
      <trkpt lat="43.98941" lon="5.12556">
        <ele>289.4</ele>
        <time>2018-11-29T15:37:59.000Z</time>
      </trkpt>
      <trkpt lat="43.98939" lon="5.12551">
        <ele>289.8</ele>
        <time>2018-11-29T15:37:59.000Z</time>
      </trkpt>
      <trkpt lat="43.98937" lon="5.12548">
        <ele>290.1</ele>
        <time>2018-11-29T15:38:15.000Z</time>
      </trkpt>
      <trkpt lat="43.98937" lon="5.12546">
        <ele>290.2</ele>
        <time>2018-11-29T15:38:15.000Z</time>
      </trkpt>
      <trkpt lat="43.98935" lon="5.12539">
        <ele>290.6</ele>
        <time>2018-11-29T15:38:15.000Z</time>
      </trkpt>
      <trkpt lat="43.98933" lon="5.12533">
        <ele>291.1</ele>
        <time>2018-11-29T15:38:15.000Z</time>
      </trkpt>
      <trkpt lat="43.9893" lon="5.12528">
        <ele>291.6</ele>
        <time>2018-11-29T15:38:31.000Z</time>
      </trkpt>
      <trkpt lat="43.98926" lon="5.12525">
        <ele>292.2</ele>
        <time>2018-11-29T15:38:31.000Z</time>
      </trkpt>
      <trkpt lat="43.98921" lon="5.12521">
        <ele>292.7</ele>
        <time>2018-11-29T15:38:31.000Z</time>
      </trkpt>
      <trkpt lat="43.98918" lon="5.12517">
        <ele>293.2</ele>
        <time>2018-11-29T15:38:31.000Z</time>
      </trkpt>
      <trkpt lat="43.98908" lon="5.12514">
        <ele>293.6</ele>
        <time>2018-11-29T15:39:19.000Z</time>
      </trkpt>
      <trkpt lat="43.98908" lon="5.12517">
        <ele>293.5</ele>
        <time>2018-11-29T15:39:19.000Z</time>
      </trkpt>
      <trkpt lat="43.98907" lon="5.1252">
        <ele>293.4</ele>
        <time>2018-11-29T15:39:19.000Z</time>
      </trkpt>
      <trkpt lat="43.98907" lon="5.12523">
        <ele>293.3</ele>
        <time>2018-11-29T15:39:19.000Z</time>
      </trkpt>
      <trkpt lat="43.98906" lon="5.12528">
        <ele>293.1</ele>
        <time>2018-11-29T15:39:19.000Z</time>
      </trkpt>
      <trkpt lat="43.98905" lon="5.12532">
        <ele>293</ele>
        <time>2018-11-29T15:39:35.000Z</time>
      </trkpt>
      <trkpt lat="43.98905" lon="5.12538">
        <ele>292.8</ele>
        <time>2018-11-29T15:39:35.000Z</time>
      </trkpt>
      <trkpt lat="43.98905" lon="5.12542">
        <ele>292.6</ele>
        <time>2018-11-29T15:39:35.000Z</time>
      </trkpt>
      <trkpt lat="43.98904" lon="5.12545">
        <ele>292.5</ele>
        <time>2018-11-29T15:39:35.000Z</time>
      </trkpt>
      <trkpt lat="43.98903" lon="5.12555">
        <ele>292.2</ele>
        <time>2018-11-29T15:39:59.000Z</time>
      </trkpt>
      <trkpt lat="43.98902" lon="5.12557">
        <ele>292.1</ele>
        <time>2018-11-29T15:39:59.000Z</time>
      </trkpt>
      <trkpt lat="43.98902" lon="5.12562">
        <ele>291.9</ele>
        <time>2018-11-29T15:39:59.000Z</time>
      </trkpt>
      <trkpt lat="43.98902" lon="5.12567">
        <ele>291.8</ele>
        <time>2018-11-29T15:39:59.000Z</time>
      </trkpt>
      <trkpt lat="43.98901" lon="5.12572">
        <ele>291.6</ele>
        <time>2018-11-29T15:40:15.000Z</time>
      </trkpt>
      <trkpt lat="43.98902" lon="5.12576">
        <ele>291.4</ele>
        <time>2018-11-29T15:40:15.000Z</time>
      </trkpt>
      <trkpt lat="43.98901" lon="5.12582">
        <ele>291.2</ele>
        <time>2018-11-29T15:40:15.000Z</time>
      </trkpt>
      <trkpt lat="43.98901" lon="5.12587">
        <ele>290.9</ele>
        <time>2018-11-29T15:40:15.000Z</time>
      </trkpt>
      <trkpt lat="43.98899" lon="5.12594">
        <ele>290.2</ele>
        <time>2018-11-29T15:40:43.000Z</time>
      </trkpt>
      <trkpt lat="43.98899" lon="5.12597">
        <ele>289.8</ele>
        <time>2018-11-29T15:40:43.000Z</time>
      </trkpt>
      <trkpt lat="43.98898" lon="5.12602">
        <ele>289.4</ele>
        <time>2018-11-29T15:40:43.000Z</time>
      </trkpt>
      <trkpt lat="43.98898" lon="5.12604">
        <ele>289.1</ele>
        <time>2018-11-29T15:40:43.000Z</time>
      </trkpt>
      <trkpt lat="43.98899" lon="5.12609">
        <ele>288.6</ele>
        <time>2018-11-29T15:41:7.000Z</time>
      </trkpt>
      <trkpt lat="43.98899" lon="5.12613">
        <ele>288.2</ele>
        <time>2018-11-29T15:41:7.000Z</time>
      </trkpt>
      <trkpt lat="43.98897" lon="5.12618">
        <ele>287.7</ele>
        <time>2018-11-29T15:41:7.000Z</time>
      </trkpt>
      <trkpt lat="43.98897" lon="5.12621">
        <ele>287.4</ele>
        <time>2018-11-29T15:41:7.000Z</time>
      </trkpt>
      <trkpt lat="43.98895" lon="5.12621">
        <ele>287.3</ele>
        <time>2018-11-29T15:41:23.000Z</time>
      </trkpt>
      <trkpt lat="43.98894" lon="5.12627">
        <ele>286.7</ele>
        <time>2018-11-29T15:41:23.000Z</time>
      </trkpt>
      <trkpt lat="43.98888" lon="5.12635">
        <ele>285.8</ele>
        <time>2018-11-29T15:41:23.000Z</time>
      </trkpt>
      <trkpt lat="43.98886" lon="5.12639">
        <ele>285.3</ele>
        <time>2018-11-29T15:41:39.000Z</time>
      </trkpt>
      <trkpt lat="43.98884" lon="5.12644">
        <ele>284.8</ele>
        <time>2018-11-29T15:41:39.000Z</time>
      </trkpt>
      <trkpt lat="43.98879" lon="5.12651">
        <ele>283.9</ele>
        <time>2018-11-29T15:41:39.000Z</time>
      </trkpt>
      <trkpt lat="43.98877" lon="5.12655">
        <ele>283.5</ele>
        <time>2018-11-29T15:41:39.000Z</time>
      </trkpt>
      <trkpt lat="43.98877" lon="5.12656">
        <ele>283.3</ele>
        <time>2018-11-29T15:41:55.000Z</time>
      </trkpt>
      <trkpt lat="43.98873" lon="5.12664">
        <ele>282.3</ele>
        <time>2018-11-29T15:41:55.000Z</time>
      </trkpt>
      <trkpt lat="43.98873" lon="5.12669">
        <ele>281.8</ele>
        <time>2018-11-29T15:41:55.000Z</time>
      </trkpt>
      <trkpt lat="43.98872" lon="5.12671">
        <ele>281.6</ele>
        <time>2018-11-29T15:42:11.000Z</time>
      </trkpt>
      <trkpt lat="43.98873" lon="5.12675">
        <ele>281.3</ele>
        <time>2018-11-29T15:42:11.000Z</time>
      </trkpt>
      <trkpt lat="43.98874" lon="5.12681">
        <ele>280.8</ele>
        <time>2018-11-29T15:42:11.000Z</time>
      </trkpt>
      <trkpt lat="43.98873" lon="5.12688">
        <ele>280.3</ele>
        <time>2018-11-29T15:42:11.000Z</time>
      </trkpt>
      <trkpt lat="43.98873" lon="5.12693">
        <ele>279.8</ele>
        <time>2018-11-29T15:42:27.000Z</time>
      </trkpt>
      <trkpt lat="43.98874" lon="5.12699">
        <ele>279.3</ele>
        <time>2018-11-29T15:42:27.000Z</time>
      </trkpt>
      <trkpt lat="43.98874" lon="5.12704">
        <ele>278.9</ele>
        <time>2018-11-29T15:42:27.000Z</time>
      </trkpt>
      <trkpt lat="43.98874" lon="5.12709">
        <ele>278.5</ele>
        <time>2018-11-29T15:42:27.000Z</time>
      </trkpt>
      <trkpt lat="43.98873" lon="5.12713">
        <ele>278.2</ele>
        <time>2018-11-29T15:42:43.000Z</time>
      </trkpt>
      <trkpt lat="43.98873" lon="5.12719">
        <ele>277.7</ele>
        <time>2018-11-29T15:42:43.000Z</time>
      </trkpt>
      <trkpt lat="43.98872" lon="5.12726">
        <ele>277.1</ele>
        <time>2018-11-29T15:42:44.000Z</time>
      </trkpt>
      <trkpt lat="43.98872" lon="5.12733">
        <ele>276.5</ele>
        <time>2018-11-29T15:42:44.000Z</time>
      </trkpt>
      <trkpt lat="43.98873" lon="5.1274">
        <ele>275.9</ele>
        <time>2018-11-29T15:42:59.000Z</time>
      </trkpt>
      <trkpt lat="43.98873" lon="5.12747">
        <ele>275.3</ele>
        <time>2018-11-29T15:42:59.000Z</time>
      </trkpt>
      <trkpt lat="43.98873" lon="5.1275">
        <ele>275.1</ele>
        <time>2018-11-29T15:42:59.000Z</time>
      </trkpt>
      <trkpt lat="43.98876" lon="5.12755">
        <ele>275.4</ele>
        <time>2018-11-29T15:43:15.000Z</time>
      </trkpt>
      <trkpt lat="43.98878" lon="5.1276">
        <ele>275.7</ele>
        <time>2018-11-29T15:43:15.000Z</time>
      </trkpt>
      <trkpt lat="43.98878" lon="5.12765">
        <ele>276.1</ele>
        <time>2018-11-29T15:43:15.000Z</time>
      </trkpt>
      <trkpt lat="43.9888" lon="5.12769">
        <ele>276.4</ele>
        <time>2018-11-29T15:43:15.000Z</time>
      </trkpt>
      <trkpt lat="43.9888" lon="5.12776">
        <ele>276.9</ele>
        <time>2018-11-29T15:43:31.000Z</time>
      </trkpt>
      <trkpt lat="43.9888" lon="5.12782">
        <ele>277.5</ele>
        <time>2018-11-29T15:43:31.000Z</time>
      </trkpt>
      <trkpt lat="43.98881" lon="5.12786">
        <ele>277.8</ele>
        <time>2018-11-29T15:43:31.000Z</time>
      </trkpt>
      <trkpt lat="43.9888" lon="5.12789">
        <ele>278</ele>
        <time>2018-11-29T15:43:31.000Z</time>
      </trkpt>
      <trkpt lat="43.98883" lon="5.12793">
        <ele>278.3</ele>
        <time>2018-11-29T15:43:47.000Z</time>
      </trkpt>
      <trkpt lat="43.98885" lon="5.12797">
        <ele>278.5</ele>
        <time>2018-11-29T15:43:47.000Z</time>
      </trkpt>
      <trkpt lat="43.98887" lon="5.128">
        <ele>278.8</ele>
        <time>2018-11-29T15:43:47.000Z</time>
      </trkpt>
      <trkpt lat="43.98888" lon="5.12805">
        <ele>279</ele>
        <time>2018-11-29T15:43:47.000Z</time>
      </trkpt>
      <trkpt lat="43.98894" lon="5.12811">
        <ele>279.3</ele>
        <time>2018-11-29T15:45:31.000Z</time>
      </trkpt>
      <trkpt lat="43.98895" lon="5.12811">
        <ele>279.3</ele>
        <time>2018-11-29T15:45:31.000Z</time>
      </trkpt>
      <trkpt lat="43.98895" lon="5.12812">
        <ele>279.3</ele>
        <time>2018-11-29T15:45:31.000Z</time>
      </trkpt>
      <trkpt lat="43.98896" lon="5.12814">
        <ele>279.4</ele>
        <time>2018-11-29T15:45:31.000Z</time>
      </trkpt>
      <trkpt lat="43.98898" lon="5.12817">
        <ele>279.6</ele>
        <time>2018-11-29T15:45:31.000Z</time>
      </trkpt>
      <trkpt lat="43.98901" lon="5.12827">
        <ele>280.2</ele>
        <time>2018-11-29T15:45:47.000Z</time>
      </trkpt>
      <trkpt lat="43.98901" lon="5.12831">
        <ele>280.5</ele>
        <time>2018-11-29T15:45:47.000Z</time>
      </trkpt>
      <trkpt lat="43.98903" lon="5.12836">
        <ele>280.8</ele>
        <time>2018-11-29T15:45:47.000Z</time>
      </trkpt>
      <trkpt lat="43.98906" lon="5.12841">
        <ele>281.1</ele>
        <time>2018-11-29T15:46:3.000Z</time>
      </trkpt>
      <trkpt lat="43.9891" lon="5.12848">
        <ele>281.5</ele>
        <time>2018-11-29T15:46:3.000Z</time>
      </trkpt>
      <trkpt lat="43.98912" lon="5.12853">
        <ele>281.8</ele>
        <time>2018-11-29T15:46:3.000Z</time>
      </trkpt>
      <trkpt lat="43.98916" lon="5.12867">
        <ele>282.9</ele>
        <time>2018-11-29T15:46:19.000Z</time>
      </trkpt>
      <trkpt lat="43.98917" lon="5.12873">
        <ele>283.3</ele>
        <time>2018-11-29T15:46:19.000Z</time>
      </trkpt>
      <trkpt lat="43.9892" lon="5.12878">
        <ele>283.8</ele>
        <time>2018-11-29T15:46:19.000Z</time>
      </trkpt>
      <trkpt lat="43.9892" lon="5.12879">
        <ele>283.9</ele>
        <time>2018-11-29T15:46:19.000Z</time>
      </trkpt>
      <trkpt lat="43.98925" lon="5.12891">
        <ele>284.9</ele>
        <time>2018-11-29T15:46:51.000Z</time>
      </trkpt>
      <trkpt lat="43.98926" lon="5.12893">
        <ele>285.1</ele>
        <time>2018-11-29T15:46:51.000Z</time>
      </trkpt>
      <trkpt lat="43.98925" lon="5.12894">
        <ele>285.2</ele>
        <time>2018-11-29T15:46:51.000Z</time>
      </trkpt>
      <trkpt lat="43.98928" lon="5.12897">
        <ele>285.5</ele>
        <time>2018-11-29T15:46:51.000Z</time>
      </trkpt>
      <trkpt lat="43.98929" lon="5.12899">
        <ele>285.8</ele>
        <time>2018-11-29T15:47:11.000Z</time>
      </trkpt>
      <trkpt lat="43.98931" lon="5.12903">
        <ele>286.1</ele>
        <time>2018-11-29T15:47:11.000Z</time>
      </trkpt>
      <trkpt lat="43.98931" lon="5.12904">
        <ele>286.2</ele>
        <time>2018-11-29T15:47:11.000Z</time>
      </trkpt>
      <trkpt lat="43.98932" lon="5.12908">
        <ele>286.5</ele>
        <time>2018-11-29T15:47:11.000Z</time>
      </trkpt>
      <trkpt lat="43.98935" lon="5.12914">
        <ele>287.1</ele>
        <time>2018-11-29T15:47:12.000Z</time>
      </trkpt>
      <trkpt lat="43.9894" lon="5.12918">
        <ele>287.5</ele>
        <time>2018-11-29T15:47:27.000Z</time>
      </trkpt>
      <trkpt lat="43.98942" lon="5.12923">
        <ele>287.5</ele>
        <time>2018-11-29T15:47:27.000Z</time>
      </trkpt>
      <trkpt lat="43.98943" lon="5.12926">
        <ele>287.4</ele>
        <time>2018-11-29T15:47:27.000Z</time>
      </trkpt>
      <trkpt lat="43.98946" lon="5.12929">
        <ele>287.4</ele>
        <time>2018-11-29T15:47:28.000Z</time>
      </trkpt>
      <trkpt lat="43.98948" lon="5.12934">
        <ele>287.3</ele>
        <time>2018-11-29T15:47:47.000Z</time>
      </trkpt>
      <trkpt lat="43.98951" lon="5.12939">
        <ele>287.2</ele>
        <time>2018-11-29T15:47:47.000Z</time>
      </trkpt>
      <trkpt lat="43.98951" lon="5.12941">
        <ele>287.2</ele>
        <time>2018-11-29T15:47:47.000Z</time>
      </trkpt>
      <trkpt lat="43.98953" lon="5.12943">
        <ele>287.2</ele>
        <time>2018-11-29T15:47:47.000Z</time>
      </trkpt>
      <trkpt lat="43.98956" lon="5.12942">
        <ele>287.2</ele>
        <time>2018-11-29T15:47:47.000Z</time>
      </trkpt>
      <trkpt lat="43.98955" lon="5.12947">
        <ele>287.1</ele>
        <time>2018-11-29T15:49:39.000Z</time>
      </trkpt>
      <trkpt lat="43.98953" lon="5.12947">
        <ele>287.1</ele>
        <time>2018-11-29T15:49:39.000Z</time>
      </trkpt>
      <trkpt lat="43.98953" lon="5.12947">
        <ele>287</ele>
        <time>2018-11-29T15:49:39.000Z</time>
      </trkpt>
      <trkpt lat="43.98952" lon="5.12948">
        <ele>287</ele>
        <time>2018-11-29T15:49:39.000Z</time>
      </trkpt>
      <trkpt lat="43.98951" lon="5.12954">
        <ele>286.8</ele>
        <time>2018-11-29T15:49:39.000Z</time>
      </trkpt>
      <trkpt lat="43.98952" lon="5.1296">
        <ele>286.7</ele>
        <time>2018-11-29T15:49:55.000Z</time>
      </trkpt>
      <trkpt lat="43.98953" lon="5.12965">
        <ele>286.6</ele>
        <time>2018-11-29T15:49:55.000Z</time>
      </trkpt>
      <trkpt lat="43.98956" lon="5.12971">
        <ele>286.4</ele>
        <time>2018-11-29T15:49:55.000Z</time>
      </trkpt>
      <trkpt lat="43.98958" lon="5.12978">
        <ele>286.2</ele>
        <time>2018-11-29T15:49:55.000Z</time>
      </trkpt>
      <trkpt lat="43.98959" lon="5.12983">
        <ele>286</ele>
        <time>2018-11-29T15:50:11.000Z</time>
      </trkpt>
      <trkpt lat="43.98961" lon="5.12988">
        <ele>285.8</ele>
        <time>2018-11-29T15:50:11.000Z</time>
      </trkpt>
      <trkpt lat="43.98961" lon="5.12993">
        <ele>285.7</ele>
        <time>2018-11-29T15:50:11.000Z</time>
      </trkpt>
      <trkpt lat="43.98962" lon="5.12999">
        <ele>285.5</ele>
        <time>2018-11-29T15:50:11.000Z</time>
      </trkpt>
      <trkpt lat="43.98964" lon="5.13006">
        <ele>284.8</ele>
        <time>2018-11-29T15:50:27.000Z</time>
      </trkpt>
      <trkpt lat="43.98965" lon="5.13011">
        <ele>284.2</ele>
        <time>2018-11-29T15:50:27.000Z</time>
      </trkpt>
      <trkpt lat="43.98966" lon="5.13018">
        <ele>283.2</ele>
        <time>2018-11-29T15:50:27.000Z</time>
      </trkpt>
      <trkpt lat="43.98967" lon="5.13024">
        <ele>282.5</ele>
        <time>2018-11-29T15:50:27.000Z</time>
      </trkpt>
      <trkpt lat="43.98969" lon="5.13028">
        <ele>282</ele>
        <time>2018-11-29T15:50:43.000Z</time>
      </trkpt>
      <trkpt lat="43.98968" lon="5.13033">
        <ele>281.4</ele>
        <time>2018-11-29T15:50:43.000Z</time>
      </trkpt>
      <trkpt lat="43.98967" lon="5.13038">
        <ele>280.8</ele>
        <time>2018-11-29T15:50:43.000Z</time>
      </trkpt>
      <trkpt lat="43.98968" lon="5.13041">
        <ele>280.4</ele>
        <time>2018-11-29T15:50:43.000Z</time>
      </trkpt>
      <trkpt lat="43.98975" lon="5.13043">
        <ele>280</ele>
        <time>2018-11-29T15:51:7.000Z</time>
      </trkpt>
      <trkpt lat="43.98976" lon="5.13044">
        <ele>279.9</ele>
        <time>2018-11-29T15:51:7.000Z</time>
      </trkpt>
      <trkpt lat="43.98979" lon="5.13046">
        <ele>279.5</ele>
        <time>2018-11-29T15:51:7.000Z</time>
      </trkpt>
      <trkpt lat="43.9898" lon="5.13047">
        <ele>279.4</ele>
        <time>2018-11-29T15:51:7.000Z</time>
      </trkpt>
      <trkpt lat="43.98984" lon="5.13048">
        <ele>279.2</ele>
        <time>2018-11-29T15:51:7.000Z</time>
      </trkpt>
      <trkpt lat="43.98988" lon="5.13048">
        <ele>279.1</ele>
        <time>2018-11-29T15:51:23.000Z</time>
      </trkpt>
      <trkpt lat="43.98993" lon="5.13048">
        <ele>278.9</ele>
        <time>2018-11-29T15:51:23.000Z</time>
      </trkpt>
      <trkpt lat="43.98997" lon="5.13049">
        <ele>278.7</ele>
        <time>2018-11-29T15:51:23.000Z</time>
      </trkpt>
      <trkpt lat="43.99" lon="5.13049">
        <ele>278.6</ele>
        <time>2018-11-29T15:51:23.000Z</time>
      </trkpt>
      <trkpt lat="43.99003" lon="5.1305">
        <ele>278.4</ele>
        <time>2018-11-29T15:51:43.000Z</time>
      </trkpt>
      <trkpt lat="43.99006" lon="5.13053">
        <ele>277.8</ele>
        <time>2018-11-29T15:51:43.000Z</time>
      </trkpt>
      <trkpt lat="43.99007" lon="5.13056">
        <ele>277.4</ele>
        <time>2018-11-29T15:51:43.000Z</time>
      </trkpt>
      <trkpt lat="43.99007" lon="5.13056">
        <ele>277.3</ele>
        <time>2018-11-29T15:51:43.000Z</time>
      </trkpt>
      <trkpt lat="43.9901" lon="5.13061">
        <ele>276.6</ele>
        <time>2018-11-29T15:51:43.000Z</time>
      </trkpt>
      <trkpt lat="43.99013" lon="5.13064">
        <ele>276</ele>
        <time>2018-11-29T15:51:59.000Z</time>
      </trkpt>
      <trkpt lat="43.99017" lon="5.13066">
        <ele>275.5</ele>
        <time>2018-11-29T15:51:59.000Z</time>
      </trkpt>
      <trkpt lat="43.99021" lon="5.13067">
        <ele>275.2</ele>
        <time>2018-11-29T15:51:59.000Z</time>
      </trkpt>
      <trkpt lat="43.99025" lon="5.13068">
        <ele>274.9</ele>
        <time>2018-11-29T15:51:59.000Z</time>
      </trkpt>
      <trkpt lat="43.99028" lon="5.13073">
        <ele>274.2</ele>
        <time>2018-11-29T15:52:15.000Z</time>
      </trkpt>
      <trkpt lat="43.99031" lon="5.13077">
        <ele>273.4</ele>
        <time>2018-11-29T15:52:15.000Z</time>
      </trkpt>
      <trkpt lat="43.99034" lon="5.1308">
        <ele>272.9</ele>
        <time>2018-11-29T15:52:15.000Z</time>
      </trkpt>
      <trkpt lat="43.99038" lon="5.13082">
        <ele>272.4</ele>
        <time>2018-11-29T15:52:15.000Z</time>
      </trkpt>
      <trkpt lat="43.99042" lon="5.13083">
        <ele>272.1</ele>
        <time>2018-11-29T15:52:35.000Z</time>
      </trkpt>
      <trkpt lat="43.99044" lon="5.13082">
        <ele>272.1</ele>
        <time>2018-11-29T15:52:35.000Z</time>
      </trkpt>
      <trkpt lat="43.99046" lon="5.13082">
        <ele>272</ele>
        <time>2018-11-29T15:52:35.000Z</time>
      </trkpt>
      <trkpt lat="43.99049" lon="5.13084">
        <ele>271.7</ele>
        <time>2018-11-29T15:52:35.000Z</time>
      </trkpt>
      <trkpt lat="43.99051" lon="5.13085">
        <ele>271.5</ele>
        <time>2018-11-29T15:52:35.000Z</time>
      </trkpt>
      <trkpt lat="43.99053" lon="5.13087">
        <ele>271.3</ele>
        <time>2018-11-29T15:52:59.000Z</time>
      </trkpt>
      <trkpt lat="43.99056" lon="5.13088">
        <ele>271.1</ele>
        <time>2018-11-29T15:52:59.000Z</time>
      </trkpt>
      <trkpt lat="43.99064" lon="5.1309">
        <ele>270.7</ele>
        <time>2018-11-29T15:52:59.000Z</time>
      </trkpt>
      <trkpt lat="43.99066" lon="5.13089">
        <ele>270.6</ele>
        <time>2018-11-29T15:53:23.000Z</time>
      </trkpt>
      <trkpt lat="43.99068" lon="5.13089">
        <ele>270.5</ele>
        <time>2018-11-29T15:53:23.000Z</time>
      </trkpt>
      <trkpt lat="43.9908" lon="5.1309">
        <ele>269.9</ele>
        <time>2018-11-29T15:53:23.000Z</time>
      </trkpt>
      <trkpt lat="43.9909" lon="5.13092">
        <ele>269.4</ele>
        <time>2018-11-29T15:53:39.000Z</time>
      </trkpt>
      <trkpt lat="43.99096" lon="5.13094">
        <ele>269</ele>
        <time>2018-11-29T15:53:39.000Z</time>
      </trkpt>
      <trkpt lat="43.99101" lon="5.13097">
        <ele>268.7</ele>
        <time>2018-11-29T15:53:39.000Z</time>
      </trkpt>
      <trkpt lat="43.99101" lon="5.13097">
        <ele>268.7</ele>
        <time>2018-11-29T15:53:39.000Z</time>
      </trkpt>
      <trkpt lat="43.99104" lon="5.13098">
        <ele>268.5</ele>
        <time>2018-11-29T15:54:3.000Z</time>
      </trkpt>
      <trkpt lat="43.99109" lon="5.13099">
        <ele>268.3</ele>
        <time>2018-11-29T15:54:3.000Z</time>
      </trkpt>
      <trkpt lat="43.99113" lon="5.131">
        <ele>268</ele>
        <time>2018-11-29T15:54:3.000Z</time>
      </trkpt>
      <trkpt lat="43.99119" lon="5.13104">
        <ele>267.7</ele>
        <time>2018-11-29T15:54:3.000Z</time>
      </trkpt>
      <trkpt lat="43.99128" lon="5.13107">
        <ele>267.4</ele>
        <time>2018-11-29T15:54:19.000Z</time>
      </trkpt>
      <trkpt lat="43.99132" lon="5.1311">
        <ele>267.2</ele>
        <time>2018-11-29T15:54:19.000Z</time>
      </trkpt>
      <trkpt lat="43.99138" lon="5.13113">
        <ele>267</ele>
        <time>2018-11-29T15:54:19.000Z</time>
      </trkpt>
      <trkpt lat="43.99141" lon="5.13114">
        <ele>267</ele>
        <time>2018-11-29T15:54:35.000Z</time>
      </trkpt>
      <trkpt lat="43.99146" lon="5.13116">
        <ele>266.8</ele>
        <time>2018-11-29T15:54:35.000Z</time>
      </trkpt>
      <trkpt lat="43.99149" lon="5.13115">
        <ele>266.7</ele>
        <time>2018-11-29T15:54:35.000Z</time>
      </trkpt>
      <trkpt lat="43.99153" lon="5.13115">
        <ele>266.6</ele>
        <time>2018-11-29T15:55:15.000Z</time>
      </trkpt>
      <trkpt lat="43.99153" lon="5.13114">
        <ele>266.5</ele>
        <time>2018-11-29T15:55:15.000Z</time>
      </trkpt>
      <trkpt lat="43.99157" lon="5.13113">
        <ele>266.4</ele>
        <time>2018-11-29T15:55:15.000Z</time>
      </trkpt>
      <trkpt lat="43.99162" lon="5.13111">
        <ele>266.2</ele>
        <time>2018-11-29T15:55:15.000Z</time>
      </trkpt>
      <trkpt lat="43.99166" lon="5.13113">
        <ele>266.1</ele>
        <time>2018-11-29T15:56:11.000Z</time>
      </trkpt>
      <trkpt lat="43.99166" lon="5.13116">
        <ele>266.2</ele>
        <time>2018-11-29T15:56:11.000Z</time>
      </trkpt>
      <trkpt lat="43.99167" lon="5.13118">
        <ele>266.2</ele>
        <time>2018-11-29T15:56:11.000Z</time>
      </trkpt>
      <trkpt lat="43.99168" lon="5.13119">
        <ele>266.2</ele>
        <time>2018-11-29T15:56:11.000Z</time>
      </trkpt>
      <trkpt lat="43.9917" lon="5.13123">
        <ele>266.3</ele>
        <time>2018-11-29T15:56:11.000Z</time>
      </trkpt>
      <trkpt lat="43.99175" lon="5.13129">
        <ele>266.3</ele>
        <time>2018-11-29T15:56:35.000Z</time>
      </trkpt>
      <trkpt lat="43.99175" lon="5.13129">
        <ele>266.4</ele>
        <time>2018-11-29T15:56:35.000Z</time>
      </trkpt>
      <trkpt lat="43.99177" lon="5.13133">
        <ele>266.5</ele>
        <time>2018-11-29T15:56:35.000Z</time>
      </trkpt>
      <trkpt lat="43.99177" lon="5.13135">
        <ele>266.5</ele>
        <time>2018-11-29T15:56:35.000Z</time>
      </trkpt>
      <trkpt lat="43.99178" lon="5.13137">
        <ele>266.6</ele>
        <time>2018-11-29T15:58:15.000Z</time>
      </trkpt>
      <trkpt lat="43.99183" lon="5.1314">
        <ele>266.6</ele>
        <time>2018-11-29T15:58:15.000Z</time>
      </trkpt>
      <trkpt lat="43.99183" lon="5.13141">
        <ele>266.6</ele>
        <time>2018-11-29T15:58:15.000Z</time>
      </trkpt>
      <trkpt lat="43.99193" lon="5.13142">
        <ele>266.4</ele>
        <time>2018-11-29T15:58:51.000Z</time>
      </trkpt>
      <trkpt lat="43.99196" lon="5.13143">
        <ele>266.4</ele>
        <time>2018-11-29T15:58:51.000Z</time>
      </trkpt>
      <trkpt lat="43.99198" lon="5.13143">
        <ele>266.3</ele>
        <time>2018-11-29T15:58:51.000Z</time>
      </trkpt>
      <trkpt lat="43.99205" lon="5.13144">
        <ele>266.2</ele>
        <time>2018-11-29T15:58:51.000Z</time>
      </trkpt>
      <trkpt lat="43.99208" lon="5.13147">
        <ele>266.3</ele>
        <time>2018-11-29T15:59:7.000Z</time>
      </trkpt>
      <trkpt lat="43.9921" lon="5.13147">
        <ele>266.3</ele>
        <time>2018-11-29T15:59:7.000Z</time>
      </trkpt>
      <trkpt lat="43.99215" lon="5.13148">
        <ele>266.2</ele>
        <time>2018-11-29T15:59:7.000Z</time>
      </trkpt>
      <trkpt lat="43.99218" lon="5.13149">
        <ele>266.2</ele>
        <time>2018-11-29T15:59:7.000Z</time>
      </trkpt>
      <trkpt lat="43.99228" lon="5.13154">
        <ele>266.3</ele>
        <time>2018-11-29T15:59:31.000Z</time>
      </trkpt>
      <trkpt lat="43.99228" lon="5.13154">
        <ele>266.3</ele>
        <time>2018-11-29T15:59:31.000Z</time>
      </trkpt>
      <trkpt lat="43.9923" lon="5.13156">
        <ele>266.4</ele>
        <time>2018-11-29T15:59:31.000Z</time>
      </trkpt>
      <trkpt lat="43.99231" lon="5.13156">
        <ele>266.4</ele>
        <time>2018-11-29T15:59:31.000Z</time>
      </trkpt>
      <trkpt lat="43.99233" lon="5.1316">
        <ele>266.7</ele>
        <time>2018-11-29T15:59:31.000Z</time>
      </trkpt>
      <trkpt lat="43.99235" lon="5.13162">
        <ele>266.8</ele>
        <time>2018-11-29T15:59:47.000Z</time>
      </trkpt>
      <trkpt lat="43.99237" lon="5.13163">
        <ele>266.9</ele>
        <time>2018-11-29T15:59:47.000Z</time>
      </trkpt>
      <trkpt lat="43.99241" lon="5.13165">
        <ele>266.9</ele>
        <time>2018-11-29T15:59:47.000Z</time>
      </trkpt>
      <trkpt lat="43.99246" lon="5.13167">
        <ele>267</ele>
        <time>2018-11-29T15:59:47.000Z</time>
      </trkpt>
      <trkpt lat="43.9925" lon="5.13169">
        <ele>267.2</ele>
        <time>2018-11-29T16:00:7.000Z</time>
      </trkpt>
      <trkpt lat="43.99252" lon="5.13172">
        <ele>267.5</ele>
        <time>2018-11-29T16:00:7.000Z</time>
      </trkpt>
      <trkpt lat="43.99254" lon="5.13174">
        <ele>267.7</ele>
        <time>2018-11-29T16:00:7.000Z</time>
      </trkpt>
      <trkpt lat="43.99256" lon="5.13178">
        <ele>268.1</ele>
        <time>2018-11-29T16:00:7.000Z</time>
      </trkpt>
      <trkpt lat="43.99257" lon="5.13183">
        <ele>268.8</ele>
        <time>2018-11-29T16:00:7.000Z</time>
      </trkpt>
      <trkpt lat="43.99256" lon="5.13188">
        <ele>269.5</ele>
        <time>2018-11-29T16:00:27.000Z</time>
      </trkpt>
      <trkpt lat="43.99256" lon="5.1319">
        <ele>269.8</ele>
        <time>2018-11-29T16:00:27.000Z</time>
      </trkpt>
      <trkpt lat="43.99259" lon="5.13192">
        <ele>269.9</ele>
        <time>2018-11-29T16:00:27.000Z</time>
      </trkpt>
      <trkpt lat="43.99262" lon="5.13197">
        <ele>270.5</ele>
        <time>2018-11-29T16:00:27.000Z</time>
      </trkpt>
      <trkpt lat="43.99263" lon="5.132">
        <ele>270.9</ele>
        <time>2018-11-29T16:00:47.000Z</time>
      </trkpt>
      <trkpt lat="43.99266" lon="5.13203">
        <ele>271.2</ele>
        <time>2018-11-29T16:00:47.000Z</time>
      </trkpt>
      <trkpt lat="43.99267" lon="5.13205">
        <ele>271.3</ele>
        <time>2018-11-29T16:00:47.000Z</time>
      </trkpt>
      <trkpt lat="43.99267" lon="5.13206">
        <ele>271.5</ele>
        <time>2018-11-29T16:00:47.000Z</time>
      </trkpt>
      <trkpt lat="43.99271" lon="5.1321">
        <ele>271.9</ele>
        <time>2018-11-29T16:00:47.000Z</time>
      </trkpt>
      <trkpt lat="43.99278" lon="5.13213">
        <ele>272</ele>
        <time>2018-11-29T16:01:15.000Z</time>
      </trkpt>
      <trkpt lat="43.99279" lon="5.13214">
        <ele>272.1</ele>
        <time>2018-11-29T16:01:15.000Z</time>
      </trkpt>
      <trkpt lat="43.9928" lon="5.13214">
        <ele>272.1</ele>
        <time>2018-11-29T16:01:15.000Z</time>
      </trkpt>
      <trkpt lat="43.99285" lon="5.13215">
        <ele>272.1</ele>
        <time>2018-11-29T16:01:31.000Z</time>
      </trkpt>
      <trkpt lat="43.9929" lon="5.13219">
        <ele>272.5</ele>
        <time>2018-11-29T16:01:31.000Z</time>
      </trkpt>
      <trkpt lat="43.99293" lon="5.1322">
        <ele>272.6</ele>
        <time>2018-11-29T16:01:31.000Z</time>
      </trkpt>
      <trkpt lat="43.99299" lon="5.13225">
        <ele>273.1</ele>
        <time>2018-11-29T16:01:51.000Z</time>
      </trkpt>
      <trkpt lat="43.99299" lon="5.13226">
        <ele>273.3</ele>
        <time>2018-11-29T16:01:51.000Z</time>
      </trkpt>
      <trkpt lat="43.99303" lon="5.13229">
        <ele>273.6</ele>
        <time>2018-11-29T16:01:51.000Z</time>
      </trkpt>
      <trkpt lat="43.9931" lon="5.13232">
        <ele>273.8</ele>
        <time>2018-11-29T16:01:51.000Z</time>
      </trkpt>
      <trkpt lat="43.99316" lon="5.13236">
        <ele>274.3</ele>
        <time>2018-11-29T16:02:7.000Z</time>
      </trkpt>
      <trkpt lat="43.99322" lon="5.1324">
        <ele>274.7</ele>
        <time>2018-11-29T16:02:7.000Z</time>
      </trkpt>
      <trkpt lat="43.99327" lon="5.13243">
        <ele>275</ele>
        <time>2018-11-29T16:02:7.000Z</time>
      </trkpt>
      <trkpt lat="43.99331" lon="5.13247">
        <ele>275.6</ele>
        <time>2018-11-29T16:02:7.000Z</time>
      </trkpt>
      <trkpt lat="43.99334" lon="5.13249">
        <ele>275.8</ele>
        <time>2018-11-29T16:02:27.000Z</time>
      </trkpt>
      <trkpt lat="43.9934" lon="5.13252">
        <ele>275.8</ele>
        <time>2018-11-29T16:02:27.000Z</time>
      </trkpt>
      <trkpt lat="43.99342" lon="5.13254">
        <ele>275.8</ele>
        <time>2018-11-29T16:02:27.000Z</time>
      </trkpt>
      <trkpt lat="43.99346" lon="5.13258">
        <ele>275.8</ele>
        <time>2018-11-29T16:02:27.000Z</time>
      </trkpt>
      <trkpt lat="43.99352" lon="5.13261">
        <ele>275.8</ele>
        <time>2018-11-29T16:02:51.000Z</time>
      </trkpt>
      <trkpt lat="43.99353" lon="5.13262">
        <ele>275.8</ele>
        <time>2018-11-29T16:02:51.000Z</time>
      </trkpt>
      <trkpt lat="43.99354" lon="5.13264">
        <ele>275.8</ele>
        <time>2018-11-29T16:02:51.000Z</time>
      </trkpt>
      <trkpt lat="43.99357" lon="5.13267">
        <ele>275.8</ele>
        <time>2018-11-29T16:02:51.000Z</time>
      </trkpt>
      <trkpt lat="43.99359" lon="5.13271">
        <ele>276</ele>
        <time>2018-11-29T16:03:7.000Z</time>
      </trkpt>
      <trkpt lat="43.99364" lon="5.13277">
        <ele>276.1</ele>
        <time>2018-11-29T16:03:7.000Z</time>
      </trkpt>
      <trkpt lat="43.99367" lon="5.13284">
        <ele>276.3</ele>
        <time>2018-11-29T16:03:7.000Z</time>
      </trkpt>
      <trkpt lat="43.99372" lon="5.13294">
        <ele>276.7</ele>
        <time>2018-11-29T16:03:23.000Z</time>
      </trkpt>
      <trkpt lat="43.99376" lon="5.13298">
        <ele>276.7</ele>
        <time>2018-11-29T16:03:23.000Z</time>
      </trkpt>
      <trkpt lat="43.99378" lon="5.13304">
        <ele>277</ele>
        <time>2018-11-29T16:03:23.000Z</time>
      </trkpt>
      <trkpt lat="43.99378" lon="5.13306">
        <ele>277.1</ele>
        <time>2018-11-29T16:05:15.000Z</time>
      </trkpt>
      <trkpt lat="43.99378" lon="5.13307">
        <ele>277.1</ele>
        <time>2018-11-29T16:05:15.000Z</time>
      </trkpt>
      <trkpt lat="43.99379" lon="5.13309">
        <ele>277.3</ele>
        <time>2018-11-29T16:05:15.000Z</time>
      </trkpt>
      <trkpt lat="43.9938" lon="5.13316">
        <ele>277.6</ele>
        <time>2018-11-29T16:05:15.000Z</time>
      </trkpt>
      <trkpt lat="43.9938" lon="5.13322">
        <ele>277.9</ele>
        <time>2018-11-29T16:05:15.000Z</time>
      </trkpt>
      <trkpt lat="43.99381" lon="5.13327">
        <ele>278.1</ele>
        <time>2018-11-29T16:05:31.000Z</time>
      </trkpt>
      <trkpt lat="43.99381" lon="5.13331">
        <ele>278.3</ele>
        <time>2018-11-29T16:05:31.000Z</time>
      </trkpt>
      <trkpt lat="43.99383" lon="5.13335">
        <ele>278.4</ele>
        <time>2018-11-29T16:05:31.000Z</time>
      </trkpt>
      <trkpt lat="43.99385" lon="5.13341">
        <ele>278.3</ele>
        <time>2018-11-29T16:05:31.000Z</time>
      </trkpt>
      <trkpt lat="43.99385" lon="5.13347">
        <ele>278.3</ele>
        <time>2018-11-29T16:05:47.000Z</time>
      </trkpt>
      <trkpt lat="43.99386" lon="5.13351">
        <ele>278.3</ele>
        <time>2018-11-29T16:05:47.000Z</time>
      </trkpt>
      <trkpt lat="43.99387" lon="5.13354">
        <ele>278.3</ele>
        <time>2018-11-29T16:05:47.000Z</time>
      </trkpt>
      <trkpt lat="43.99389" lon="5.13359">
        <ele>278.2</ele>
        <time>2018-11-29T16:05:47.000Z</time>
      </trkpt>
      <trkpt lat="43.99391" lon="5.13365">
        <ele>278.2</ele>
        <time>2018-11-29T16:06:3.000Z</time>
      </trkpt>
      <trkpt lat="43.99393" lon="5.13372">
        <ele>278.2</ele>
        <time>2018-11-29T16:06:3.000Z</time>
      </trkpt>
      <trkpt lat="43.99393" lon="5.13377">
        <ele>278.1</ele>
        <time>2018-11-29T16:06:3.000Z</time>
      </trkpt>
      <trkpt lat="43.99394" lon="5.13382">
        <ele>278.1</ele>
        <time>2018-11-29T16:06:19.000Z</time>
      </trkpt>
      <trkpt lat="43.99395" lon="5.13387">
        <ele>278.1</ele>
        <time>2018-11-29T16:06:19.000Z</time>
      </trkpt>
      <trkpt lat="43.99396" lon="5.13391">
        <ele>278.1</ele>
        <time>2018-11-29T16:06:19.000Z</time>
      </trkpt>
      <trkpt lat="43.99398" lon="5.13395">
        <ele>278.1</ele>
        <time>2018-11-29T16:06:19.000Z</time>
      </trkpt>
      <trkpt lat="43.99398" lon="5.13398">
        <ele>278.1</ele>
        <time>2018-11-29T16:06:35.000Z</time>
      </trkpt>
      <trkpt lat="43.994" lon="5.13401">
        <ele>278</ele>
        <time>2018-11-29T16:06:35.000Z</time>
      </trkpt>
      <trkpt lat="43.994" lon="5.13404">
        <ele>278</ele>
        <time>2018-11-29T16:06:35.000Z</time>
      </trkpt>
      <trkpt lat="43.99402" lon="5.13409">
        <ele>278</ele>
        <time>2018-11-29T16:06:35.000Z</time>
      </trkpt>
      <trkpt lat="43.99404" lon="5.13413">
        <ele>278</ele>
        <time>2018-11-29T16:06:51.000Z</time>
      </trkpt>
      <trkpt lat="43.99406" lon="5.13416">
        <ele>278</ele>
        <time>2018-11-29T16:06:51.000Z</time>
      </trkpt>
      <trkpt lat="43.99407" lon="5.1342">
        <ele>277.9</ele>
        <time>2018-11-29T16:06:51.000Z</time>
      </trkpt>
      <trkpt lat="43.99409" lon="5.13425">
        <ele>277.8</ele>
        <time>2018-11-29T16:06:51.000Z</time>
      </trkpt>
      <trkpt lat="43.9941" lon="5.13429">
        <ele>277.7</ele>
        <time>2018-11-29T16:07:7.000Z</time>
      </trkpt>
      <trkpt lat="43.99412" lon="5.13433">
        <ele>277.6</ele>
        <time>2018-11-29T16:07:7.000Z</time>
      </trkpt>
      <trkpt lat="43.99414" lon="5.13438">
        <ele>277.5</ele>
        <time>2018-11-29T16:07:7.000Z</time>
      </trkpt>
      <trkpt lat="43.99415" lon="5.13445">
        <ele>277.3</ele>
        <time>2018-11-29T16:07:7.000Z</time>
      </trkpt>
      <trkpt lat="43.99416" lon="5.13451">
        <ele>277.2</ele>
        <time>2018-11-29T16:07:23.000Z</time>
      </trkpt>
      <trkpt lat="43.99416" lon="5.13456">
        <ele>277.1</ele>
        <time>2018-11-29T16:07:23.000Z</time>
      </trkpt>
      <trkpt lat="43.99418" lon="5.13461">
        <ele>276.9</ele>
        <time>2018-11-29T16:07:23.000Z</time>
      </trkpt>
      <trkpt lat="43.99421" lon="5.13466">
        <ele>276.6</ele>
        <time>2018-11-29T16:07:23.000Z</time>
      </trkpt>
      <trkpt lat="43.99423" lon="5.13472">
        <ele>276.3</ele>
        <time>2018-11-29T16:07:39.000Z</time>
      </trkpt>
      <trkpt lat="43.99425" lon="5.13482">
        <ele>275.9</ele>
        <time>2018-11-29T16:07:39.000Z</time>
      </trkpt>
      <trkpt lat="43.99424" lon="5.13487">
        <ele>275.9</ele>
        <time>2018-11-29T16:07:39.000Z</time>
      </trkpt>
      <trkpt lat="43.99427" lon="5.13491">
        <ele>275.6</ele>
        <time>2018-11-29T16:07:55.000Z</time>
      </trkpt>
      <trkpt lat="43.9943" lon="5.13494">
        <ele>275.4</ele>
        <time>2018-11-29T16:07:55.000Z</time>
      </trkpt>
      <trkpt lat="43.99433" lon="5.13499">
        <ele>275.1</ele>
        <time>2018-11-29T16:07:55.000Z</time>
      </trkpt>
      <trkpt lat="43.99433" lon="5.13505">
        <ele>275</ele>
        <time>2018-11-29T16:07:55.000Z</time>
      </trkpt>
      <trkpt lat="43.99434" lon="5.13509">
        <ele>274.9</ele>
        <time>2018-11-29T16:08:11.000Z</time>
      </trkpt>
      <trkpt lat="43.99437" lon="5.13512">
        <ele>274.6</ele>
        <time>2018-11-29T16:08:11.000Z</time>
      </trkpt>
      <trkpt lat="43.9944" lon="5.13514">
        <ele>274.4</ele>
        <time>2018-11-29T16:08:11.000Z</time>
      </trkpt>
      <trkpt lat="43.99442" lon="5.13518">
        <ele>274.3</ele>
        <time>2018-11-29T16:08:11.000Z</time>
      </trkpt>
      <trkpt lat="43.99445" lon="5.13525">
        <ele>274</ele>
        <time>2018-11-29T16:08:31.000Z</time>
      </trkpt>
      <trkpt lat="43.99447" lon="5.1353">
        <ele>273.8</ele>
        <time>2018-11-29T16:08:31.000Z</time>
      </trkpt>
      <trkpt lat="43.99446" lon="5.13536">
        <ele>273.8</ele>
        <time>2018-11-29T16:08:31.000Z</time>
      </trkpt>
      <trkpt lat="43.99447" lon="5.13536">
        <ele>273.7</ele>
        <time>2018-11-29T16:08:31.000Z</time>
      </trkpt>
      <trkpt lat="43.99452" lon="5.1354">
        <ele>273.4</ele>
        <time>2018-11-29T16:08:31.000Z</time>
      </trkpt>
      <trkpt lat="43.99457" lon="5.13545">
        <ele>273</ele>
        <time>2018-11-29T16:08:47.000Z</time>
      </trkpt>
      <trkpt lat="43.99461" lon="5.13547">
        <ele>272.8</ele>
        <time>2018-11-29T16:08:47.000Z</time>
      </trkpt>
      <trkpt lat="43.99465" lon="5.13552">
        <ele>272.5</ele>
        <time>2018-11-29T16:08:47.000Z</time>
      </trkpt>
      <trkpt lat="43.99468" lon="5.13556">
        <ele>272.2</ele>
        <time>2018-11-29T16:08:47.000Z</time>
      </trkpt>
      <trkpt lat="43.99471" lon="5.1356">
        <ele>272</ele>
        <time>2018-11-29T16:09:3.000Z</time>
      </trkpt>
      <trkpt lat="43.99472" lon="5.13563">
        <ele>271.9</ele>
        <time>2018-11-29T16:09:3.000Z</time>
      </trkpt>
      <trkpt lat="43.99475" lon="5.13566">
        <ele>271.7</ele>
        <time>2018-11-29T16:09:3.000Z</time>
      </trkpt>
      <trkpt lat="43.99478" lon="5.13571">
        <ele>271.5</ele>
        <time>2018-11-29T16:09:3.000Z</time>
      </trkpt>
      <trkpt lat="43.99483" lon="5.13575">
        <ele>271.1</ele>
        <time>2018-11-29T16:09:27.000Z</time>
      </trkpt>
      <trkpt lat="43.99485" lon="5.13577">
        <ele>271</ele>
        <time>2018-11-29T16:09:27.000Z</time>
      </trkpt>
      <trkpt lat="43.99487" lon="5.13579">
        <ele>270.8</ele>
        <time>2018-11-29T16:09:27.000Z</time>
      </trkpt>
      <trkpt lat="43.9949" lon="5.13583">
        <ele>270.6</ele>
        <time>2018-11-29T16:09:27.000Z</time>
      </trkpt>
      <trkpt lat="43.99499" lon="5.13598">
        <ele>270.2</ele>
        <time>2018-11-29T16:09:43.000Z</time>
      </trkpt>
      <trkpt lat="43.99501" lon="5.13602">
        <ele>270.2</ele>
        <time>2018-11-29T16:09:43.000Z</time>
      </trkpt>
      <trkpt lat="43.99502" lon="5.13605">
        <ele>270.1</ele>
        <time>2018-11-29T16:09:43.000Z</time>
      </trkpt>
      <trkpt lat="43.99507" lon="5.13612">
        <ele>270</ele>
        <time>2018-11-29T16:10:7.000Z</time>
      </trkpt>
      <trkpt lat="43.99509" lon="5.13614">
        <ele>269.9</ele>
        <time>2018-11-29T16:10:7.000Z</time>
      </trkpt>
      <trkpt lat="43.9951" lon="5.13616">
        <ele>269.9</ele>
        <time>2018-11-29T16:10:7.000Z</time>
      </trkpt>
      <trkpt lat="43.99511" lon="5.13618">
        <ele>269.9</ele>
        <time>2018-11-29T16:10:7.000Z</time>
      </trkpt>
      <trkpt lat="43.99514" lon="5.13621">
        <ele>269.8</ele>
        <time>2018-11-29T16:10:7.000Z</time>
      </trkpt>
      <trkpt lat="43.99518" lon="5.13626">
        <ele>269.6</ele>
        <time>2018-11-29T16:10:23.000Z</time>
      </trkpt>
      <trkpt lat="43.99521" lon="5.13631">
        <ele>269.5</ele>
        <time>2018-11-29T16:10:23.000Z</time>
      </trkpt>
      <trkpt lat="43.99525" lon="5.13638">
        <ele>269.4</ele>
        <time>2018-11-29T16:10:23.000Z</time>
      </trkpt>
      <trkpt lat="43.99527" lon="5.13643">
        <ele>269.4</ele>
        <time>2018-11-29T16:10:23.000Z</time>
      </trkpt>
      <trkpt lat="43.99531" lon="5.13646">
        <ele>269.3</ele>
        <time>2018-11-29T16:10:39.000Z</time>
      </trkpt>
      <trkpt lat="43.99534" lon="5.1365">
        <ele>269.2</ele>
        <time>2018-11-29T16:10:39.000Z</time>
      </trkpt>
      <trkpt lat="43.99536" lon="5.13653">
        <ele>269.1</ele>
        <time>2018-11-29T16:10:39.000Z</time>
      </trkpt>
      <trkpt lat="43.99539" lon="5.13657">
        <ele>269</ele>
        <time>2018-11-29T16:10:39.000Z</time>
      </trkpt>
      <trkpt lat="43.99541" lon="5.1366">
        <ele>268.9</ele>
        <time>2018-11-29T16:10:55.000Z</time>
      </trkpt>
      <trkpt lat="43.99544" lon="5.13665">
        <ele>268.9</ele>
        <time>2018-11-29T16:10:55.000Z</time>
      </trkpt>
      <trkpt lat="43.99547" lon="5.1367">
        <ele>268.7</ele>
        <time>2018-11-29T16:10:55.000Z</time>
      </trkpt>
      <trkpt lat="43.9955" lon="5.13673">
        <ele>268.6</ele>
        <time>2018-11-29T16:10:55.000Z</time>
      </trkpt>
      <trkpt lat="43.99553" lon="5.13677">
        <ele>268.4</ele>
        <time>2018-11-29T16:11:11.000Z</time>
      </trkpt>
      <trkpt lat="43.99556" lon="5.1368">
        <ele>268.3</ele>
        <time>2018-11-29T16:11:11.000Z</time>
      </trkpt>
      <trkpt lat="43.9956" lon="5.1369">
        <ele>268.1</ele>
        <time>2018-11-29T16:11:11.000Z</time>
      </trkpt>
      <trkpt lat="43.99561" lon="5.13692">
        <ele>268.1</ele>
        <time>2018-11-29T16:11:27.000Z</time>
      </trkpt>
      <trkpt lat="43.99563" lon="5.13695">
        <ele>268</ele>
        <time>2018-11-29T16:11:27.000Z</time>
      </trkpt>
      <trkpt lat="43.99566" lon="5.13699">
        <ele>267.8</ele>
        <time>2018-11-29T16:11:27.000Z</time>
      </trkpt>
      <trkpt lat="43.9957" lon="5.13702">
        <ele>267.6</ele>
        <time>2018-11-29T16:11:27.000Z</time>
      </trkpt>
      <trkpt lat="43.99573" lon="5.13704">
        <ele>267.5</ele>
        <time>2018-11-29T16:11:43.000Z</time>
      </trkpt>
      <trkpt lat="43.99576" lon="5.13709">
        <ele>267.3</ele>
        <time>2018-11-29T16:11:43.000Z</time>
      </trkpt>
      <trkpt lat="43.99579" lon="5.13713">
        <ele>267.2</ele>
        <time>2018-11-29T16:11:43.000Z</time>
      </trkpt>
      <trkpt lat="43.99582" lon="5.13719">
        <ele>267</ele>
        <time>2018-11-29T16:11:59.000Z</time>
      </trkpt>
      <trkpt lat="43.99584" lon="5.13723">
        <ele>267</ele>
        <time>2018-11-29T16:11:59.000Z</time>
      </trkpt>
      <trkpt lat="43.99589" lon="5.13729">
        <ele>266.8</ele>
        <time>2018-11-29T16:11:59.000Z</time>
      </trkpt>
      <trkpt lat="43.99592" lon="5.13734">
        <ele>266.7</ele>
        <time>2018-11-29T16:12:19.000Z</time>
      </trkpt>
      <trkpt lat="43.99594" lon="5.13738">
        <ele>266.6</ele>
        <time>2018-11-29T16:12:19.000Z</time>
      </trkpt>
      <trkpt lat="43.99594" lon="5.13738">
        <ele>266.6</ele>
        <time>2018-11-29T16:12:19.000Z</time>
      </trkpt>
      <trkpt lat="43.99596" lon="5.13741">
        <ele>266.5</ele>
        <time>2018-11-29T16:12:19.000Z</time>
      </trkpt>
      <trkpt lat="43.99598" lon="5.13745">
        <ele>266.5</ele>
        <time>2018-11-29T16:12:19.000Z</time>
      </trkpt>
      <trkpt lat="43.99603" lon="5.13759">
        <ele>265.7</ele>
        <time>2018-11-29T16:13:7.000Z</time>
      </trkpt>
      <trkpt lat="43.99603" lon="5.1376">
        <ele>265.7</ele>
        <time>2018-11-29T16:13:7.000Z</time>
      </trkpt>
      <trkpt lat="43.99603" lon="5.13761">
        <ele>265.6</ele>
        <time>2018-11-29T16:13:7.000Z</time>
      </trkpt>
      <trkpt lat="43.99606" lon="5.13762">
        <ele>265.5</ele>
        <time>2018-11-29T16:13:7.000Z</time>
      </trkpt>
      <trkpt lat="43.99605" lon="5.13766">
        <ele>265.2</ele>
        <time>2018-11-29T16:13:7.000Z</time>
      </trkpt>
      <trkpt lat="43.99608" lon="5.13771">
        <ele>264.8</ele>
        <time>2018-11-29T16:13:27.000Z</time>
      </trkpt>
      <trkpt lat="43.99611" lon="5.13775">
        <ele>264.5</ele>
        <time>2018-11-29T16:13:27.000Z</time>
      </trkpt>
      <trkpt lat="43.99612" lon="5.13779">
        <ele>264.3</ele>
        <time>2018-11-29T16:13:27.000Z</time>
      </trkpt>
      <trkpt lat="43.99613" lon="5.13779">
        <ele>264.2</ele>
        <time>2018-11-29T16:13:27.000Z</time>
      </trkpt>
      <trkpt lat="43.99615" lon="5.13782">
        <ele>264</ele>
        <time>2018-11-29T16:13:27.000Z</time>
      </trkpt>
      <trkpt lat="43.99615" lon="5.13785">
        <ele>263.8</ele>
        <time>2018-11-29T16:13:43.000Z</time>
      </trkpt>
      <trkpt lat="43.99617" lon="5.13789">
        <ele>263.6</ele>
        <time>2018-11-29T16:13:43.000Z</time>
      </trkpt>
      <trkpt lat="43.9962" lon="5.13792">
        <ele>263.3</ele>
        <time>2018-11-29T16:13:43.000Z</time>
      </trkpt>
      <trkpt lat="43.99621" lon="5.13796">
        <ele>263.1</ele>
        <time>2018-11-29T16:13:43.000Z</time>
      </trkpt>
      <trkpt lat="43.99624" lon="5.13806">
        <ele>262.5</ele>
        <time>2018-11-29T16:14:23.000Z</time>
      </trkpt>
      <trkpt lat="43.99624" lon="5.1381">
        <ele>262.3</ele>
        <time>2018-11-29T16:14:23.000Z</time>
      </trkpt>
      <trkpt lat="43.99624" lon="5.13812">
        <ele>262.2</ele>
        <time>2018-11-29T16:14:23.000Z</time>
      </trkpt>
      <trkpt lat="43.99625" lon="5.13812">
        <ele>262.2</ele>
        <time>2018-11-29T16:14:23.000Z</time>
      </trkpt>
      <trkpt lat="43.99626" lon="5.13813">
        <ele>262.1</ele>
        <time>2018-11-29T16:14:23.000Z</time>
      </trkpt>
      <trkpt lat="43.99627" lon="5.13816">
        <ele>261.9</ele>
        <time>2018-11-29T16:15:7.000Z</time>
      </trkpt>
      <trkpt lat="43.99628" lon="5.13818">
        <ele>261.8</ele>
        <time>2018-11-29T16:15:7.000Z</time>
      </trkpt>
      <trkpt lat="43.99629" lon="5.1382">
        <ele>261.7</ele>
        <time>2018-11-29T16:15:7.000Z</time>
      </trkpt>
      <trkpt lat="43.99632" lon="5.13823">
        <ele>261.5</ele>
        <time>2018-11-29T16:15:7.000Z</time>
      </trkpt>
      <trkpt lat="43.99633" lon="5.13828">
        <ele>261.3</ele>
        <time>2018-11-29T16:15:7.000Z</time>
      </trkpt>
      <trkpt lat="43.99636" lon="5.13833">
        <ele>261</ele>
        <time>2018-11-29T16:15:27.000Z</time>
      </trkpt>
      <trkpt lat="43.99641" lon="5.13839">
        <ele>259.9</ele>
        <time>2018-11-29T16:15:27.000Z</time>
      </trkpt>
      <trkpt lat="43.99642" lon="5.13838">
        <ele>259.9</ele>
        <time>2018-11-29T16:15:27.000Z</time>
      </trkpt>
      <trkpt lat="43.9965" lon="5.13843">
        <ele>258.9</ele>
        <time>2018-11-29T16:15:47.000Z</time>
      </trkpt>
      <trkpt lat="43.99654" lon="5.13845">
        <ele>258.5</ele>
        <time>2018-11-29T16:15:47.000Z</time>
      </trkpt>
      <trkpt lat="43.99656" lon="5.13846">
        <ele>258.4</ele>
        <time>2018-11-29T16:15:47.000Z</time>
      </trkpt>
      <trkpt lat="43.99658" lon="5.13848">
        <ele>257.9</ele>
        <time>2018-11-29T16:15:47.000Z</time>
      </trkpt>
      <trkpt lat="43.99661" lon="5.1385">
        <ele>257.5</ele>
        <time>2018-11-29T16:16:7.000Z</time>
      </trkpt>
      <trkpt lat="43.99665" lon="5.13852">
        <ele>257.2</ele>
        <time>2018-11-29T16:16:7.000Z</time>
      </trkpt>
      <trkpt lat="43.99667" lon="5.13853">
        <ele>257</ele>
        <time>2018-11-29T16:16:7.000Z</time>
      </trkpt>
      <trkpt lat="43.99669" lon="5.13855">
        <ele>256.6</ele>
        <time>2018-11-29T16:16:7.000Z</time>
      </trkpt>
      <trkpt lat="43.99669" lon="5.13858">
        <ele>255.9</ele>
        <time>2018-11-29T16:16:7.000Z</time>
      </trkpt>
      <trkpt lat="43.99672" lon="5.13861">
        <ele>255.3</ele>
        <time>2018-11-29T16:16:27.000Z</time>
      </trkpt>
      <trkpt lat="43.99674" lon="5.13862">
        <ele>254.8</ele>
        <time>2018-11-29T16:16:28.000Z</time>
      </trkpt>
      <trkpt lat="43.99676" lon="5.13866">
        <ele>254</ele>
        <time>2018-11-29T16:16:28.000Z</time>
      </trkpt>
      <trkpt lat="43.99679" lon="5.13868">
        <ele>253.5</ele>
        <time>2018-11-29T16:16:28.000Z</time>
      </trkpt>
      <trkpt lat="43.99681" lon="5.1387">
        <ele>253</ele>
        <time>2018-11-29T16:16:28.000Z</time>
      </trkpt>
      <trkpt lat="43.99686" lon="5.13876">
        <ele>251.7</ele>
        <time>2018-11-29T16:16:47.000Z</time>
      </trkpt>
      <trkpt lat="43.9969" lon="5.13878">
        <ele>251.2</ele>
        <time>2018-11-29T16:16:47.000Z</time>
      </trkpt>
      <trkpt lat="43.99692" lon="5.1388">
        <ele>250.7</ele>
        <time>2018-11-29T16:16:47.000Z</time>
      </trkpt>
      <trkpt lat="43.99694" lon="5.13883">
        <ele>250</ele>
        <time>2018-11-29T16:16:47.000Z</time>
      </trkpt>
      <trkpt lat="43.99699" lon="5.13887">
        <ele>249</ele>
        <time>2018-11-29T16:17:7.000Z</time>
      </trkpt>
      <trkpt lat="43.99701" lon="5.13889">
        <ele>248.6</ele>
        <time>2018-11-29T16:17:7.000Z</time>
      </trkpt>
      <trkpt lat="43.99703" lon="5.13891">
        <ele>248.3</ele>
        <time>2018-11-29T16:17:7.000Z</time>
      </trkpt>
      <trkpt lat="43.99706" lon="5.13892">
        <ele>247.9</ele>
        <time>2018-11-29T16:17:7.000Z</time>
      </trkpt>
      <trkpt lat="43.99708" lon="5.13894">
        <ele>247.5</ele>
        <time>2018-11-29T16:17:23.000Z</time>
      </trkpt>
      <trkpt lat="43.9971" lon="5.13894">
        <ele>247.4</ele>
        <time>2018-11-29T16:17:23.000Z</time>
      </trkpt>
      <trkpt lat="43.99714" lon="5.13897">
        <ele>246.9</ele>
        <time>2018-11-29T16:17:23.000Z</time>
      </trkpt>
      <trkpt lat="43.99717" lon="5.13898">
        <ele>246.6</ele>
        <time>2018-11-29T16:17:23.000Z</time>
      </trkpt>
      <trkpt lat="43.99722" lon="5.13901">
        <ele>246.1</ele>
        <time>2018-11-29T16:17:43.000Z</time>
      </trkpt>
      <trkpt lat="43.99724" lon="5.13902">
        <ele>245.8</ele>
        <time>2018-11-29T16:17:43.000Z</time>
      </trkpt>
      <trkpt lat="43.99727" lon="5.13903">
        <ele>245.5</ele>
        <time>2018-11-29T16:17:43.000Z</time>
      </trkpt>
      <trkpt lat="43.9973" lon="5.13905">
        <ele>245.2</ele>
        <time>2018-11-29T16:17:43.000Z</time>
      </trkpt>
      <trkpt lat="43.99732" lon="5.13906">
        <ele>244.9</ele>
        <time>2018-11-29T16:17:43.000Z</time>
      </trkpt>
      <trkpt lat="43.99736" lon="5.13909">
        <ele>244.5</ele>
        <time>2018-11-29T16:18:3.000Z</time>
      </trkpt>
      <trkpt lat="43.9974" lon="5.13909">
        <ele>244.3</ele>
        <time>2018-11-29T16:18:3.000Z</time>
      </trkpt>
      <trkpt lat="43.99744" lon="5.1391">
        <ele>244.1</ele>
        <time>2018-11-29T16:18:3.000Z</time>
      </trkpt>
      <trkpt lat="43.99748" lon="5.13911">
        <ele>243.9</ele>
        <time>2018-11-29T16:18:19.000Z</time>
      </trkpt>
      <trkpt lat="43.99752" lon="5.13914">
        <ele>243.2</ele>
        <time>2018-11-29T16:18:19.000Z</time>
      </trkpt>
      <trkpt lat="43.99754" lon="5.13916">
        <ele>242.8</ele>
        <time>2018-11-29T16:18:19.000Z</time>
      </trkpt>
      <trkpt lat="43.99757" lon="5.13917">
        <ele>242.4</ele>
        <time>2018-11-29T16:18:19.000Z</time>
      </trkpt>
      <trkpt lat="43.99759" lon="5.13918">
        <ele>241.9</ele>
        <time>2018-11-29T16:18:43.000Z</time>
      </trkpt>
      <trkpt lat="43.99762" lon="5.13919">
        <ele>241.3</ele>
        <time>2018-11-29T16:18:43.000Z</time>
      </trkpt>
      <trkpt lat="43.99764" lon="5.13921">
        <ele>240.5</ele>
        <time>2018-11-29T16:18:43.000Z</time>
      </trkpt>
      <trkpt lat="43.99765" lon="5.13921">
        <ele>240.3</ele>
        <time>2018-11-29T16:18:43.000Z</time>
      </trkpt>
      <trkpt lat="43.99769" lon="5.13923">
        <ele>239.3</ele>
        <time>2018-11-29T16:18:43.000Z</time>
      </trkpt>
      <trkpt lat="43.9977" lon="5.13924">
        <ele>239.1</ele>
        <time>2018-11-29T16:19:55.000Z</time>
      </trkpt>
      <trkpt lat="43.99772" lon="5.13924">
        <ele>238.7</ele>
        <time>2018-11-29T16:19:55.000Z</time>
      </trkpt>
      <trkpt lat="43.99785" lon="5.13928">
        <ele>236.4</ele>
        <time>2018-11-29T16:19:55.000Z</time>
      </trkpt>
      <trkpt lat="43.99793" lon="5.13929">
        <ele>235.8</ele>
        <time>2018-11-29T16:19:55.000Z</time>
      </trkpt>
      <trkpt lat="43.99809" lon="5.13928">
        <ele>234.8</ele>
        <time>2018-11-29T16:20:19.000Z</time>
      </trkpt>
      <trkpt lat="43.99812" lon="5.13929">
        <ele>234.5</ele>
        <time>2018-11-29T16:20:19.000Z</time>
      </trkpt>
      <trkpt lat="43.99816" lon="5.13929">
        <ele>234.1</ele>
        <time>2018-11-29T16:20:19.000Z</time>
      </trkpt>
      <trkpt lat="43.99823" lon="5.1393">
        <ele>233.3</ele>
        <time>2018-11-29T16:20:19.000Z</time>
      </trkpt>
      <trkpt lat="43.9984" lon="5.13933">
        <ele>233.1</ele>
        <time>2018-11-29T16:20:35.000Z</time>
      </trkpt>
      <trkpt lat="43.99846" lon="5.13934">
        <ele>233.9</ele>
        <time>2018-11-29T16:20:35.000Z</time>
      </trkpt>
      <trkpt lat="43.99846" lon="5.13933">
        <ele>234.2</ele>
        <time>2018-11-29T16:20:35.000Z</time>
      </trkpt>
      <trkpt lat="43.99851" lon="5.13934">
        <ele>234.8</ele>
        <time>2018-11-29T16:21:43.000Z</time>
      </trkpt>
      <trkpt lat="43.99852" lon="5.13935">
        <ele>234.7</ele>
        <time>2018-11-29T16:21:43.000Z</time>
      </trkpt>
      <trkpt lat="43.99855" lon="5.13935">
        <ele>235.5</ele>
        <time>2018-11-29T16:21:43.000Z</time>
      </trkpt>
      <trkpt lat="43.99856" lon="5.13934">
        <ele>235.9</ele>
        <time>2018-11-29T16:21:43.000Z</time>
      </trkpt>
      <trkpt lat="43.99857" lon="5.13933">
        <ele>236.1</ele>
        <time>2018-11-29T16:22:3.000Z</time>
      </trkpt>
      <trkpt lat="43.9986" lon="5.13929">
        <ele>237.4</ele>
        <time>2018-11-29T16:22:3.000Z</time>
      </trkpt>
      <trkpt lat="43.99864" lon="5.13925">
        <ele>238.8</ele>
        <time>2018-11-29T16:22:3.000Z</time>
      </trkpt>
      <trkpt lat="43.99866" lon="5.13922">
        <ele>239.8</ele>
        <time>2018-11-29T16:22:3.000Z</time>
      </trkpt>
      <trkpt lat="43.99869" lon="5.13918">
        <ele>241</ele>
        <time>2018-11-29T16:22:23.000Z</time>
      </trkpt>
      <trkpt lat="43.99871" lon="5.13914">
        <ele>241.7</ele>
        <time>2018-11-29T16:22:23.000Z</time>
      </trkpt>
      <trkpt lat="43.99873" lon="5.13912">
        <ele>242.1</ele>
        <time>2018-11-29T16:22:23.000Z</time>
      </trkpt>
      <trkpt lat="43.99875" lon="5.13911">
        <ele>242.5</ele>
        <time>2018-11-29T16:22:23.000Z</time>
      </trkpt>
      <trkpt lat="43.99878" lon="5.1391">
        <ele>243</ele>
        <time>2018-11-29T16:22:23.000Z</time>
      </trkpt>
      <trkpt lat="43.99879" lon="5.13908">
        <ele>243.3</ele>
        <time>2018-11-29T16:22:51.000Z</time>
      </trkpt>
      <trkpt lat="43.99879" lon="5.13907">
        <ele>243.4</ele>
        <time>2018-11-29T16:22:51.000Z</time>
      </trkpt>
      <trkpt lat="43.99882" lon="5.13902">
        <ele>244.1</ele>
        <time>2018-11-29T16:22:51.000Z</time>
      </trkpt>
      <trkpt lat="43.99885" lon="5.13898">
        <ele>244.7</ele>
        <time>2018-11-29T16:22:51.000Z</time>
      </trkpt>
      <trkpt lat="43.99885" lon="5.13898">
        <ele>244.8</ele>
        <time>2018-11-29T16:23:7.000Z</time>
      </trkpt>
      <trkpt lat="43.99887" lon="5.13893">
        <ele>245.4</ele>
        <time>2018-11-29T16:23:7.000Z</time>
      </trkpt>
      <trkpt lat="43.99889" lon="5.13889">
        <ele>245.9</ele>
        <time>2018-11-29T16:23:7.000Z</time>
      </trkpt>
      <trkpt lat="43.99892" lon="5.13884">
        <ele>246.4</ele>
        <time>2018-11-29T16:23:7.000Z</time>
      </trkpt>
      <trkpt lat="43.99895" lon="5.13879">
        <ele>246.9</ele>
        <time>2018-11-29T16:23:23.000Z</time>
      </trkpt>
      <trkpt lat="43.99895" lon="5.13875">
        <ele>247.2</ele>
        <time>2018-11-29T16:23:23.000Z</time>
      </trkpt>
      <trkpt lat="43.99896" lon="5.13871">
        <ele>247.6</ele>
        <time>2018-11-29T16:23:23.000Z</time>
      </trkpt>
      <trkpt lat="43.99901" lon="5.13866">
        <ele>248.1</ele>
        <time>2018-11-29T16:23:39.000Z</time>
      </trkpt>
      <trkpt lat="43.99903" lon="5.1386">
        <ele>248.5</ele>
        <time>2018-11-29T16:23:39.000Z</time>
      </trkpt>
      <trkpt lat="43.99905" lon="5.13855">
        <ele>248.8</ele>
        <time>2018-11-29T16:23:39.000Z</time>
      </trkpt>
      <trkpt lat="43.99907" lon="5.13852">
        <ele>249.1</ele>
        <time>2018-11-29T16:23:39.000Z</time>
      </trkpt>
      <trkpt lat="43.9991" lon="5.13852">
        <ele>249.2</ele>
        <time>2018-11-29T16:23:55.000Z</time>
      </trkpt>
      <trkpt lat="43.99915" lon="5.13851">
        <ele>249.5</ele>
        <time>2018-11-29T16:23:55.000Z</time>
      </trkpt>
      <trkpt lat="43.99917" lon="5.1385">
        <ele>249.6</ele>
        <time>2018-11-29T16:23:55.000Z</time>
      </trkpt>
      <trkpt lat="43.9992" lon="5.13847">
        <ele>249.7</ele>
        <time>2018-11-29T16:23:55.000Z</time>
      </trkpt>
      <trkpt lat="43.99922" lon="5.13847">
        <ele>249.7</ele>
        <time>2018-11-29T16:24:11.000Z</time>
      </trkpt>
      <trkpt lat="43.99925" lon="5.13845">
        <ele>249.8</ele>
        <time>2018-11-29T16:24:11.000Z</time>
      </trkpt>
      <trkpt lat="43.99926" lon="5.13845">
        <ele>249.8</ele>
        <time>2018-11-29T16:24:11.000Z</time>
      </trkpt>
      <trkpt lat="43.99931" lon="5.13843">
        <ele>249.8</ele>
        <time>2018-11-29T16:24:11.000Z</time>
      </trkpt>
      <trkpt lat="43.99936" lon="5.13839">
        <ele>249.9</ele>
        <time>2018-11-29T16:24:27.000Z</time>
      </trkpt>
      <trkpt lat="43.99941" lon="5.13837">
        <ele>250</ele>
        <time>2018-11-29T16:24:27.000Z</time>
      </trkpt>
      <trkpt lat="43.99942" lon="5.13835">
        <ele>250</ele>
        <time>2018-11-29T16:24:27.000Z</time>
      </trkpt>
      <trkpt lat="43.99946" lon="5.13827">
        <ele>249.9</ele>
        <time>2018-11-29T16:24:43.000Z</time>
      </trkpt>
      <trkpt lat="43.99948" lon="5.13825">
        <ele>249.9</ele>
        <time>2018-11-29T16:24:43.000Z</time>
      </trkpt>
      <trkpt lat="43.99951" lon="5.1382">
        <ele>249.9</ele>
        <time>2018-11-29T16:24:43.000Z</time>
      </trkpt>
      <trkpt lat="43.99953" lon="5.13816">
        <ele>249.8</ele>
        <time>2018-11-29T16:24:43.000Z</time>
      </trkpt>
      <trkpt lat="43.99955" lon="5.13812">
        <ele>249.8</ele>
        <time>2018-11-29T16:24:59.000Z</time>
      </trkpt>
      <trkpt lat="43.99957" lon="5.13808">
        <ele>249.7</ele>
        <time>2018-11-29T16:24:59.000Z</time>
      </trkpt>
      <trkpt lat="43.99961" lon="5.13803">
        <ele>249.6</ele>
        <time>2018-11-29T16:24:59.000Z</time>
      </trkpt>
      <trkpt lat="43.99964" lon="5.13796">
        <ele>249.5</ele>
        <time>2018-11-29T16:24:59.000Z</time>
      </trkpt>
      <trkpt lat="43.99968" lon="5.13793">
        <ele>249.4</ele>
        <time>2018-11-29T16:30:19.000Z</time>
      </trkpt>
      <trkpt lat="43.9997" lon="5.13791">
        <ele>249.3</ele>
        <time>2018-11-29T16:30:19.000Z</time>
      </trkpt>
      <trkpt lat="43.99971" lon="5.13788">
        <ele>249.3</ele>
        <time>2018-11-29T16:30:19.000Z</time>
      </trkpt>
      <trkpt lat="43.99974" lon="5.13784">
        <ele>249.2</ele>
        <time>2018-11-29T16:30:19.000Z</time>
      </trkpt>
      <trkpt lat="43.99977" lon="5.13782">
        <ele>249.1</ele>
        <time>2018-11-29T16:30:35.000Z</time>
      </trkpt>
      <trkpt lat="43.99977" lon="5.13777">
        <ele>249</ele>
        <time>2018-11-29T16:30:35.000Z</time>
      </trkpt>
      <trkpt lat="43.9998" lon="5.13774">
        <ele>248.9</ele>
        <time>2018-11-29T16:30:35.000Z</time>
      </trkpt>
      <trkpt lat="43.99984" lon="5.1377">
        <ele>248.8</ele>
        <time>2018-11-29T16:30:35.000Z</time>
      </trkpt>
      <trkpt lat="43.99987" lon="5.13768">
        <ele>248.7</ele>
        <time>2018-11-29T16:30:55.000Z</time>
      </trkpt>
      <trkpt lat="43.99989" lon="5.13763">
        <ele>248.5</ele>
        <time>2018-11-29T16:30:55.000Z</time>
      </trkpt>
      <trkpt lat="43.99992" lon="5.13759">
        <ele>248.4</ele>
        <time>2018-11-29T16:30:55.000Z</time>
      </trkpt>
      <trkpt lat="43.99994" lon="5.13759">
        <ele>248.3</ele>
        <time>2018-11-29T16:30:55.000Z</time>
      </trkpt>
      <trkpt lat="43.99998" lon="5.13755">
        <ele>248.2</ele>
        <time>2018-11-29T16:30:55.000Z</time>
      </trkpt>
      <trkpt lat="44.00001" lon="5.1375">
        <ele>247.9</ele>
        <time>2018-11-29T16:31:11.000Z</time>
      </trkpt>
      <trkpt lat="44.00004" lon="5.13747">
        <ele>247.8</ele>
        <time>2018-11-29T16:31:11.000Z</time>
      </trkpt>
      <trkpt lat="44.00011" lon="5.1374">
        <ele>247.5</ele>
        <time>2018-11-29T16:31:11.000Z</time>
      </trkpt>
      <trkpt lat="44.00013" lon="5.13736">
        <ele>247.4</ele>
        <time>2018-11-29T16:31:27.000Z</time>
      </trkpt>
      <trkpt lat="44.00016" lon="5.13732">
        <ele>247.2</ele>
        <time>2018-11-29T16:31:27.000Z</time>
      </trkpt>
      <trkpt lat="44.00018" lon="5.13728">
        <ele>247.1</ele>
        <time>2018-11-29T16:31:27.000Z</time>
      </trkpt>
      <trkpt lat="44.00025" lon="5.13718">
        <ele>246.8</ele>
        <time>2018-11-29T16:31:43.000Z</time>
      </trkpt>
      <trkpt lat="44.00027" lon="5.13714">
        <ele>246.7</ele>
        <time>2018-11-29T16:31:43.000Z</time>
      </trkpt>
      <trkpt lat="44.0003" lon="5.1371">
        <ele>246.6</ele>
        <time>2018-11-29T16:31:43.000Z</time>
      </trkpt>
      <trkpt lat="44.00033" lon="5.13707">
        <ele>246.4</ele>
        <time>2018-11-29T16:31:43.000Z</time>
      </trkpt>
      <trkpt lat="44.00037" lon="5.13705">
        <ele>246.2</ele>
        <time>2018-11-29T16:31:59.000Z</time>
      </trkpt>
      <trkpt lat="44.00043" lon="5.13698">
        <ele>245.9</ele>
        <time>2018-11-29T16:32:0.000Z</time>
      </trkpt>
      <trkpt lat="44.00046" lon="5.13694">
        <ele>245.8</ele>
        <time>2018-11-29T16:32:0.000Z</time>
      </trkpt>
      <trkpt lat="44.00049" lon="5.13691">
        <ele>245.6</ele>
        <time>2018-11-29T16:32:15.000Z</time>
      </trkpt>
      <trkpt lat="44.00052" lon="5.13689">
        <ele>245.5</ele>
        <time>2018-11-29T16:32:15.000Z</time>
      </trkpt>
      <trkpt lat="44.00056" lon="5.13686">
        <ele>245.3</ele>
        <time>2018-11-29T16:32:15.000Z</time>
      </trkpt>
      <trkpt lat="44.00059" lon="5.13682">
        <ele>245.2</ele>
        <time>2018-11-29T16:32:15.000Z</time>
      </trkpt>
      <trkpt lat="44.00063" lon="5.13677">
        <ele>245</ele>
        <time>2018-11-29T16:32:31.000Z</time>
      </trkpt>
      <trkpt lat="44.00065" lon="5.13674">
        <ele>244.9</ele>
        <time>2018-11-29T16:32:31.000Z</time>
      </trkpt>
      <trkpt lat="44.00067" lon="5.13669">
        <ele>244.8</ele>
        <time>2018-11-29T16:32:31.000Z</time>
      </trkpt>
      <trkpt lat="44.00069" lon="5.13664">
        <ele>244.7</ele>
        <time>2018-11-29T16:32:31.000Z</time>
      </trkpt>
      <trkpt lat="44.00072" lon="5.1366">
        <ele>244.5</ele>
        <time>2018-11-29T16:32:47.000Z</time>
      </trkpt>
      <trkpt lat="44.00074" lon="5.13656">
        <ele>244.3</ele>
        <time>2018-11-29T16:32:47.000Z</time>
      </trkpt>
      <trkpt lat="44.00076" lon="5.13652">
        <ele>244.2</ele>
        <time>2018-11-29T16:32:47.000Z</time>
      </trkpt>
      <trkpt lat="44.00079" lon="5.13648">
        <ele>244</ele>
        <time>2018-11-29T16:32:47.000Z</time>
      </trkpt>
      <trkpt lat="44.00082" lon="5.13645">
        <ele>243.8</ele>
        <time>2018-11-29T16:33:3.000Z</time>
      </trkpt>
      <trkpt lat="44.00085" lon="5.1364">
        <ele>243.7</ele>
        <time>2018-11-29T16:33:3.000Z</time>
      </trkpt>
      <trkpt lat="44.00087" lon="5.13635">
        <ele>243.6</ele>
        <time>2018-11-29T16:33:3.000Z</time>
      </trkpt>
      <trkpt lat="44.00089" lon="5.1363">
        <ele>243.5</ele>
        <time>2018-11-29T16:33:3.000Z</time>
      </trkpt>
      <trkpt lat="44.0009" lon="5.13625">
        <ele>243.4</ele>
        <time>2018-11-29T16:33:19.000Z</time>
      </trkpt>
      <trkpt lat="44.00092" lon="5.13619">
        <ele>243.3</ele>
        <time>2018-11-29T16:33:19.000Z</time>
      </trkpt>
      <trkpt lat="44.00095" lon="5.13614">
        <ele>243.2</ele>
        <time>2018-11-29T16:33:19.000Z</time>
      </trkpt>
      <trkpt lat="44.00098" lon="5.1361">
        <ele>243.1</ele>
        <time>2018-11-29T16:33:19.000Z</time>
      </trkpt>
      <trkpt lat="44.001" lon="5.13606">
        <ele>243.1</ele>
        <time>2018-11-29T16:33:35.000Z</time>
      </trkpt>
      <trkpt lat="44.00102" lon="5.136">
        <ele>243</ele>
        <time>2018-11-29T16:33:35.000Z</time>
      </trkpt>
      <trkpt lat="44.00104" lon="5.13594">
        <ele>242.9</ele>
        <time>2018-11-29T16:33:35.000Z</time>
      </trkpt>
      <trkpt lat="44.00105" lon="5.1359">
        <ele>242.8</ele>
        <time>2018-11-29T16:33:35.000Z</time>
      </trkpt>
      <trkpt lat="44.00107" lon="5.13585">
        <ele>242.7</ele>
        <time>2018-11-29T16:33:51.000Z</time>
      </trkpt>
      <trkpt lat="44.00109" lon="5.13574">
        <ele>242.5</ele>
        <time>2018-11-29T16:33:51.000Z</time>
      </trkpt>
      <trkpt lat="44.0011" lon="5.13567">
        <ele>242.3</ele>
        <time>2018-11-29T16:33:51.000Z</time>
      </trkpt>
      <trkpt lat="44.00112" lon="5.13563">
        <ele>242.2</ele>
        <time>2018-11-29T16:34:7.000Z</time>
      </trkpt>
      <trkpt lat="44.00114" lon="5.13558">
        <ele>242.1</ele>
        <time>2018-11-29T16:34:7.000Z</time>
      </trkpt>
      <trkpt lat="44.00116" lon="5.13554">
        <ele>242</ele>
        <time>2018-11-29T16:34:7.000Z</time>
      </trkpt>
      <trkpt lat="44.00119" lon="5.13549">
        <ele>241.8</ele>
        <time>2018-11-29T16:34:7.000Z</time>
      </trkpt>
      <trkpt lat="44.00124" lon="5.13537">
        <ele>241.4</ele>
        <time>2018-11-29T16:34:23.000Z</time>
      </trkpt>
      <trkpt lat="44.00125" lon="5.13532">
        <ele>241.3</ele>
        <time>2018-11-29T16:34:23.000Z</time>
      </trkpt>
      <trkpt lat="44.0013" lon="5.13522">
        <ele>240.9</ele>
        <time>2018-11-29T16:34:39.000Z</time>
      </trkpt>
      <trkpt lat="44.00132" lon="5.13518">
        <ele>240.7</ele>
        <time>2018-11-29T16:34:39.000Z</time>
      </trkpt>
      <trkpt lat="44.00133" lon="5.13513">
        <ele>240.6</ele>
        <time>2018-11-29T16:34:39.000Z</time>
      </trkpt>
      <trkpt lat="44.00135" lon="5.13506">
        <ele>240.3</ele>
        <time>2018-11-29T16:34:39.000Z</time>
      </trkpt>
      <trkpt lat="44.00138" lon="5.135">
        <ele>240</ele>
        <time>2018-11-29T16:34:55.000Z</time>
      </trkpt>
      <trkpt lat="44.00139" lon="5.13495">
        <ele>240</ele>
        <time>2018-11-29T16:34:55.000Z</time>
      </trkpt>
      <trkpt lat="44.0014" lon="5.1349">
        <ele>239.9</ele>
        <time>2018-11-29T16:34:55.000Z</time>
      </trkpt>
      <trkpt lat="44.00142" lon="5.13484">
        <ele>239.8</ele>
        <time>2018-11-29T16:34:55.000Z</time>
      </trkpt>
      <trkpt lat="44.00144" lon="5.13478">
        <ele>239.7</ele>
        <time>2018-11-29T16:35:11.000Z</time>
      </trkpt>
      <trkpt lat="44.00144" lon="5.13471">
        <ele>239.7</ele>
        <time>2018-11-29T16:35:11.000Z</time>
      </trkpt>
      <trkpt lat="44.00145" lon="5.13465">
        <ele>239.7</ele>
        <time>2018-11-29T16:35:11.000Z</time>
      </trkpt>
      <trkpt lat="44.00146" lon="5.13457">
        <ele>239.6</ele>
        <time>2018-11-29T16:35:11.000Z</time>
      </trkpt>
      <trkpt lat="44.00147" lon="5.13452">
        <ele>239.6</ele>
        <time>2018-11-29T16:35:27.000Z</time>
      </trkpt>
      <trkpt lat="44.00147" lon="5.13447">
        <ele>239.6</ele>
        <time>2018-11-29T16:35:27.000Z</time>
      </trkpt>
      <trkpt lat="44.00148" lon="5.1344">
        <ele>239.5</ele>
        <time>2018-11-29T16:35:27.000Z</time>
      </trkpt>
      <trkpt lat="44.00149" lon="5.13436">
        <ele>239.5</ele>
        <time>2018-11-29T16:35:27.000Z</time>
      </trkpt>
      <trkpt lat="44.0015" lon="5.13431">
        <ele>239.4</ele>
        <time>2018-11-29T16:35:43.000Z</time>
      </trkpt>
      <trkpt lat="44.00149" lon="5.13425">
        <ele>239.4</ele>
        <time>2018-11-29T16:35:43.000Z</time>
      </trkpt>
      <trkpt lat="44.0015" lon="5.13419">
        <ele>239.4</ele>
        <time>2018-11-29T16:35:43.000Z</time>
      </trkpt>
      <trkpt lat="44.0015" lon="5.13413">
        <ele>239.3</ele>
        <time>2018-11-29T16:35:43.000Z</time>
      </trkpt>
      <trkpt lat="44.00152" lon="5.13408">
        <ele>239</ele>
        <time>2018-11-29T16:35:59.000Z</time>
      </trkpt>
      <trkpt lat="44.00152" lon="5.13402">
        <ele>238.9</ele>
        <time>2018-11-29T16:35:59.000Z</time>
      </trkpt>
      <trkpt lat="44.00153" lon="5.13398">
        <ele>238.7</ele>
        <time>2018-11-29T16:35:59.000Z</time>
      </trkpt>
      <trkpt lat="44.00155" lon="5.13392">
        <ele>238.4</ele>
        <time>2018-11-29T16:35:59.000Z</time>
      </trkpt>
      <trkpt lat="44.00157" lon="5.13379">
        <ele>237.9</ele>
        <time>2018-11-29T16:36:15.000Z</time>
      </trkpt>
      <trkpt lat="44.00158" lon="5.13372">
        <ele>237.6</ele>
        <time>2018-11-29T16:36:15.000Z</time>
      </trkpt>
      <trkpt lat="44.0016" lon="5.13361">
        <ele>237.2</ele>
        <time>2018-11-29T16:36:31.000Z</time>
      </trkpt>
      <trkpt lat="44.0016" lon="5.13348">
        <ele>236.7</ele>
        <time>2018-11-29T16:36:31.000Z</time>
      </trkpt>
      <trkpt lat="44.00162" lon="5.13342">
        <ele>236.5</ele>
        <time>2018-11-29T16:36:31.000Z</time>
      </trkpt>
      <trkpt lat="44.00163" lon="5.13337">
        <ele>236.2</ele>
        <time>2018-11-29T16:36:47.000Z</time>
      </trkpt>
      <trkpt lat="44.00162" lon="5.1333">
        <ele>236</ele>
        <time>2018-11-29T16:36:47.000Z</time>
      </trkpt>
      <trkpt lat="44.00166" lon="5.13323">
        <ele>235.7</ele>
        <time>2018-11-29T16:36:47.000Z</time>
      </trkpt>
      <trkpt lat="44.00169" lon="5.13317">
        <ele>235.3</ele>
        <time>2018-11-29T16:36:47.000Z</time>
      </trkpt>
      <trkpt lat="44.0017" lon="5.13312">
        <ele>235.1</ele>
        <time>2018-11-29T16:37:3.000Z</time>
      </trkpt>
      <trkpt lat="44.00172" lon="5.13308">
        <ele>234.9</ele>
        <time>2018-11-29T16:37:3.000Z</time>
      </trkpt>
      <trkpt lat="44.00175" lon="5.13304">
        <ele>234.6</ele>
        <time>2018-11-29T16:37:3.000Z</time>
      </trkpt>
      <trkpt lat="44.00178" lon="5.13301">
        <ele>234.4</ele>
        <time>2018-11-29T16:37:3.000Z</time>
      </trkpt>
      <trkpt lat="44.00182" lon="5.13297">
        <ele>234.1</ele>
        <time>2018-11-29T16:37:19.000Z</time>
      </trkpt>
      <trkpt lat="44.00187" lon="5.13291">
        <ele>233.6</ele>
        <time>2018-11-29T16:37:19.000Z</time>
      </trkpt>
      <trkpt lat="44.00189" lon="5.13285">
        <ele>233.3</ele>
        <time>2018-11-29T16:37:19.000Z</time>
      </trkpt>
      <trkpt lat="44.00193" lon="5.13282">
        <ele>232.9</ele>
        <time>2018-11-29T16:37:35.000Z</time>
      </trkpt>
      <trkpt lat="44.00195" lon="5.13277">
        <ele>232.6</ele>
        <time>2018-11-29T16:37:35.000Z</time>
      </trkpt>
      <trkpt lat="44.00199" lon="5.13273">
        <ele>232.2</ele>
        <time>2018-11-29T16:37:35.000Z</time>
      </trkpt>
      <trkpt lat="44.002" lon="5.13269">
        <ele>232</ele>
        <time>2018-11-29T16:37:35.000Z</time>
      </trkpt>
      <trkpt lat="44.002" lon="5.13263">
        <ele>231.6</ele>
        <time>2018-11-29T16:37:51.000Z</time>
      </trkpt>
      <trkpt lat="44.00202" lon="5.13256">
        <ele>231.1</ele>
        <time>2018-11-29T16:37:51.000Z</time>
      </trkpt>
      <trkpt lat="44.00203" lon="5.13248">
        <ele>230.8</ele>
        <time>2018-11-29T16:37:51.000Z</time>
      </trkpt>
      <trkpt lat="44.00204" lon="5.13242">
        <ele>230.6</ele>
        <time>2018-11-29T16:37:51.000Z</time>
      </trkpt>
      <trkpt lat="44.00205" lon="5.13236">
        <ele>230.5</ele>
        <time>2018-11-29T16:38:7.000Z</time>
      </trkpt>
      <trkpt lat="44.00205" lon="5.1323">
        <ele>230.3</ele>
        <time>2018-11-29T16:38:7.000Z</time>
      </trkpt>
      <trkpt lat="44.00206" lon="5.13223">
        <ele>230.2</ele>
        <time>2018-11-29T16:38:7.000Z</time>
      </trkpt>
      <trkpt lat="44.00206" lon="5.13217">
        <ele>230</ele>
        <time>2018-11-29T16:38:7.000Z</time>
      </trkpt>
      <trkpt lat="44.00208" lon="5.13212">
        <ele>229.8</ele>
        <time>2018-11-29T16:38:23.000Z</time>
      </trkpt>
      <trkpt lat="44.00211" lon="5.13199">
        <ele>229.3</ele>
        <time>2018-11-29T16:38:23.000Z</time>
      </trkpt>
      <trkpt lat="44.00212" lon="5.13193">
        <ele>229.1</ele>
        <time>2018-11-29T16:38:23.000Z</time>
      </trkpt>
      <trkpt lat="44.00214" lon="5.13188">
        <ele>228.8</ele>
        <time>2018-11-29T16:38:39.000Z</time>
      </trkpt>
      <trkpt lat="44.00216" lon="5.13181">
        <ele>228.5</ele>
        <time>2018-11-29T16:38:39.000Z</time>
      </trkpt>
      <trkpt lat="44.0022" lon="5.1317">
        <ele>227.9</ele>
        <time>2018-11-29T16:38:39.000Z</time>
      </trkpt>
      <trkpt lat="44.00222" lon="5.13164">
        <ele>227.7</ele>
        <time>2018-11-29T16:38:55.000Z</time>
      </trkpt>
      <trkpt lat="44.00222" lon="5.13159">
        <ele>227.8</ele>
        <time>2018-11-29T16:38:55.000Z</time>
      </trkpt>
      <trkpt lat="44.00224" lon="5.13153">
        <ele>227.8</ele>
        <time>2018-11-29T16:38:55.000Z</time>
      </trkpt>
      <trkpt lat="44.00225" lon="5.13148">
        <ele>227.9</ele>
        <time>2018-11-29T16:38:55.000Z</time>
      </trkpt>
      <trkpt lat="44.00228" lon="5.1314">
        <ele>227.7</ele>
        <time>2018-11-29T16:39:11.000Z</time>
      </trkpt>
      <trkpt lat="44.00231" lon="5.13136">
        <ele>227.6</ele>
        <time>2018-11-29T16:39:11.000Z</time>
      </trkpt>
      <trkpt lat="44.00235" lon="5.13132">
        <ele>227.3</ele>
        <time>2018-11-29T16:39:11.000Z</time>
      </trkpt>
      <trkpt lat="44.00238" lon="5.13127">
        <ele>227.1</ele>
        <time>2018-11-29T16:39:11.000Z</time>
      </trkpt>
      <trkpt lat="44.0024" lon="5.13121">
        <ele>227</ele>
        <time>2018-11-29T16:39:27.000Z</time>
      </trkpt>
      <trkpt lat="44.00242" lon="5.13118">
        <ele>226.9</ele>
        <time>2018-11-29T16:39:27.000Z</time>
      </trkpt>
      <trkpt lat="44.00244" lon="5.13115">
        <ele>226.8</ele>
        <time>2018-11-29T16:39:27.000Z</time>
      </trkpt>
      <trkpt lat="44.00248" lon="5.13109">
        <ele>226.6</ele>
        <time>2018-11-29T16:39:27.000Z</time>
      </trkpt>
      <trkpt lat="44.00253" lon="5.13101">
        <ele>226.3</ele>
        <time>2018-11-29T16:39:43.000Z</time>
      </trkpt>
      <trkpt lat="44.00257" lon="5.13096">
        <ele>226.2</ele>
        <time>2018-11-29T16:39:43.000Z</time>
      </trkpt>
      <trkpt lat="44.00259" lon="5.13091">
        <ele>226.1</ele>
        <time>2018-11-29T16:39:43.000Z</time>
      </trkpt>
      <trkpt lat="44.00262" lon="5.13087">
        <ele>225.9</ele>
        <time>2018-11-29T16:41:51.000Z</time>
      </trkpt>
      <trkpt lat="44.00265" lon="5.13081">
        <ele>225.9</ele>
        <time>2018-11-29T16:41:51.000Z</time>
      </trkpt>
      <trkpt lat="44.00266" lon="5.13079">
        <ele>226</ele>
        <time>2018-11-29T16:41:51.000Z</time>
      </trkpt>
      <trkpt lat="44.00267" lon="5.13077">
        <ele>226</ele>
        <time>2018-11-29T16:41:51.000Z</time>
      </trkpt>
      <trkpt lat="44.00271" lon="5.13067">
        <ele>226.4</ele>
        <time>2018-11-29T16:42:7.000Z</time>
      </trkpt>
      <trkpt lat="44.00273" lon="5.13062">
        <ele>226.6</ele>
        <time>2018-11-29T16:42:7.000Z</time>
      </trkpt>
      <trkpt lat="44.00276" lon="5.13057">
        <ele>226.6</ele>
        <time>2018-11-29T16:42:7.000Z</time>
      </trkpt>
      <trkpt lat="44.00279" lon="5.13053">
        <ele>226.6</ele>
        <time>2018-11-29T16:42:7.000Z</time>
      </trkpt>
      <trkpt lat="44.00282" lon="5.13049">
        <ele>226.7</ele>
        <time>2018-11-29T16:42:23.000Z</time>
      </trkpt>
      <trkpt lat="44.00284" lon="5.13045">
        <ele>226.7</ele>
        <time>2018-11-29T16:42:23.000Z</time>
      </trkpt>
      <trkpt lat="44.00287" lon="5.1304">
        <ele>226.8</ele>
        <time>2018-11-29T16:42:23.000Z</time>
      </trkpt>
      <trkpt lat="44.00289" lon="5.13036">
        <ele>226.9</ele>
        <time>2018-11-29T16:42:23.000Z</time>
      </trkpt>
      <trkpt lat="44.00292" lon="5.13031">
        <ele>227</ele>
        <time>2018-11-29T16:42:39.000Z</time>
      </trkpt>
      <trkpt lat="44.00294" lon="5.13027">
        <ele>227</ele>
        <time>2018-11-29T16:42:39.000Z</time>
      </trkpt>
      <trkpt lat="44.00296" lon="5.13023">
        <ele>227.1</ele>
        <time>2018-11-29T16:42:39.000Z</time>
      </trkpt>
      <trkpt lat="44.00297" lon="5.13019">
        <ele>227.2</ele>
        <time>2018-11-29T16:42:39.000Z</time>
      </trkpt>
      <trkpt lat="44.003" lon="5.13014">
        <ele>227.3</ele>
        <time>2018-11-29T16:42:55.000Z</time>
      </trkpt>
      <trkpt lat="44.00301" lon="5.13011">
        <ele>227.5</ele>
        <time>2018-11-29T16:42:55.000Z</time>
      </trkpt>
      <trkpt lat="44.00303" lon="5.13005">
        <ele>227.6</ele>
        <time>2018-11-29T16:42:55.000Z</time>
      </trkpt>
      <trkpt lat="44.00304" lon="5.12999">
        <ele>227.9</ele>
        <time>2018-11-29T16:42:55.000Z</time>
      </trkpt>
      <trkpt lat="44.00306" lon="5.12988">
        <ele>228.6</ele>
        <time>2018-11-29T16:43:11.000Z</time>
      </trkpt>
      <trkpt lat="44.00309" lon="5.12982">
        <ele>228.8</ele>
        <time>2018-11-29T16:43:11.000Z</time>
      </trkpt>
      <trkpt lat="44.00312" lon="5.12976">
        <ele>229</ele>
        <time>2018-11-29T16:43:11.000Z</time>
      </trkpt>
      <trkpt lat="44.00313" lon="5.12975">
        <ele>229.1</ele>
        <time>2018-11-29T16:43:31.000Z</time>
      </trkpt>
      <trkpt lat="44.00314" lon="5.1297">
        <ele>229.4</ele>
        <time>2018-11-29T16:43:31.000Z</time>
      </trkpt>
      <trkpt lat="44.0032" lon="5.1295">
        <ele>230.4</ele>
        <time>2018-11-29T16:43:47.000Z</time>
      </trkpt>
      <trkpt lat="44.00325" lon="5.12942">
        <ele>230.7</ele>
        <time>2018-11-29T16:43:47.000Z</time>
      </trkpt>
      <trkpt lat="44.00329" lon="5.12937">
        <ele>230.8</ele>
        <time>2018-11-29T16:43:47.000Z</time>
      </trkpt>
      <trkpt lat="44.00329" lon="5.12936">
        <ele>230.8</ele>
        <time>2018-11-29T16:43:47.000Z</time>
      </trkpt>
      <trkpt lat="44.00334" lon="5.12932">
        <ele>230.7</ele>
        <time>2018-11-29T16:44:7.000Z</time>
      </trkpt>
      <trkpt lat="44.00336" lon="5.12931">
        <ele>230.8</ele>
        <time>2018-11-29T16:44:7.000Z</time>
      </trkpt>
      <trkpt lat="44.00343" lon="5.1293">
        <ele>230.8</ele>
        <time>2018-11-29T16:44:7.000Z</time>
      </trkpt>
      <trkpt lat="44.00349" lon="5.12928">
        <ele>230.8</ele>
        <time>2018-11-29T16:44:7.000Z</time>
      </trkpt>
      <trkpt lat="44.00351" lon="5.12928">
        <ele>230.8</ele>
        <time>2018-11-29T16:44:23.000Z</time>
      </trkpt>
      <trkpt lat="44.00352" lon="5.12927">
        <ele>230.9</ele>
        <time>2018-11-29T16:44:23.000Z</time>
      </trkpt>
      <trkpt lat="44.0036" lon="5.12922">
        <ele>231.3</ele>
        <time>2018-11-29T16:44:23.000Z</time>
      </trkpt>
      <trkpt lat="44.00365" lon="5.12918">
        <ele>231.5</ele>
        <time>2018-11-29T16:44:23.000Z</time>
      </trkpt>
      <trkpt lat="44.00366" lon="5.12918">
        <ele>231.6</ele>
        <time>2018-11-29T16:44:39.000Z</time>
      </trkpt>
      <trkpt lat="44.0037" lon="5.12913">
        <ele>231.5</ele>
        <time>2018-11-29T16:44:39.000Z</time>
      </trkpt>
      <trkpt lat="44.00377" lon="5.12907">
        <ele>231.3</ele>
        <time>2018-11-29T16:44:39.000Z</time>
      </trkpt>
      <trkpt lat="44.00384" lon="5.129">
        <ele>231.2</ele>
        <time>2018-11-29T16:44:39.000Z</time>
      </trkpt>
      <trkpt lat="44.00388" lon="5.12895">
        <ele>231.1</ele>
        <time>2018-11-29T16:44:55.000Z</time>
      </trkpt>
      <trkpt lat="44.00391" lon="5.12889">
        <ele>231</ele>
        <time>2018-11-29T16:44:55.000Z</time>
      </trkpt>
      <trkpt lat="44.00393" lon="5.12882">
        <ele>230.9</ele>
        <time>2018-11-29T16:44:55.000Z</time>
      </trkpt>
      <trkpt lat="44.00396" lon="5.12877">
        <ele>230.8</ele>
        <time>2018-11-29T16:44:55.000Z</time>
      </trkpt>
      <trkpt lat="44.00397" lon="5.12872">
        <ele>230.7</ele>
        <time>2018-11-29T16:45:15.000Z</time>
      </trkpt>
      <trkpt lat="44.00398" lon="5.12867">
        <ele>230.6</ele>
        <time>2018-11-29T16:45:15.000Z</time>
      </trkpt>
      <trkpt lat="44.00398" lon="5.12865">
        <ele>230.6</ele>
        <time>2018-11-29T16:45:15.000Z</time>
      </trkpt>
      <trkpt lat="44.00399" lon="5.12861">
        <ele>230.5</ele>
        <time>2018-11-29T16:45:15.000Z</time>
      </trkpt>
      <trkpt lat="44.00399" lon="5.12855">
        <ele>230.5</ele>
        <time>2018-11-29T16:45:15.000Z</time>
      </trkpt>
      <trkpt lat="44.00401" lon="5.12851">
        <ele>230.4</ele>
        <time>2018-11-29T16:45:31.000Z</time>
      </trkpt>
      <trkpt lat="44.00403" lon="5.12844">
        <ele>230.3</ele>
        <time>2018-11-29T16:45:31.000Z</time>
      </trkpt>
      <trkpt lat="44.00405" lon="5.1284">
        <ele>230.2</ele>
        <time>2018-11-29T16:45:31.000Z</time>
      </trkpt>
      <trkpt lat="44.00406" lon="5.12833">
        <ele>230.1</ele>
        <time>2018-11-29T16:45:31.000Z</time>
      </trkpt>
      <trkpt lat="44.00406" lon="5.12828">
        <ele>229.7</ele>
        <time>2018-11-29T16:45:47.000Z</time>
      </trkpt>
      <trkpt lat="44.00407" lon="5.12822">
        <ele>229.3</ele>
        <time>2018-11-29T16:45:47.000Z</time>
      </trkpt>
      <trkpt lat="44.00409" lon="5.12819">
        <ele>229</ele>
        <time>2018-11-29T16:45:47.000Z</time>
      </trkpt>
      <trkpt lat="44.00411" lon="5.12817">
        <ele>228.8</ele>
        <time>2018-11-29T16:45:47.000Z</time>
      </trkpt>
      <trkpt lat="44.00414" lon="5.12812">
        <ele>228.4</ele>
        <time>2018-11-29T16:46:3.000Z</time>
      </trkpt>
      <trkpt lat="44.00416" lon="5.12808">
        <ele>228.1</ele>
        <time>2018-11-29T16:46:3.000Z</time>
      </trkpt>
      <trkpt lat="44.0042" lon="5.12798">
        <ele>227.4</ele>
        <time>2018-11-29T16:46:3.000Z</time>
      </trkpt>
      <trkpt lat="44.00422" lon="5.12793">
        <ele>227</ele>
        <time>2018-11-29T16:46:19.000Z</time>
      </trkpt>
      <trkpt lat="44.00424" lon="5.12788">
        <ele>226.6</ele>
        <time>2018-11-29T16:46:19.000Z</time>
      </trkpt>
      <trkpt lat="44.00425" lon="5.12782">
        <ele>226.2</ele>
        <time>2018-11-29T16:46:19.000Z</time>
      </trkpt>
      <trkpt lat="44.00426" lon="5.12777">
        <ele>225.8</ele>
        <time>2018-11-29T16:46:19.000Z</time>
      </trkpt>
      <trkpt lat="44.00427" lon="5.12771">
        <ele>225.4</ele>
        <time>2018-11-29T16:46:35.000Z</time>
      </trkpt>
      <trkpt lat="44.00429" lon="5.12766">
        <ele>225.1</ele>
        <time>2018-11-29T16:46:35.000Z</time>
      </trkpt>
      <trkpt lat="44.0043" lon="5.1276">
        <ele>224.6</ele>
        <time>2018-11-29T16:46:35.000Z</time>
      </trkpt>
      <trkpt lat="44.00432" lon="5.12753">
        <ele>224.2</ele>
        <time>2018-11-29T16:46:35.000Z</time>
      </trkpt>
      <trkpt lat="44.00434" lon="5.12748">
        <ele>223.8</ele>
        <time>2018-11-29T16:46:55.000Z</time>
      </trkpt>
      <trkpt lat="44.00435" lon="5.12742">
        <ele>223.4</ele>
        <time>2018-11-29T16:46:55.000Z</time>
      </trkpt>
      <trkpt lat="44.00434" lon="5.12737">
        <ele>222.9</ele>
        <time>2018-11-29T16:46:55.000Z</time>
      </trkpt>
      <trkpt lat="44.00434" lon="5.12736">
        <ele>222.9</ele>
        <time>2018-11-29T16:46:55.000Z</time>
      </trkpt>
      <trkpt lat="44.00436" lon="5.1273">
        <ele>222.4</ele>
        <time>2018-11-29T16:46:55.000Z</time>
      </trkpt>
      <trkpt lat="44.00437" lon="5.12726">
        <ele>222.1</ele>
        <time>2018-11-29T16:47:15.000Z</time>
      </trkpt>
      <trkpt lat="44.00437" lon="5.12726">
        <ele>222.1</ele>
        <time>2018-11-29T16:47:15.000Z</time>
      </trkpt>
      <trkpt lat="44.00437" lon="5.12723">
        <ele>221.8</ele>
        <time>2018-11-29T16:47:15.000Z</time>
      </trkpt>
      <trkpt lat="44.00439" lon="5.12717">
        <ele>221.4</ele>
        <time>2018-11-29T16:47:15.000Z</time>
      </trkpt>
      <trkpt lat="44.00439" lon="5.12712">
        <ele>221</ele>
        <time>2018-11-29T16:47:15.000Z</time>
      </trkpt>
      <trkpt lat="44.0044" lon="5.12706">
        <ele>220.6</ele>
        <time>2018-11-29T16:47:31.000Z</time>
      </trkpt>
      <trkpt lat="44.00441" lon="5.127">
        <ele>220.1</ele>
        <time>2018-11-29T16:47:31.000Z</time>
      </trkpt>
      <trkpt lat="44.00442" lon="5.12696">
        <ele>219.8</ele>
        <time>2018-11-29T16:47:31.000Z</time>
      </trkpt>
      <trkpt lat="44.00444" lon="5.12691">
        <ele>219.5</ele>
        <time>2018-11-29T16:47:31.000Z</time>
      </trkpt>
      <trkpt lat="44.00445" lon="5.12685">
        <ele>219</ele>
        <time>2018-11-29T16:47:47.000Z</time>
      </trkpt>
      <trkpt lat="44.00446" lon="5.12681">
        <ele>218.7</ele>
        <time>2018-11-29T16:47:47.000Z</time>
      </trkpt>
      <trkpt lat="44.00448" lon="5.12674">
        <ele>218.2</ele>
        <time>2018-11-29T16:47:47.000Z</time>
      </trkpt>
      <trkpt lat="44.0045" lon="5.1267">
        <ele>218</ele>
        <time>2018-11-29T16:47:47.000Z</time>
      </trkpt>
      <trkpt lat="44.00452" lon="5.12665">
        <ele>217.6</ele>
        <time>2018-11-29T16:48:3.000Z</time>
      </trkpt>
      <trkpt lat="44.00455" lon="5.12663">
        <ele>217.5</ele>
        <time>2018-11-29T16:48:3.000Z</time>
      </trkpt>
      <trkpt lat="44.00457" lon="5.12657">
        <ele>217.1</ele>
        <time>2018-11-29T16:48:3.000Z</time>
      </trkpt>
      <trkpt lat="44.00458" lon="5.12653">
        <ele>216.7</ele>
        <time>2018-11-29T16:48:3.000Z</time>
      </trkpt>
      <trkpt lat="44.00461" lon="5.12648">
        <ele>216.3</ele>
        <time>2018-11-29T16:48:19.000Z</time>
      </trkpt>
      <trkpt lat="44.00461" lon="5.12643">
        <ele>215.9</ele>
        <time>2018-11-29T16:48:19.000Z</time>
      </trkpt>
      <trkpt lat="44.00464" lon="5.12639">
        <ele>215.6</ele>
        <time>2018-11-29T16:48:19.000Z</time>
      </trkpt>
      <trkpt lat="44.00465" lon="5.12633">
        <ele>215.1</ele>
        <time>2018-11-29T16:48:19.000Z</time>
      </trkpt>
      <trkpt lat="44.00465" lon="5.1263">
        <ele>214.8</ele>
        <time>2018-11-29T16:48:35.000Z</time>
      </trkpt>
      <trkpt lat="44.00467" lon="5.12623">
        <ele>214.3</ele>
        <time>2018-11-29T16:48:35.000Z</time>
      </trkpt>
      <trkpt lat="44.00468" lon="5.12619">
        <ele>214</ele>
        <time>2018-11-29T16:48:35.000Z</time>
      </trkpt>
      <trkpt lat="44.0047" lon="5.12615">
        <ele>213.6</ele>
        <time>2018-11-29T16:48:35.000Z</time>
      </trkpt>
      <trkpt lat="44.00472" lon="5.12611">
        <ele>213.4</ele>
        <time>2018-11-29T16:48:51.000Z</time>
      </trkpt>
      <trkpt lat="44.00474" lon="5.12602">
        <ele>212.7</ele>
        <time>2018-11-29T16:48:51.000Z</time>
      </trkpt>
      <trkpt lat="44.00476" lon="5.12597">
        <ele>212.3</ele>
        <time>2018-11-29T16:48:51.000Z</time>
      </trkpt>
      <trkpt lat="44.00478" lon="5.12592">
        <ele>211.9</ele>
        <time>2018-11-29T16:49:7.000Z</time>
      </trkpt>
      <trkpt lat="44.00479" lon="5.12588">
        <ele>211.6</ele>
        <time>2018-11-29T16:49:7.000Z</time>
      </trkpt>
      <trkpt lat="44.00481" lon="5.12583">
        <ele>211.2</ele>
        <time>2018-11-29T16:49:7.000Z</time>
      </trkpt>
      <trkpt lat="44.00482" lon="5.12578">
        <ele>210.8</ele>
        <time>2018-11-29T16:49:7.000Z</time>
      </trkpt>
      <trkpt lat="44.00484" lon="5.12572">
        <ele>210.4</ele>
        <time>2018-11-29T16:49:23.000Z</time>
      </trkpt>
      <trkpt lat="44.00486" lon="5.12567">
        <ele>210.1</ele>
        <time>2018-11-29T16:49:23.000Z</time>
      </trkpt>
      <trkpt lat="44.00489" lon="5.12564">
        <ele>209.8</ele>
        <time>2018-11-29T16:49:23.000Z</time>
      </trkpt>
      <trkpt lat="44.00491" lon="5.12561">
        <ele>209.6</ele>
        <time>2018-11-29T16:49:23.000Z</time>
      </trkpt>
      <trkpt lat="44.00493" lon="5.1256">
        <ele>209.5</ele>
        <time>2018-11-29T16:49:43.000Z</time>
      </trkpt>
      <trkpt lat="44.00494" lon="5.12557">
        <ele>209.3</ele>
        <time>2018-11-29T16:49:43.000Z</time>
      </trkpt>
      <trkpt lat="44.00496" lon="5.12553">
        <ele>209</ele>
        <time>2018-11-29T16:49:43.000Z</time>
      </trkpt>
      <trkpt lat="44.00498" lon="5.12551">
        <ele>208.8</ele>
        <time>2018-11-29T16:49:43.000Z</time>
      </trkpt>
      <trkpt lat="44.00508" lon="5.12541">
        <ele>207.8</ele>
        <time>2018-11-29T16:49:59.000Z</time>
      </trkpt>
      <trkpt lat="44.00511" lon="5.12536">
        <ele>207.2</ele>
        <time>2018-11-29T16:49:59.000Z</time>
      </trkpt>
      <trkpt lat="44.00514" lon="5.12533">
        <ele>206.8</ele>
        <time>2018-11-29T16:49:59.000Z</time>
      </trkpt>
      <trkpt lat="44.00516" lon="5.1253">
        <ele>206.5</ele>
        <time>2018-11-29T16:49:59.000Z</time>
      </trkpt>
      <trkpt lat="44.00519" lon="5.12527">
        <ele>206</ele>
        <time>2018-11-29T16:50:15.000Z</time>
      </trkpt>
      <trkpt lat="44.00523" lon="5.12523">
        <ele>205.5</ele>
        <time>2018-11-29T16:50:15.000Z</time>
      </trkpt>
      <trkpt lat="44.00527" lon="5.12519">
        <ele>205</ele>
        <time>2018-11-29T16:50:15.000Z</time>
      </trkpt>
      <trkpt lat="44.00536" lon="5.12514">
        <ele>204.2</ele>
        <time>2018-11-29T16:50:31.000Z</time>
      </trkpt>
      <trkpt lat="44.00539" lon="5.12511">
        <ele>203.7</ele>
        <time>2018-11-29T16:50:31.000Z</time>
      </trkpt>
      <trkpt lat="44.00543" lon="5.12507">
        <ele>203.2</ele>
        <time>2018-11-29T16:50:31.000Z</time>
      </trkpt>
      <trkpt lat="44.00546" lon="5.12504">
        <ele>202.8</ele>
        <time>2018-11-29T16:50:31.000Z</time>
      </trkpt>
      <trkpt lat="44.00547" lon="5.12497">
        <ele>202.1</ele>
        <time>2018-11-29T16:51:23.000Z</time>
      </trkpt>
      <trkpt lat="44.00544" lon="5.12501">
        <ele>202.5</ele>
        <time>2018-11-29T16:51:23.000Z</time>
      </trkpt>
      <trkpt lat="44.00541" lon="5.12507">
        <ele>203.3</ele>
        <time>2018-11-29T16:51:23.000Z</time>
      </trkpt>
      <trkpt lat="44.00539" lon="5.12512">
        <ele>203.9</ele>
        <time>2018-11-29T16:51:23.000Z</time>
      </trkpt>
      <trkpt lat="44.00536" lon="5.12515">
        <ele>204.3</ele>
        <time>2018-11-29T16:51:23.000Z</time>
      </trkpt>
      <trkpt lat="44.00531" lon="5.12518">
        <ele>204.8</ele>
        <time>2018-11-29T16:51:39.000Z</time>
      </trkpt>
      <trkpt lat="44.00528" lon="5.12521">
        <ele>205.2</ele>
        <time>2018-11-29T16:51:39.000Z</time>
      </trkpt>
      <trkpt lat="44.00525" lon="5.12523">
        <ele>205.5</ele>
        <time>2018-11-29T16:51:39.000Z</time>
      </trkpt>
      <trkpt lat="44.0052" lon="5.12525">
        <ele>205.8</ele>
        <time>2018-11-29T16:51:39.000Z</time>
      </trkpt>
      <trkpt lat="44.00517" lon="5.12526">
        <ele>206</ele>
        <time>2018-11-29T16:51:55.000Z</time>
      </trkpt>
      <trkpt lat="44.00514" lon="5.12531">
        <ele>206.6</ele>
        <time>2018-11-29T16:51:55.000Z</time>
      </trkpt>
      <trkpt lat="44.00511" lon="5.12536">
        <ele>207.2</ele>
        <time>2018-11-29T16:51:55.000Z</time>
      </trkpt>
      <trkpt lat="44.00502" lon="5.12548">
        <ele>208.5</ele>
        <time>2018-11-29T16:52:11.000Z</time>
      </trkpt>
      <trkpt lat="44.00499" lon="5.12553">
        <ele>209</ele>
        <time>2018-11-29T16:52:11.000Z</time>
      </trkpt>
      <trkpt lat="44.00495" lon="5.12558">
        <ele>209.4</ele>
        <time>2018-11-29T16:52:11.000Z</time>
      </trkpt>
      <trkpt lat="44.00493" lon="5.12562">
        <ele>209.7</ele>
        <time>2018-11-29T16:52:27.000Z</time>
      </trkpt>
      <trkpt lat="44.0049" lon="5.12565">
        <ele>210</ele>
        <time>2018-11-29T16:52:27.000Z</time>
      </trkpt>
      <trkpt lat="44.00484" lon="5.12564">
        <ele>209.8</ele>
        <time>2018-11-29T16:52:27.000Z</time>
      </trkpt>
      <trkpt lat="44.00481" lon="5.12562">
        <ele>209.5</ele>
        <time>2018-11-29T16:52:27.000Z</time>
      </trkpt>
      <trkpt lat="44.00479" lon="5.1256">
        <ele>209.3</ele>
        <time>2018-11-29T16:52:43.000Z</time>
      </trkpt>
      <trkpt lat="44.00474" lon="5.12554">
        <ele>208.6</ele>
        <time>2018-11-29T16:52:43.000Z</time>
      </trkpt>
      <trkpt lat="44.00472" lon="5.12552">
        <ele>208.5</ele>
        <time>2018-11-29T16:52:43.000Z</time>
      </trkpt>
      <trkpt lat="44.0047" lon="5.12549">
        <ele>208.2</ele>
        <time>2018-11-29T16:52:59.000Z</time>
      </trkpt>
      <trkpt lat="44.00468" lon="5.12545">
        <ele>207.8</ele>
        <time>2018-11-29T16:52:59.000Z</time>
      </trkpt>
      <trkpt lat="44.00466" lon="5.12539">
        <ele>207.3</ele>
        <time>2018-11-29T16:52:59.000Z</time>
      </trkpt>
      <trkpt lat="44.00467" lon="5.12535">
        <ele>207.1</ele>
        <time>2018-11-29T16:52:59.000Z</time>
      </trkpt>
      <trkpt lat="44.00468" lon="5.12529">
        <ele>206.6</ele>
        <time>2018-11-29T16:53:15.000Z</time>
      </trkpt>
      <trkpt lat="44.0047" lon="5.12523">
        <ele>206.1</ele>
        <time>2018-11-29T16:53:15.000Z</time>
      </trkpt>
      <trkpt lat="44.0047" lon="5.12521">
        <ele>206</ele>
        <time>2018-11-29T16:53:15.000Z</time>
      </trkpt>
      <trkpt lat="44.00472" lon="5.12514">
        <ele>205.4</ele>
        <time>2018-11-29T16:53:15.000Z</time>
      </trkpt>
      <trkpt lat="44.00473" lon="5.12508">
        <ele>204.9</ele>
        <time>2018-11-29T16:53:31.000Z</time>
      </trkpt>
      <trkpt lat="44.00474" lon="5.12504">
        <ele>204.6</ele>
        <time>2018-11-29T16:53:31.000Z</time>
      </trkpt>
      <trkpt lat="44.0048" lon="5.12493">
        <ele>203.7</ele>
        <time>2018-11-29T16:53:31.000Z</time>
      </trkpt>
      <trkpt lat="44.00485" lon="5.1249">
        <ele>203.5</ele>
        <time>2018-11-29T16:53:51.000Z</time>
      </trkpt>
      <trkpt lat="44.00487" lon="5.12489">
        <ele>203.4</ele>
        <time>2018-11-29T16:53:51.000Z</time>
      </trkpt>
      <trkpt lat="44.00489" lon="5.12485">
        <ele>203.1</ele>
        <time>2018-11-29T16:53:51.000Z</time>
      </trkpt>
      <trkpt lat="44.00489" lon="5.12482">
        <ele>202.9</ele>
        <time>2018-11-29T16:53:51.000Z</time>
      </trkpt>
      <trkpt lat="44.00495" lon="5.12474">
        <ele>202.4</ele>
        <time>2018-11-29T16:54:11.000Z</time>
      </trkpt>
      <trkpt lat="44.00498" lon="5.12472">
        <ele>202.3</ele>
        <time>2018-11-29T16:54:11.000Z</time>
      </trkpt>
      <trkpt lat="44.00502" lon="5.12461">
        <ele>201.5</ele>
        <time>2018-11-29T16:54:11.000Z</time>
      </trkpt>
      <trkpt lat="44.00503" lon="5.12455">
        <ele>201.2</ele>
        <time>2018-11-29T16:54:27.000Z</time>
      </trkpt>
      <trkpt lat="44.00505" lon="5.12449">
        <ele>200.7</ele>
        <time>2018-11-29T16:54:27.000Z</time>
      </trkpt>
      <trkpt lat="44.00507" lon="5.12445">
        <ele>200.3</ele>
        <time>2018-11-29T16:54:27.000Z</time>
      </trkpt>
      <trkpt lat="44.00508" lon="5.1244">
        <ele>199.9</ele>
        <time>2018-11-29T16:54:27.000Z</time>
      </trkpt>
      <trkpt lat="44.00509" lon="5.12434">
        <ele>199.5</ele>
        <time>2018-11-29T16:54:43.000Z</time>
      </trkpt>
      <trkpt lat="44.00511" lon="5.1243">
        <ele>199.2</ele>
        <time>2018-11-29T16:54:43.000Z</time>
      </trkpt>
      <trkpt lat="44.00513" lon="5.12424">
        <ele>198.6</ele>
        <time>2018-11-29T16:54:43.000Z</time>
      </trkpt>
      <trkpt lat="44.00519" lon="5.12418">
        <ele>197.9</ele>
        <time>2018-11-29T16:54:59.000Z</time>
      </trkpt>
      <trkpt lat="44.00519" lon="5.12413">
        <ele>197.5</ele>
        <time>2018-11-29T16:54:59.000Z</time>
      </trkpt>
      <trkpt lat="44.00521" lon="5.12407">
        <ele>196.8</ele>
        <time>2018-11-29T16:54:59.000Z</time>
      </trkpt>
      <trkpt lat="44.00525" lon="5.12403">
        <ele>196.1</ele>
        <time>2018-11-29T16:54:59.000Z</time>
      </trkpt>
      <trkpt lat="44.00528" lon="5.12401">
        <ele>195.7</ele>
        <time>2018-11-29T16:55:15.000Z</time>
      </trkpt>
      <trkpt lat="44.00531" lon="5.12398">
        <ele>195.3</ele>
        <time>2018-11-29T16:55:15.000Z</time>
      </trkpt>
      <trkpt lat="44.00534" lon="5.12396">
        <ele>195</ele>
        <time>2018-11-29T16:55:15.000Z</time>
      </trkpt>
      <trkpt lat="44.00537" lon="5.12393">
        <ele>194.5</ele>
        <time>2018-11-29T16:55:15.000Z</time>
      </trkpt>
      <trkpt lat="44.00538" lon="5.12388">
        <ele>194.1</ele>
        <time>2018-11-29T16:55:31.000Z</time>
      </trkpt>
      <trkpt lat="44.0054" lon="5.12383">
        <ele>193.5</ele>
        <time>2018-11-29T16:55:31.000Z</time>
      </trkpt>
      <trkpt lat="44.00543" lon="5.1238">
        <ele>193.1</ele>
        <time>2018-11-29T16:55:31.000Z</time>
      </trkpt>
      <trkpt lat="44.00546" lon="5.12377">
        <ele>192.7</ele>
        <time>2018-11-29T16:55:31.000Z</time>
      </trkpt>
      <trkpt lat="44.00547" lon="5.12371">
        <ele>192.1</ele>
        <time>2018-11-29T16:55:47.000Z</time>
      </trkpt>
      <trkpt lat="44.00548" lon="5.12368">
        <ele>191.8</ele>
        <time>2018-11-29T16:55:47.000Z</time>
      </trkpt>
      <trkpt lat="44.0055" lon="5.12364">
        <ele>191.4</ele>
        <time>2018-11-29T16:55:47.000Z</time>
      </trkpt>
      <trkpt lat="44.00552" lon="5.12359">
        <ele>190.9</ele>
        <time>2018-11-29T16:55:47.000Z</time>
      </trkpt>
      <trkpt lat="44.00555" lon="5.12355">
        <ele>190.5</ele>
        <time>2018-11-29T16:56:3.000Z</time>
      </trkpt>
      <trkpt lat="44.00558" lon="5.1235">
        <ele>190</ele>
        <time>2018-11-29T16:56:3.000Z</time>
      </trkpt>
      <trkpt lat="44.00559" lon="5.12345">
        <ele>189.5</ele>
        <time>2018-11-29T16:56:3.000Z</time>
      </trkpt>
      <trkpt lat="44.00561" lon="5.12342">
        <ele>189.2</ele>
        <time>2018-11-29T16:56:3.000Z</time>
      </trkpt>
      <trkpt lat="44.00564" lon="5.12338">
        <ele>188.8</ele>
        <time>2018-11-29T16:56:23.000Z</time>
      </trkpt>
      <trkpt lat="44.00565" lon="5.12334">
        <ele>188.5</ele>
        <time>2018-11-29T16:56:23.000Z</time>
      </trkpt>
      <trkpt lat="44.00566" lon="5.12333">
        <ele>188.4</ele>
        <time>2018-11-29T16:56:23.000Z</time>
      </trkpt>
      <trkpt lat="44.00569" lon="5.12331">
        <ele>188.2</ele>
        <time>2018-11-29T16:56:23.000Z</time>
      </trkpt>
      <trkpt lat="44.00573" lon="5.12327">
        <ele>187.9</ele>
        <time>2018-11-29T16:56:23.000Z</time>
      </trkpt>
      <trkpt lat="44.00575" lon="5.12326">
        <ele>187.7</ele>
        <time>2018-11-29T16:56:39.000Z</time>
      </trkpt>
      <trkpt lat="44.0058" lon="5.12323">
        <ele>187.4</ele>
        <time>2018-11-29T16:56:39.000Z</time>
      </trkpt>
      <trkpt lat="44.00585" lon="5.12322">
        <ele>187.2</ele>
        <time>2018-11-29T16:56:39.000Z</time>
      </trkpt>
      <trkpt lat="44.00588" lon="5.12321">
        <ele>186.9</ele>
        <time>2018-11-29T16:56:39.000Z</time>
      </trkpt>
      <trkpt lat="44.00592" lon="5.12317">
        <ele>186.5</ele>
        <time>2018-11-29T16:56:55.000Z</time>
      </trkpt>
      <trkpt lat="44.00594" lon="5.12312">
        <ele>186.1</ele>
        <time>2018-11-29T16:56:55.000Z</time>
      </trkpt>
      <trkpt lat="44.00596" lon="5.12307">
        <ele>185.7</ele>
        <time>2018-11-29T16:56:55.000Z</time>
      </trkpt>
      <trkpt lat="44.00596" lon="5.12304">
        <ele>185.5</ele>
        <time>2018-11-29T16:56:55.000Z</time>
      </trkpt>
      <trkpt lat="44.00595" lon="5.1229">
        <ele>184.8</ele>
        <time>2018-11-29T16:58:51.000Z</time>
      </trkpt>
      <trkpt lat="44.00594" lon="5.12287">
        <ele>184.6</ele>
        <time>2018-11-29T16:58:51.000Z</time>
      </trkpt>
      <trkpt lat="44.00596" lon="5.12287">
        <ele>184.5</ele>
        <time>2018-11-29T16:58:51.000Z</time>
      </trkpt>
      <trkpt lat="44.00597" lon="5.12286">
        <ele>184.4</ele>
        <time>2018-11-29T16:58:51.000Z</time>
      </trkpt>
      <trkpt lat="44.00596" lon="5.12285">
        <ele>184.4</ele>
        <time>2018-11-29T16:58:51.000Z</time>
      </trkpt>
      <trkpt lat="44.00597" lon="5.12277">
        <ele>183.9</ele>
        <time>2018-11-29T16:59:7.000Z</time>
      </trkpt>
      <trkpt lat="44.00599" lon="5.12269">
        <ele>183.3</ele>
        <time>2018-11-29T16:59:7.000Z</time>
      </trkpt>
      <trkpt lat="44.006" lon="5.12264">
        <ele>183</ele>
        <time>2018-11-29T16:59:7.000Z</time>
      </trkpt>
      <trkpt lat="44.006" lon="5.12259">
        <ele>182.7</ele>
        <time>2018-11-29T16:59:7.000Z</time>
      </trkpt>
      <trkpt lat="44.00601" lon="5.1225">
        <ele>182.1</ele>
        <time>2018-11-29T16:59:23.000Z</time>
      </trkpt>
      <trkpt lat="44.00603" lon="5.12243">
        <ele>181.8</ele>
        <time>2018-11-29T16:59:23.000Z</time>
      </trkpt>
      <trkpt lat="44.00605" lon="5.1224">
        <ele>181.5</ele>
        <time>2018-11-29T16:59:23.000Z</time>
      </trkpt>
      <trkpt lat="44.00607" lon="5.12234">
        <ele>181.2</ele>
        <time>2018-11-29T16:59:23.000Z</time>
      </trkpt>
      <trkpt lat="44.00608" lon="5.1223">
        <ele>181</ele>
        <time>2018-11-29T16:59:39.000Z</time>
      </trkpt>
      <trkpt lat="44.0061" lon="5.12225">
        <ele>180.7</ele>
        <time>2018-11-29T16:59:39.000Z</time>
      </trkpt>
      <trkpt lat="44.00609" lon="5.1222">
        <ele>180.5</ele>
        <time>2018-11-29T16:59:39.000Z</time>
      </trkpt>
      <trkpt lat="44.0061" lon="5.12214">
        <ele>180.3</ele>
        <time>2018-11-29T16:59:39.000Z</time>
      </trkpt>
      <trkpt lat="44.00611" lon="5.12207">
        <ele>179.9</ele>
        <time>2018-11-29T16:59:55.000Z</time>
      </trkpt>
      <trkpt lat="44.00612" lon="5.12202">
        <ele>179.7</ele>
        <time>2018-11-29T16:59:55.000Z</time>
      </trkpt>
      <trkpt lat="44.00613" lon="5.12197">
        <ele>179.4</ele>
        <time>2018-11-29T16:59:55.000Z</time>
      </trkpt>
      <trkpt lat="44.00613" lon="5.12193">
        <ele>179.2</ele>
        <time>2018-11-29T16:59:55.000Z</time>
      </trkpt>
      <trkpt lat="44.00613" lon="5.12187">
        <ele>179</ele>
        <time>2018-11-29T17:00:11.000Z</time>
      </trkpt>
      <trkpt lat="44.00614" lon="5.1218">
        <ele>178.7</ele>
        <time>2018-11-29T17:00:11.000Z</time>
      </trkpt>
      <trkpt lat="44.00614" lon="5.12173">
        <ele>178.4</ele>
        <time>2018-11-29T17:00:11.000Z</time>
      </trkpt>
      <trkpt lat="44.00614" lon="5.12168">
        <ele>178.2</ele>
        <time>2018-11-29T17:00:11.000Z</time>
      </trkpt>
      <trkpt lat="44.00615" lon="5.12162">
        <ele>178</ele>
        <time>2018-11-29T17:00:27.000Z</time>
      </trkpt>
      <trkpt lat="44.00615" lon="5.12156">
        <ele>178</ele>
        <time>2018-11-29T17:00:27.000Z</time>
      </trkpt>
      <trkpt lat="44.00617" lon="5.12142">
        <ele>177.7</ele>
        <time>2018-11-29T17:00:27.000Z</time>
      </trkpt>
      <trkpt lat="44.00617" lon="5.12135">
        <ele>177.6</ele>
        <time>2018-11-29T17:00:43.000Z</time>
      </trkpt>
      <trkpt lat="44.00617" lon="5.12125">
        <ele>177.4</ele>
        <time>2018-11-29T17:00:43.000Z</time>
      </trkpt>
      <trkpt lat="44.00618" lon="5.12119">
        <ele>177.4</ele>
        <time>2018-11-29T17:00:43.000Z</time>
      </trkpt>
      <trkpt lat="44.00619" lon="5.12108">
        <ele>177.1</ele>
        <time>2018-11-29T17:00:59.000Z</time>
      </trkpt>
      <trkpt lat="44.00622" lon="5.12094">
        <ele>176.8</ele>
        <time>2018-11-29T17:00:59.000Z</time>
      </trkpt>
      <trkpt lat="44.00623" lon="5.12088">
        <ele>176.7</ele>
        <time>2018-11-29T17:01:15.000Z</time>
      </trkpt>
      <trkpt lat="44.00623" lon="5.12082">
        <ele>176.7</ele>
        <time>2018-11-29T17:01:15.000Z</time>
      </trkpt>
      <trkpt lat="44.00623" lon="5.12077">
        <ele>176.8</ele>
        <time>2018-11-29T17:01:15.000Z</time>
      </trkpt>
      <trkpt lat="44.00624" lon="5.1207">
        <ele>176.9</ele>
        <time>2018-11-29T17:01:15.000Z</time>
      </trkpt>
      <trkpt lat="44.00625" lon="5.12061">
        <ele>177</ele>
        <time>2018-11-29T17:01:31.000Z</time>
      </trkpt>
      <trkpt lat="44.00626" lon="5.12054">
        <ele>177.2</ele>
        <time>2018-11-29T17:01:31.000Z</time>
      </trkpt>
      <trkpt lat="44.00627" lon="5.12048">
        <ele>177.2</ele>
        <time>2018-11-29T17:01:31.000Z</time>
      </trkpt>
      <trkpt lat="44.00629" lon="5.12042">
        <ele>177.3</ele>
        <time>2018-11-29T17:01:31.000Z</time>
      </trkpt>
      <trkpt lat="44.00629" lon="5.12036">
        <ele>177.4</ele>
        <time>2018-11-29T17:01:47.000Z</time>
      </trkpt>
      <trkpt lat="44.0063" lon="5.12029">
        <ele>177.6</ele>
        <time>2018-11-29T17:01:47.000Z</time>
      </trkpt>
      <trkpt lat="44.00632" lon="5.12023">
        <ele>177.7</ele>
        <time>2018-11-29T17:01:47.000Z</time>
      </trkpt>
      <trkpt lat="44.00634" lon="5.12016">
        <ele>177.8</ele>
        <time>2018-11-29T17:02:3.000Z</time>
      </trkpt>
      <trkpt lat="44.00635" lon="5.1201">
        <ele>177.9</ele>
        <time>2018-11-29T17:02:3.000Z</time>
      </trkpt>
      <trkpt lat="44.0064" lon="5.12005">
        <ele>177.8</ele>
        <time>2018-11-29T17:02:3.000Z</time>
      </trkpt>
      <trkpt lat="44.00645" lon="5.12">
        <ele>177.8</ele>
        <time>2018-11-29T17:02:3.000Z</time>
      </trkpt>
      <trkpt lat="44.00648" lon="5.11996">
        <ele>177.7</ele>
        <time>2018-11-29T17:02:19.000Z</time>
      </trkpt>
      <trkpt lat="44.00651" lon="5.11994">
        <ele>177.6</ele>
        <time>2018-11-29T17:02:19.000Z</time>
      </trkpt>
      <trkpt lat="44.00654" lon="5.11992">
        <ele>177.5</ele>
        <time>2018-11-29T17:02:19.000Z</time>
      </trkpt>
      <trkpt lat="44.00657" lon="5.1199">
        <ele>177.4</ele>
        <time>2018-11-29T17:02:19.000Z</time>
      </trkpt>
      <trkpt lat="44.00661" lon="5.11988">
        <ele>177.3</ele>
        <time>2018-11-29T17:02:39.000Z</time>
      </trkpt>
      <trkpt lat="44.00663" lon="5.11987">
        <ele>177.2</ele>
        <time>2018-11-29T17:02:39.000Z</time>
      </trkpt>
      <trkpt lat="44.00666" lon="5.11987">
        <ele>177.2</ele>
        <time>2018-11-29T17:02:39.000Z</time>
      </trkpt>
      <trkpt lat="44.00668" lon="5.11985">
        <ele>177.1</ele>
        <time>2018-11-29T17:02:39.000Z</time>
      </trkpt>
      <trkpt lat="44.00673" lon="5.11984">
        <ele>176.9</ele>
        <time>2018-11-29T17:02:39.000Z</time>
      </trkpt>
      <trkpt lat="44.00679" lon="5.11981">
        <ele>176.6</ele>
        <time>2018-11-29T17:03:19.000Z</time>
      </trkpt>
      <trkpt lat="44.00679" lon="5.11981">
        <ele>176.6</ele>
        <time>2018-11-29T17:03:19.000Z</time>
      </trkpt>
      <trkpt lat="44.00678" lon="5.11978">
        <ele>176.7</ele>
        <time>2018-11-29T17:03:19.000Z</time>
      </trkpt>
      <trkpt lat="44.00678" lon="5.11973">
        <ele>176.8</ele>
        <time>2018-11-29T17:03:19.000Z</time>
      </trkpt>
      <trkpt lat="44.00675" lon="5.11962">
        <ele>177.1</ele>
        <time>2018-11-29T17:03:35.000Z</time>
      </trkpt>
      <trkpt lat="44.00674" lon="5.11957">
        <ele>177.2</ele>
        <time>2018-11-29T17:03:35.000Z</time>
      </trkpt>
      <trkpt lat="44.00673" lon="5.11953">
        <ele>177.3</ele>
        <time>2018-11-29T17:03:35.000Z</time>
      </trkpt>
      <trkpt lat="44.00671" lon="5.11946">
        <ele>177.5</ele>
        <time>2018-11-29T17:03:35.000Z</time>
      </trkpt>
      <trkpt lat="44.00669" lon="5.11938">
        <ele>177.7</ele>
        <time>2018-11-29T17:03:51.000Z</time>
      </trkpt>
      <trkpt lat="44.00668" lon="5.11932">
        <ele>177.8</ele>
        <time>2018-11-29T17:03:51.000Z</time>
      </trkpt>
      <trkpt lat="44.00667" lon="5.11928">
        <ele>177.9</ele>
        <time>2018-11-29T17:03:51.000Z</time>
      </trkpt>
      <trkpt lat="44.00664" lon="5.11922">
        <ele>177.8</ele>
        <time>2018-11-29T17:03:51.000Z</time>
      </trkpt>
      <trkpt lat="44.00662" lon="5.11917">
        <ele>177.8</ele>
        <time>2018-11-29T17:04:7.000Z</time>
      </trkpt>
      <trkpt lat="44.00662" lon="5.11909">
        <ele>177.3</ele>
        <time>2018-11-29T17:04:7.000Z</time>
      </trkpt>
      <trkpt lat="44.0066" lon="5.119">
        <ele>176.8</ele>
        <time>2018-11-29T17:04:7.000Z</time>
      </trkpt>
      <trkpt lat="44.00658" lon="5.11886">
        <ele>175.8</ele>
        <time>2018-11-29T17:04:23.000Z</time>
      </trkpt>
      <trkpt lat="44.00657" lon="5.1188">
        <ele>175.5</ele>
        <time>2018-11-29T17:04:23.000Z</time>
      </trkpt>
      <trkpt lat="44.00656" lon="5.11873">
        <ele>175</ele>
        <time>2018-11-29T17:04:23.000Z</time>
      </trkpt>
      <trkpt lat="44.00655" lon="5.11866">
        <ele>174.6</ele>
        <time>2018-11-29T17:04:23.000Z</time>
      </trkpt>
      <trkpt lat="44.00652" lon="5.11858">
        <ele>174.1</ele>
        <time>2018-11-29T17:04:39.000Z</time>
      </trkpt>
      <trkpt lat="44.0065" lon="5.11851">
        <ele>173.6</ele>
        <time>2018-11-29T17:04:39.000Z</time>
      </trkpt>
      <trkpt lat="44.00648" lon="5.11845">
        <ele>173.2</ele>
        <time>2018-11-29T17:04:39.000Z</time>
      </trkpt>
      <trkpt lat="44.00646" lon="5.11841">
        <ele>172.9</ele>
        <time>2018-11-29T17:04:39.000Z</time>
      </trkpt>
      <trkpt lat="44.00645" lon="5.11836">
        <ele>172.6</ele>
        <time>2018-11-29T17:04:55.000Z</time>
      </trkpt>
      <trkpt lat="44.00644" lon="5.1183">
        <ele>172.1</ele>
        <time>2018-11-29T17:04:55.000Z</time>
      </trkpt>
      <trkpt lat="44.00642" lon="5.11822">
        <ele>171.5</ele>
        <time>2018-11-29T17:04:55.000Z</time>
      </trkpt>
      <trkpt lat="44.00641" lon="5.11814">
        <ele>170.9</ele>
        <time>2018-11-29T17:04:55.000Z</time>
      </trkpt>
      <trkpt lat="44.0064" lon="5.11807">
        <ele>170.4</ele>
        <time>2018-11-29T17:05:11.000Z</time>
      </trkpt>
      <trkpt lat="44.00639" lon="5.11802">
        <ele>170.1</ele>
        <time>2018-11-29T17:05:11.000Z</time>
      </trkpt>
      <trkpt lat="44.00639" lon="5.11797">
        <ele>169.7</ele>
        <time>2018-11-29T17:05:11.000Z</time>
      </trkpt>
      <trkpt lat="44.00638" lon="5.11791">
        <ele>169.2</ele>
        <time>2018-11-29T17:05:11.000Z</time>
      </trkpt>
      <trkpt lat="44.00637" lon="5.11784">
        <ele>168.7</ele>
        <time>2018-11-29T17:05:27.000Z</time>
      </trkpt>
      <trkpt lat="44.00636" lon="5.11776">
        <ele>168.2</ele>
        <time>2018-11-29T17:05:27.000Z</time>
      </trkpt>
      <trkpt lat="44.00635" lon="5.11769">
        <ele>167.8</ele>
        <time>2018-11-29T17:05:27.000Z</time>
      </trkpt>
      <trkpt lat="44.00635" lon="5.11762">
        <ele>167.4</ele>
        <time>2018-11-29T17:05:27.000Z</time>
      </trkpt>
      <trkpt lat="44.00634" lon="5.11757">
        <ele>167</ele>
        <time>2018-11-29T17:05:43.000Z</time>
      </trkpt>
      <trkpt lat="44.00633" lon="5.11753">
        <ele>166.7</ele>
        <time>2018-11-29T17:05:43.000Z</time>
      </trkpt>
      <trkpt lat="44.00634" lon="5.11746">
        <ele>166.5</ele>
        <time>2018-11-29T17:05:43.000Z</time>
      </trkpt>
      <trkpt lat="44.00633" lon="5.1174">
        <ele>166.4</ele>
        <time>2018-11-29T17:05:43.000Z</time>
      </trkpt>
      <trkpt lat="44.0063" lon="5.11732">
        <ele>166.4</ele>
        <time>2018-11-29T17:05:59.000Z</time>
      </trkpt>
      <trkpt lat="44.0063" lon="5.11726">
        <ele>166.3</ele>
        <time>2018-11-29T17:05:59.000Z</time>
      </trkpt>
      <trkpt lat="44.00628" lon="5.1172">
        <ele>166.3</ele>
        <time>2018-11-29T17:05:59.000Z</time>
      </trkpt>
      <trkpt lat="44.00627" lon="5.11714">
        <ele>166.3</ele>
        <time>2018-11-29T17:05:59.000Z</time>
      </trkpt>
      <trkpt lat="44.00627" lon="5.11705">
        <ele>166.1</ele>
        <time>2018-11-29T17:06:15.000Z</time>
      </trkpt>
      <trkpt lat="44.00627" lon="5.11699">
        <ele>165.9</ele>
        <time>2018-11-29T17:06:15.000Z</time>
      </trkpt>
      <trkpt lat="44.00627" lon="5.11696">
        <ele>165.9</ele>
        <time>2018-11-29T17:06:15.000Z</time>
      </trkpt>
      <trkpt lat="44.00627" lon="5.11688">
        <ele>165.8</ele>
        <time>2018-11-29T17:06:31.000Z</time>
      </trkpt>
      <trkpt lat="44.00626" lon="5.11681">
        <ele>165.7</ele>
        <time>2018-11-29T17:06:31.000Z</time>
      </trkpt>
      <trkpt lat="44.00625" lon="5.11673">
        <ele>165.6</ele>
        <time>2018-11-29T17:06:31.000Z</time>
      </trkpt>
      <trkpt lat="44.00625" lon="5.11665">
        <ele>165.5</ele>
        <time>2018-11-29T17:06:31.000Z</time>
      </trkpt>
      <trkpt lat="44.00623" lon="5.11658">
        <ele>165.5</ele>
        <time>2018-11-29T17:06:47.000Z</time>
      </trkpt>
      <trkpt lat="44.00621" lon="5.11653">
        <ele>165.5</ele>
        <time>2018-11-29T17:06:47.000Z</time>
      </trkpt>
      <trkpt lat="44.0062" lon="5.1164">
        <ele>165.3</ele>
        <time>2018-11-29T17:06:47.000Z</time>
      </trkpt>
      <trkpt lat="44.00617" lon="5.11628">
        <ele>165.2</ele>
        <time>2018-11-29T17:07:3.000Z</time>
      </trkpt>
      <trkpt lat="44.00615" lon="5.11622">
        <ele>165.2</ele>
        <time>2018-11-29T17:07:3.000Z</time>
      </trkpt>
      <trkpt lat="44.00614" lon="5.11616">
        <ele>165.2</ele>
        <time>2018-11-29T17:07:3.000Z</time>
      </trkpt>
      <trkpt lat="44.00613" lon="5.11609">
        <ele>165.1</ele>
        <time>2018-11-29T17:07:19.000Z</time>
      </trkpt>
      <trkpt lat="44.00611" lon="5.11602">
        <ele>165</ele>
        <time>2018-11-29T17:07:19.000Z</time>
      </trkpt>
      <trkpt lat="44.0061" lon="5.11595">
        <ele>165</ele>
        <time>2018-11-29T17:07:19.000Z</time>
      </trkpt>
      <trkpt lat="44.00608" lon="5.11589">
        <ele>164.9</ele>
        <time>2018-11-29T17:07:19.000Z</time>
      </trkpt>
      <trkpt lat="44.00606" lon="5.11582">
        <ele>164.9</ele>
        <time>2018-11-29T17:07:35.000Z</time>
      </trkpt>
      <trkpt lat="44.00604" lon="5.11574">
        <ele>164.9</ele>
        <time>2018-11-29T17:07:35.000Z</time>
      </trkpt>
      <trkpt lat="44.00602" lon="5.11568">
        <ele>164.9</ele>
        <time>2018-11-29T17:07:35.000Z</time>
      </trkpt>
      <trkpt lat="44.006" lon="5.11561">
        <ele>165</ele>
        <time>2018-11-29T17:07:51.000Z</time>
      </trkpt>
      <trkpt lat="44.00597" lon="5.11556">
        <ele>165.1</ele>
        <time>2018-11-29T17:07:51.000Z</time>
      </trkpt>
      <trkpt lat="44.00593" lon="5.11551">
        <ele>165.2</ele>
        <time>2018-11-29T17:07:51.000Z</time>
      </trkpt>
      <trkpt lat="44.00593" lon="5.11544">
        <ele>165.1</ele>
        <time>2018-11-29T17:07:51.000Z</time>
      </trkpt>
      <trkpt lat="44.00591" lon="5.11536">
        <ele>165.1</ele>
        <time>2018-11-29T17:08:7.000Z</time>
      </trkpt>
      <trkpt lat="44.00589" lon="5.11529">
        <ele>165.1</ele>
        <time>2018-11-29T17:08:7.000Z</time>
      </trkpt>
      <trkpt lat="44.00589" lon="5.11521">
        <ele>165</ele>
        <time>2018-11-29T17:08:7.000Z</time>
      </trkpt>
      <trkpt lat="44.00588" lon="5.11516">
        <ele>165</ele>
        <time>2018-11-29T17:08:7.000Z</time>
      </trkpt>
      <trkpt lat="44.00587" lon="5.11509">
        <ele>164.9</ele>
        <time>2018-11-29T17:08:23.000Z</time>
      </trkpt>
      <trkpt lat="44.00587" lon="5.11503">
        <ele>164.9</ele>
        <time>2018-11-29T17:08:23.000Z</time>
      </trkpt>
      <trkpt lat="44.00587" lon="5.11495">
        <ele>164.9</ele>
        <time>2018-11-29T17:08:23.000Z</time>
      </trkpt>
      <trkpt lat="44.00585" lon="5.11489">
        <ele>165.1</ele>
        <time>2018-11-29T17:08:23.000Z</time>
      </trkpt>
      <trkpt lat="44.00585" lon="5.11476">
        <ele>165.3</ele>
        <time>2018-11-29T17:08:47.000Z</time>
      </trkpt>
      <trkpt lat="44.00584" lon="5.11475">
        <ele>165.3</ele>
        <time>2018-11-29T17:08:47.000Z</time>
      </trkpt>
      <trkpt lat="44.00584" lon="5.11472">
        <ele>165.3</ele>
        <time>2018-11-29T17:08:47.000Z</time>
      </trkpt>
      <trkpt lat="44.00583" lon="5.11463">
        <ele>165.5</ele>
        <time>2018-11-29T17:08:47.000Z</time>
      </trkpt>
      <trkpt lat="44.0058" lon="5.11452">
        <ele>165.7</ele>
        <time>2018-11-29T17:09:3.000Z</time>
      </trkpt>
      <trkpt lat="44.00577" lon="5.11443">
        <ele>165.8</ele>
        <time>2018-11-29T17:09:3.000Z</time>
      </trkpt>
      <trkpt lat="44.00573" lon="5.11436">
        <ele>166</ele>
        <time>2018-11-29T17:09:3.000Z</time>
      </trkpt>
      <trkpt lat="44.00572" lon="5.1143">
        <ele>166.1</ele>
        <time>2018-11-29T17:09:3.000Z</time>
      </trkpt>
      <trkpt lat="44.00571" lon="5.11425">
        <ele>166.2</ele>
        <time>2018-11-29T17:09:19.000Z</time>
      </trkpt>
      <trkpt lat="44.00572" lon="5.11418">
        <ele>166.3</ele>
        <time>2018-11-29T17:09:19.000Z</time>
      </trkpt>
      <trkpt lat="44.00572" lon="5.11408">
        <ele>166.3</ele>
        <time>2018-11-29T17:09:19.000Z</time>
      </trkpt>
      <trkpt lat="44.0057" lon="5.11402">
        <ele>166.3</ele>
        <time>2018-11-29T17:09:19.000Z</time>
      </trkpt>
      <trkpt lat="44.00568" lon="5.11396">
        <ele>166.4</ele>
        <time>2018-11-29T17:09:35.000Z</time>
      </trkpt>
      <trkpt lat="44.00567" lon="5.11389">
        <ele>166.4</ele>
        <time>2018-11-29T17:09:35.000Z</time>
      </trkpt>
      <trkpt lat="44.00567" lon="5.11384">
        <ele>166.4</ele>
        <time>2018-11-29T17:09:35.000Z</time>
      </trkpt>
      <trkpt lat="44.00565" lon="5.11379">
        <ele>166.4</ele>
        <time>2018-11-29T17:09:35.000Z</time>
      </trkpt>
      <trkpt lat="44.00564" lon="5.11377">
        <ele>166.5</ele>
        <time>2018-11-29T17:09:51.000Z</time>
      </trkpt>
      <trkpt lat="44.00562" lon="5.11372">
        <ele>166.5</ele>
        <time>2018-11-29T17:09:51.000Z</time>
      </trkpt>
      <trkpt lat="44.00558" lon="5.11364">
        <ele>166.6</ele>
        <time>2018-11-29T17:09:51.000Z</time>
      </trkpt>
      <trkpt lat="44.00554" lon="5.11358">
        <ele>166.7</ele>
        <time>2018-11-29T17:09:51.000Z</time>
      </trkpt>
      <trkpt lat="44.00551" lon="5.11348">
        <ele>166.8</ele>
        <time>2018-11-29T17:10:7.000Z</time>
      </trkpt>
      <trkpt lat="44.00548" lon="5.11342">
        <ele>166.8</ele>
        <time>2018-11-29T17:10:7.000Z</time>
      </trkpt>
      <trkpt lat="44.00547" lon="5.11337">
        <ele>166.9</ele>
        <time>2018-11-29T17:10:7.000Z</time>
      </trkpt>
      <trkpt lat="44.00548" lon="5.11333">
        <ele>166.9</ele>
        <time>2018-11-29T17:10:7.000Z</time>
      </trkpt>
      <trkpt lat="44.00547" lon="5.11331">
        <ele>166.9</ele>
        <time>2018-11-29T17:10:23.000Z</time>
      </trkpt>
      <trkpt lat="44.00546" lon="5.11325">
        <ele>167</ele>
        <time>2018-11-29T17:10:23.000Z</time>
      </trkpt>
      <trkpt lat="44.00543" lon="5.11314">
        <ele>167.2</ele>
        <time>2018-11-29T17:10:23.000Z</time>
      </trkpt>
      <trkpt lat="44.00543" lon="5.11306">
        <ele>167.3</ele>
        <time>2018-11-29T17:10:39.000Z</time>
      </trkpt>
      <trkpt lat="44.00543" lon="5.11298">
        <ele>167.4</ele>
        <time>2018-11-29T17:10:39.000Z</time>
      </trkpt>
      <trkpt lat="44.00541" lon="5.11293">
        <ele>167.5</ele>
        <time>2018-11-29T17:10:39.000Z</time>
      </trkpt>
      <trkpt lat="44.0054" lon="5.11285">
        <ele>167.6</ele>
        <time>2018-11-29T17:10:39.000Z</time>
      </trkpt>
      <trkpt lat="44.00538" lon="5.11281">
        <ele>167.7</ele>
        <time>2018-11-29T17:10:55.000Z</time>
      </trkpt>
      <trkpt lat="44.00538" lon="5.11275">
        <ele>167.8</ele>
        <time>2018-11-29T17:10:55.000Z</time>
      </trkpt>
      <trkpt lat="44.00539" lon="5.11267">
        <ele>167.9</ele>
        <time>2018-11-29T17:10:55.000Z</time>
      </trkpt>
      <trkpt lat="44.00538" lon="5.11262">
        <ele>167.9</ele>
        <time>2018-11-29T17:10:55.000Z</time>
      </trkpt>
      <trkpt lat="44.00537" lon="5.11257">
        <ele>168</ele>
        <time>2018-11-29T17:11:11.000Z</time>
      </trkpt>
      <trkpt lat="44.00535" lon="5.11252">
        <ele>168.1</ele>
        <time>2018-11-29T17:11:11.000Z</time>
      </trkpt>
      <trkpt lat="44.00534" lon="5.11246">
        <ele>168.1</ele>
        <time>2018-11-29T17:11:11.000Z</time>
      </trkpt>
      <trkpt lat="44.00531" lon="5.11236">
        <ele>168</ele>
        <time>2018-11-29T17:11:11.000Z</time>
      </trkpt>
      <trkpt lat="44.00531" lon="5.11229">
        <ele>167.8</ele>
        <time>2018-11-29T17:11:27.000Z</time>
      </trkpt>
      <trkpt lat="44.00532" lon="5.11223">
        <ele>167.7</ele>
        <time>2018-11-29T17:11:27.000Z</time>
      </trkpt>
      <trkpt lat="44.00533" lon="5.11216">
        <ele>167.5</ele>
        <time>2018-11-29T17:11:27.000Z</time>
      </trkpt>
      <trkpt lat="44.00536" lon="5.11212">
        <ele>167.4</ele>
        <time>2018-11-29T17:11:27.000Z</time>
      </trkpt>
      <trkpt lat="44.0054" lon="5.11204">
        <ele>167.2</ele>
        <time>2018-11-29T17:11:51.000Z</time>
      </trkpt>
      <trkpt lat="44.00543" lon="5.11202">
        <ele>167.1</ele>
        <time>2018-11-29T17:11:51.000Z</time>
      </trkpt>
      <trkpt lat="44.00545" lon="5.11206">
        <ele>167.1</ele>
        <time>2018-11-29T17:11:51.000Z</time>
      </trkpt>
      <trkpt lat="44.00547" lon="5.1121">
        <ele>167.2</ele>
        <time>2018-11-29T17:11:51.000Z</time>
      </trkpt>
      <trkpt lat="44.00551" lon="5.11211">
        <ele>167.1</ele>
        <time>2018-11-29T17:11:51.000Z</time>
      </trkpt>
      <trkpt lat="44.00554" lon="5.11213">
        <ele>167.1</ele>
        <time>2018-11-29T17:12:11.000Z</time>
      </trkpt>
      <trkpt lat="44.00555" lon="5.11214">
        <ele>167.1</ele>
        <time>2018-11-29T17:12:11.000Z</time>
      </trkpt>
      <trkpt lat="44.00559" lon="5.11214">
        <ele>167</ele>
        <time>2018-11-29T17:12:11.000Z</time>
      </trkpt>
      <trkpt lat="44.0056" lon="5.11216">
        <ele>167</ele>
        <time>2018-11-29T17:12:11.000Z</time>
      </trkpt>
      <trkpt lat="44.00563" lon="5.1122">
        <ele>167</ele>
        <time>2018-11-29T17:12:11.000Z</time>
      </trkpt>
      <trkpt lat="44.00566" lon="5.11219">
        <ele>167</ele>
        <time>2018-11-29T15:05:27.000Z</time>
      </trkpt>
      <trkpt lat="44.00563" lon="5.11219">
        <ele>167</ele>
        <time>2018-11-29T15:05:27.000Z</time>
      </trkpt>
      <trkpt lat="44.00561" lon="5.11216">
        <ele>167</ele>
        <time>2018-11-29T15:05:27.000Z</time>
      </trkpt>
      <trkpt lat="44.00559" lon="5.11214">
        <ele>167</ele>
        <time>2018-11-29T15:05:27.000Z</time>
      </trkpt>
      <trkpt lat="44.00556" lon="5.11211">
        <ele>167</ele>
        <time>2018-11-29T15:05:47.000Z</time>
      </trkpt>
      <trkpt lat="44.00554" lon="5.1121">
        <ele>167</ele>
        <time>2018-11-29T15:05:47.000Z</time>
      </trkpt>
      <trkpt lat="44.00552" lon="5.11209">
        <ele>167.1</ele>
        <time>2018-11-29T15:05:47.000Z</time>
      </trkpt>
      <trkpt lat="44.0055" lon="5.11207">
        <ele>167.1</ele>
        <time>2018-11-29T15:05:47.000Z</time>
      </trkpt>
      <trkpt lat="44.00548" lon="5.11203">
        <ele>167</ele>
        <time>2018-11-29T15:05:47.000Z</time>
      </trkpt>
      <trkpt lat="44.00546" lon="5.11201">
        <ele>167</ele>
        <time>2018-11-29T15:06:3.000Z</time>
      </trkpt>
      <trkpt lat="44.00543" lon="5.11199">
        <ele>167</ele>
        <time>2018-11-29T15:06:3.000Z</time>
      </trkpt>
      <trkpt lat="44.00538" lon="5.11201">
        <ele>167.2</ele>
        <time>2018-11-29T15:06:3.000Z</time>
      </trkpt>
      <trkpt lat="44.00534" lon="5.11206">
        <ele>167.3</ele>
        <time>2018-11-29T15:06:19.000Z</time>
      </trkpt>
      <trkpt lat="44.00534" lon="5.11207">
        <ele>167.4</ele>
        <time>2018-11-29T15:06:19.000Z</time>
      </trkpt>
      <trkpt lat="44.00534" lon="5.11215">
        <ele>167.5</ele>
        <time>2018-11-29T15:06:19.000Z</time>
      </trkpt>
      <trkpt lat="44.00534" lon="5.11219">
        <ele>167.6</ele>
        <time>2018-11-29T15:06:19.000Z</time>
      </trkpt>
      <trkpt lat="44.00534" lon="5.11224">
        <ele>167.7</ele>
        <time>2018-11-29T15:06:35.000Z</time>
      </trkpt>
      <trkpt lat="44.00534" lon="5.11231">
        <ele>167.8</ele>
        <time>2018-11-29T15:06:35.000Z</time>
      </trkpt>
      <trkpt lat="44.00536" lon="5.11239">
        <ele>167.9</ele>
        <time>2018-11-29T15:06:35.000Z</time>
      </trkpt>
      <trkpt lat="44.00536" lon="5.11245">
        <ele>168</ele>
        <time>2018-11-29T15:06:35.000Z</time>
      </trkpt>
      <trkpt lat="44.00536" lon="5.11251">
        <ele>168.1</ele>
        <time>2018-11-29T15:06:51.000Z</time>
      </trkpt>
      <trkpt lat="44.00536" lon="5.11257">
        <ele>168.1</ele>
        <time>2018-11-29T15:06:51.000Z</time>
      </trkpt>
      <trkpt lat="44.00537" lon="5.11268">
        <ele>167.9</ele>
        <time>2018-11-29T15:06:51.000Z</time>
      </trkpt>
      <trkpt lat="44.00541" lon="5.11271">
        <ele>167.8</ele>
        <time>2018-11-29T15:07:7.000Z</time>
      </trkpt>
      <trkpt lat="44.00542" lon="5.11277">
        <ele>167.7</ele>
        <time>2018-11-29T15:07:7.000Z</time>
      </trkpt>
      <trkpt lat="44.00542" lon="5.11283">
        <ele>167.6</ele>
        <time>2018-11-29T15:07:7.000Z</time>
      </trkpt>
      <trkpt lat="44.00543" lon="5.11288">
        <ele>167.5</ele>
        <time>2018-11-29T15:07:7.000Z</time>
      </trkpt>
      <trkpt lat="44.00544" lon="5.11291">
        <ele>167.5</ele>
        <time>2018-11-29T15:07:23.000Z</time>
      </trkpt>
      <trkpt lat="44.00548" lon="5.11298">
        <ele>167.3</ele>
        <time>2018-11-29T15:07:23.000Z</time>
      </trkpt>
      <trkpt lat="44.00549" lon="5.11305">
        <ele>167.2</ele>
        <time>2018-11-29T15:07:23.000Z</time>
      </trkpt>
      <trkpt lat="44.00551" lon="5.1131">
        <ele>167.1</ele>
        <time>2018-11-29T15:07:39.000Z</time>
      </trkpt>
      <trkpt lat="44.0055" lon="5.11318">
        <ele>167</ele>
        <time>2018-11-29T15:07:39.000Z</time>
      </trkpt>
      <trkpt lat="44.0055" lon="5.11324">
        <ele>166.9</ele>
        <time>2018-11-29T15:07:39.000Z</time>
      </trkpt>
      <trkpt lat="44.00548" lon="5.11328">
        <ele>166.9</ele>
        <time>2018-11-29T15:07:39.000Z</time>
      </trkpt>
      <trkpt lat="44.00545" lon="5.11329">
        <ele>167</ele>
        <time>2018-11-29T15:07:55.000Z</time>
      </trkpt>
      <trkpt lat="44.00542" lon="5.11333">
        <ele>167</ele>
        <time>2018-11-29T15:07:55.000Z</time>
      </trkpt>
      <trkpt lat="44.00541" lon="5.11337">
        <ele>167</ele>
        <time>2018-11-29T15:07:55.000Z</time>
      </trkpt>
      <trkpt lat="44.00539" lon="5.1134">
        <ele>167.1</ele>
        <time>2018-11-29T15:07:55.000Z</time>
      </trkpt>
      <trkpt lat="44.00536" lon="5.11344">
        <ele>167.1</ele>
        <time>2018-11-29T15:08:11.000Z</time>
      </trkpt>
      <trkpt lat="44.00532" lon="5.11347">
        <ele>167.2</ele>
        <time>2018-11-29T15:08:11.000Z</time>
      </trkpt>
      <trkpt lat="44.00523" lon="5.11347">
        <ele>167.4</ele>
        <time>2018-11-29T15:08:11.000Z</time>
      </trkpt>
      <trkpt lat="44.00519" lon="5.11346">
        <ele>167.5</ele>
        <time>2018-11-29T15:08:27.000Z</time>
      </trkpt>
      <trkpt lat="44.00516" lon="5.11345">
        <ele>167.6</ele>
        <time>2018-11-29T15:08:27.000Z</time>
      </trkpt>
      <trkpt lat="44.00509" lon="5.11345">
        <ele>167.8</ele>
        <time>2018-11-29T15:08:27.000Z</time>
      </trkpt>
      <trkpt lat="44.00504" lon="5.11345">
        <ele>167.9</ele>
        <time>2018-11-29T15:08:43.000Z</time>
      </trkpt>
      <trkpt lat="44.00498" lon="5.11346">
        <ele>168</ele>
        <time>2018-11-29T15:08:43.000Z</time>
      </trkpt>
      <trkpt lat="44.00493" lon="5.11346">
        <ele>168</ele>
        <time>2018-11-29T15:08:43.000Z</time>
      </trkpt>
      <trkpt lat="44.0049" lon="5.11347">
        <ele>168.1</ele>
        <time>2018-11-29T15:08:43.000Z</time>
      </trkpt>
      <trkpt lat="44.00487" lon="5.11346">
        <ele>168.1</ele>
        <time>2018-11-29T15:08:59.000Z</time>
      </trkpt>
      <trkpt lat="44.00484" lon="5.11345">
        <ele>168.1</ele>
        <time>2018-11-29T15:08:59.000Z</time>
      </trkpt>
      <trkpt lat="44.00477" lon="5.11343">
        <ele>168.1</ele>
        <time>2018-11-29T15:08:59.000Z</time>
      </trkpt>
      <trkpt lat="44.00473" lon="5.11343">
        <ele>168.1</ele>
        <time>2018-11-29T15:09:15.000Z</time>
      </trkpt>
      <trkpt lat="44.00469" lon="5.11341">
        <ele>168.1</ele>
        <time>2018-11-29T15:09:15.000Z</time>
      </trkpt>
      <trkpt lat="44.00466" lon="5.11341">
        <ele>168.1</ele>
        <time>2018-11-29T15:09:15.000Z</time>
      </trkpt>
      <trkpt lat="44.00464" lon="5.11338">
        <ele>168.1</ele>
        <time>2018-11-29T15:09:15.000Z</time>
      </trkpt>
      <trkpt lat="44.00458" lon="5.11336">
        <ele>168</ele>
        <time>2018-11-29T15:09:47.000Z</time>
      </trkpt>
      <trkpt lat="44.00458" lon="5.11335">
        <ele>168</ele>
        <time>2018-11-29T15:09:47.000Z</time>
      </trkpt>
      <trkpt lat="44.00457" lon="5.11333">
        <ele>168</ele>
        <time>2018-11-29T15:09:47.000Z</time>
      </trkpt>
      <trkpt lat="44.00455" lon="5.11329">
        <ele>168.1</ele>
        <time>2018-11-29T15:09:47.000Z</time>
      </trkpt>
      <trkpt lat="44.00453" lon="5.11323">
        <ele>168.1</ele>
        <time>2018-11-29T15:09:47.000Z</time>
      </trkpt>
      <trkpt lat="44.00451" lon="5.11318">
        <ele>168.2</ele>
        <time>2018-11-29T15:10:3.000Z</time>
      </trkpt>
      <trkpt lat="44.0045" lon="5.11313">
        <ele>168.3</ele>
        <time>2018-11-29T15:10:3.000Z</time>
      </trkpt>
      <trkpt lat="44.00449" lon="5.11308">
        <ele>168.3</ele>
        <time>2018-11-29T15:10:3.000Z</time>
      </trkpt>
      <trkpt lat="44.00448" lon="5.11302">
        <ele>168.4</ele>
        <time>2018-11-29T15:10:3.000Z</time>
      </trkpt>
      <trkpt lat="44.00447" lon="5.1129">
        <ele>168.5</ele>
        <time>2018-11-29T15:10:19.000Z</time>
      </trkpt>
      <trkpt lat="44.00446" lon="5.11284">
        <ele>168.6</ele>
        <time>2018-11-29T15:10:19.000Z</time>
      </trkpt>
      <trkpt lat="44.00445" lon="5.11278">
        <ele>168.7</ele>
        <time>2018-11-29T15:10:19.000Z</time>
      </trkpt>
      <trkpt lat="44.00445" lon="5.11264">
        <ele>168.8</ele>
        <time>2018-11-29T15:10:35.000Z</time>
      </trkpt>
      <trkpt lat="44.00444" lon="5.11258">
        <ele>168.9</ele>
        <time>2018-11-29T15:10:35.000Z</time>
      </trkpt>
      <trkpt lat="44.00445" lon="5.11251">
        <ele>169</ele>
        <time>2018-11-29T15:10:35.000Z</time>
      </trkpt>
      <trkpt lat="44.00444" lon="5.11246">
        <ele>169</ele>
        <time>2018-11-29T15:10:51.000Z</time>
      </trkpt>
      <trkpt lat="44.00445" lon="5.11238">
        <ele>168.9</ele>
        <time>2018-11-29T15:10:51.000Z</time>
      </trkpt>
      <trkpt lat="44.00446" lon="5.1123">
        <ele>168.8</ele>
        <time>2018-11-29T15:10:51.000Z</time>
      </trkpt>
      <trkpt lat="44.00449" lon="5.11225">
        <ele>168.8</ele>
        <time>2018-11-29T15:10:51.000Z</time>
      </trkpt>
      <trkpt lat="44.00451" lon="5.11219">
        <ele>168.7</ele>
        <time>2018-11-29T15:11:7.000Z</time>
      </trkpt>
      <trkpt lat="44.00452" lon="5.11214">
        <ele>168.6</ele>
        <time>2018-11-29T15:11:7.000Z</time>
      </trkpt>
      <trkpt lat="44.00453" lon="5.11207">
        <ele>168.6</ele>
        <time>2018-11-29T15:11:7.000Z</time>
      </trkpt>
      <trkpt lat="44.00453" lon="5.11202">
        <ele>168.5</ele>
        <time>2018-11-29T15:11:7.000Z</time>
      </trkpt>
      <trkpt lat="44.00454" lon="5.11196">
        <ele>168.4</ele>
        <time>2018-11-29T15:11:23.000Z</time>
      </trkpt>
      <trkpt lat="44.00453" lon="5.11191">
        <ele>168.4</ele>
        <time>2018-11-29T15:11:23.000Z</time>
      </trkpt>
      <trkpt lat="44.00451" lon="5.11186">
        <ele>168.4</ele>
        <time>2018-11-29T15:11:23.000Z</time>
      </trkpt>
      <trkpt lat="44.0045" lon="5.1118">
        <ele>168.3</ele>
        <time>2018-11-29T15:11:23.000Z</time>
      </trkpt>
      <trkpt lat="44.00448" lon="5.11174">
        <ele>168.3</ele>
        <time>2018-11-29T15:11:39.000Z</time>
      </trkpt>
      <trkpt lat="44.00446" lon="5.11166">
        <ele>168.3</ele>
        <time>2018-11-29T15:11:39.000Z</time>
      </trkpt>
      <trkpt lat="44.00443" lon="5.11162">
        <ele>168.3</ele>
        <time>2018-11-29T15:11:39.000Z</time>
      </trkpt>
      <trkpt lat="44.0044" lon="5.1116">
        <ele>168.3</ele>
        <time>2018-11-29T15:11:39.000Z</time>
      </trkpt>
      <trkpt lat="44.00435" lon="5.11157">
        <ele>168.4</ele>
        <time>2018-11-29T15:11:55.000Z</time>
      </trkpt>
      <trkpt lat="44.00432" lon="5.11157">
        <ele>168.5</ele>
        <time>2018-11-29T15:11:55.000Z</time>
      </trkpt>
      <trkpt lat="44.00428" lon="5.11158">
        <ele>168.6</ele>
        <time>2018-11-29T15:11:55.000Z</time>
      </trkpt>
      <trkpt lat="44.00421" lon="5.11149">
        <ele>168.7</ele>
        <time>2018-11-29T15:12:11.000Z</time>
      </trkpt>
      <trkpt lat="44.00417" lon="5.11147">
        <ele>168.7</ele>
        <time>2018-11-29T15:12:11.000Z</time>
      </trkpt>
      <trkpt lat="44.00412" lon="5.11149">
        <ele>168.9</ele>
        <time>2018-11-29T15:12:11.000Z</time>
      </trkpt>
      <trkpt lat="44.00407" lon="5.1115">
        <ele>169</ele>
        <time>2018-11-29T15:12:11.000Z</time>
      </trkpt>
      <trkpt lat="44.00404" lon="5.11153">
        <ele>169.2</ele>
        <time>2018-11-29T15:12:27.000Z</time>
      </trkpt>
      <trkpt lat="44.00399" lon="5.11155">
        <ele>169.3</ele>
        <time>2018-11-29T15:12:27.000Z</time>
      </trkpt>
      <trkpt lat="44.00393" lon="5.11155">
        <ele>169.5</ele>
        <time>2018-11-29T15:12:27.000Z</time>
      </trkpt>
      <trkpt lat="44.00389" lon="5.11155">
        <ele>169.6</ele>
        <time>2018-11-29T15:12:27.000Z</time>
      </trkpt>
      <trkpt lat="44.00385" lon="5.11155">
        <ele>169.7</ele>
        <time>2018-11-29T15:12:43.000Z</time>
      </trkpt>
      <trkpt lat="44.00376" lon="5.11159">
        <ele>169.9</ele>
        <time>2018-11-29T15:12:43.000Z</time>
      </trkpt>
      <trkpt lat="44.0037" lon="5.11159">
        <ele>170.1</ele>
        <time>2018-11-29T15:12:43.000Z</time>
      </trkpt>
      <trkpt lat="44.00366" lon="5.1116">
        <ele>170.2</ele>
        <time>2018-11-29T15:12:59.000Z</time>
      </trkpt>
      <trkpt lat="44.00362" lon="5.11161">
        <ele>170.3</ele>
        <time>2018-11-29T15:12:59.000Z</time>
      </trkpt>
      <trkpt lat="44.00357" lon="5.1116">
        <ele>170.4</ele>
        <time>2018-11-29T15:12:59.000Z</time>
      </trkpt>
      <trkpt lat="44.00352" lon="5.11161">
        <ele>170.5</ele>
        <time>2018-11-29T15:12:59.000Z</time>
      </trkpt>
      <trkpt lat="44.00346" lon="5.11165">
        <ele>170.7</ele>
        <time>2018-11-29T15:13:15.000Z</time>
      </trkpt>
      <trkpt lat="44.00341" lon="5.11166">
        <ele>170.8</ele>
        <time>2018-11-29T15:13:15.000Z</time>
      </trkpt>
      <trkpt lat="44.00336" lon="5.11167">
        <ele>170.9</ele>
        <time>2018-11-29T15:13:15.000Z</time>
      </trkpt>
      <trkpt lat="44.00331" lon="5.11168">
        <ele>171</ele>
        <time>2018-11-29T15:13:15.000Z</time>
      </trkpt>
      <trkpt lat="44.00328" lon="5.11166">
        <ele>171.1</ele>
        <time>2018-11-29T15:13:31.000Z</time>
      </trkpt>
      <trkpt lat="44.0032" lon="5.11161">
        <ele>171.2</ele>
        <time>2018-11-29T15:13:31.000Z</time>
      </trkpt>
      <trkpt lat="44.00316" lon="5.11158">
        <ele>171.2</ele>
        <time>2018-11-29T15:13:31.000Z</time>
      </trkpt>
      <trkpt lat="44.00313" lon="5.11158">
        <ele>171.3</ele>
        <time>2018-11-29T15:13:47.000Z</time>
      </trkpt>
      <trkpt lat="44.0031" lon="5.11158">
        <ele>171.3</ele>
        <time>2018-11-29T15:13:47.000Z</time>
      </trkpt>
      <trkpt lat="44.00307" lon="5.11159">
        <ele>171.4</ele>
        <time>2018-11-29T15:13:47.000Z</time>
      </trkpt>
      <trkpt lat="44.00302" lon="5.11161">
        <ele>171.4</ele>
        <time>2018-11-29T15:13:47.000Z</time>
      </trkpt>
      <trkpt lat="44.00296" lon="5.11161">
        <ele>171.5</ele>
        <time>2018-11-29T15:14:3.000Z</time>
      </trkpt>
      <trkpt lat="44.00292" lon="5.11161">
        <ele>171.6</ele>
        <time>2018-11-29T15:14:3.000Z</time>
      </trkpt>
      <trkpt lat="44.00286" lon="5.11163">
        <ele>171.6</ele>
        <time>2018-11-29T15:14:3.000Z</time>
      </trkpt>
      <trkpt lat="44.00283" lon="5.11162">
        <ele>171.7</ele>
        <time>2018-11-29T15:14:3.000Z</time>
      </trkpt>
      <trkpt lat="44.00286" lon="5.11161">
        <ele>171.7</ele>
        <time>2018-11-29T15:14:23.000Z</time>
      </trkpt>
      <trkpt lat="44.00284" lon="5.11157">
        <ele>171.7</ele>
        <time>2018-11-29T15:14:23.000Z</time>
      </trkpt>
      <trkpt lat="44.00279" lon="5.11147">
        <ele>172</ele>
        <time>2018-11-29T15:14:23.000Z</time>
      </trkpt>
      <trkpt lat="44.00278" lon="5.11139">
        <ele>172.1</ele>
        <time>2018-11-29T15:14:39.000Z</time>
      </trkpt>
      <trkpt lat="44.00277" lon="5.11133">
        <ele>172.2</ele>
        <time>2018-11-29T15:14:39.000Z</time>
      </trkpt>
      <trkpt lat="44.00277" lon="5.11127">
        <ele>172.3</ele>
        <time>2018-11-29T15:14:39.000Z</time>
      </trkpt>
      <trkpt lat="44.00276" lon="5.11121">
        <ele>172.4</ele>
        <time>2018-11-29T15:14:39.000Z</time>
      </trkpt>
      <trkpt lat="44.00275" lon="5.11116">
        <ele>172.6</ele>
        <time>2018-11-29T15:14:55.000Z</time>
      </trkpt>
      <trkpt lat="44.00273" lon="5.11109">
        <ele>172.7</ele>
        <time>2018-11-29T15:14:55.000Z</time>
      </trkpt>
      <trkpt lat="44.00271" lon="5.11102">
        <ele>172.9</ele>
        <time>2018-11-29T15:14:55.000Z</time>
      </trkpt>
      <trkpt lat="44.00269" lon="5.11097">
        <ele>173.1</ele>
        <time>2018-11-29T15:14:55.000Z</time>
      </trkpt>
      <trkpt lat="44.00269" lon="5.11091">
        <ele>173.2</ele>
        <time>2018-11-29T15:15:11.000Z</time>
      </trkpt>
      <trkpt lat="44.0027" lon="5.11085">
        <ele>173.3</ele>
        <time>2018-11-29T15:15:11.000Z</time>
      </trkpt>
      <trkpt lat="44.0027" lon="5.11079">
        <ele>172.9</ele>
        <time>2018-11-29T15:15:11.000Z</time>
      </trkpt>
      <trkpt lat="44.00271" lon="5.11073">
        <ele>172.5</ele>
        <time>2018-11-29T15:15:11.000Z</time>
      </trkpt>
      <trkpt lat="44.0027" lon="5.11068">
        <ele>172.1</ele>
        <time>2018-11-29T15:15:27.000Z</time>
      </trkpt>
      <trkpt lat="44.0027" lon="5.11061">
        <ele>171.6</ele>
        <time>2018-11-29T15:15:27.000Z</time>
      </trkpt>
      <trkpt lat="44.0027" lon="5.11053">
        <ele>171.1</ele>
        <time>2018-11-29T15:15:27.000Z</time>
      </trkpt>
      <trkpt lat="44.00268" lon="5.11047">
        <ele>170.7</ele>
        <time>2018-11-29T15:15:27.000Z</time>
      </trkpt>
      <trkpt lat="44.00266" lon="5.11041">
        <ele>170.4</ele>
        <time>2018-11-29T15:15:43.000Z</time>
      </trkpt>
      <trkpt lat="44.00265" lon="5.11037">
        <ele>170.1</ele>
        <time>2018-11-29T15:15:43.000Z</time>
      </trkpt>
      <trkpt lat="44.00262" lon="5.11032">
        <ele>169.8</ele>
        <time>2018-11-29T15:15:43.000Z</time>
      </trkpt>
      <trkpt lat="44.00258" lon="5.11022">
        <ele>169.3</ele>
        <time>2018-11-29T15:15:59.000Z</time>
      </trkpt>
      <trkpt lat="44.00254" lon="5.11017">
        <ele>169</ele>
        <time>2018-11-29T15:15:59.000Z</time>
      </trkpt>
      <trkpt lat="44.00249" lon="5.11009">
        <ele>168.7</ele>
        <time>2018-11-29T15:15:59.000Z</time>
      </trkpt>
      <trkpt lat="44.00246" lon="5.11007">
        <ele>168.7</ele>
        <time>2018-11-29T15:16:19.000Z</time>
      </trkpt>
      <trkpt lat="44.00244" lon="5.11003">
        <ele>168.6</ele>
        <time>2018-11-29T15:16:19.000Z</time>
      </trkpt>
      <trkpt lat="44.00243" lon="5.11001">
        <ele>168.6</ele>
        <time>2018-11-29T15:16:19.000Z</time>
      </trkpt>
      <trkpt lat="44.0024" lon="5.11002">
        <ele>168.8</ele>
        <time>2018-11-29T15:16:19.000Z</time>
      </trkpt>
      <trkpt lat="44.00237" lon="5.11004">
        <ele>169.2</ele>
        <time>2018-11-29T15:16:19.000Z</time>
      </trkpt>
      <trkpt lat="44.00233" lon="5.11005">
        <ele>169.4</ele>
        <time>2018-11-29T15:16:35.000Z</time>
      </trkpt>
      <trkpt lat="44.0023" lon="5.11007">
        <ele>169.8</ele>
        <time>2018-11-29T15:16:35.000Z</time>
      </trkpt>
      <trkpt lat="44.00227" lon="5.11009">
        <ele>170</ele>
        <time>2018-11-29T15:16:35.000Z</time>
      </trkpt>
      <trkpt lat="44.00223" lon="5.11011">
        <ele>170.3</ele>
        <time>2018-11-29T15:16:35.000Z</time>
      </trkpt>
      <trkpt lat="44.00215" lon="5.11016">
        <ele>170.9</ele>
        <time>2018-11-29T15:16:51.000Z</time>
      </trkpt>
      <trkpt lat="44.00211" lon="5.11018">
        <ele>171.2</ele>
        <time>2018-11-29T15:16:51.000Z</time>
      </trkpt>
      <trkpt lat="44.00206" lon="5.1102">
        <ele>171.4</ele>
        <time>2018-11-29T15:16:51.000Z</time>
      </trkpt>
      <trkpt lat="44.00202" lon="5.11021">
        <ele>171.6</ele>
        <time>2018-11-29T15:17:7.000Z</time>
      </trkpt>
      <trkpt lat="44.00199" lon="5.11022">
        <ele>171.8</ele>
        <time>2018-11-29T15:17:7.000Z</time>
      </trkpt>
      <trkpt lat="44.0019" lon="5.11022">
        <ele>172.2</ele>
        <time>2018-11-29T15:17:7.000Z</time>
      </trkpt>
      <trkpt lat="44.00187" lon="5.1102">
        <ele>172.4</ele>
        <time>2018-11-29T15:17:23.000Z</time>
      </trkpt>
      <trkpt lat="44.00183" lon="5.11018">
        <ele>172.5</ele>
        <time>2018-11-29T15:17:23.000Z</time>
      </trkpt>
      <trkpt lat="44.0018" lon="5.11017">
        <ele>172.7</ele>
        <time>2018-11-29T15:17:23.000Z</time>
      </trkpt>
      <trkpt lat="44.00177" lon="5.11016">
        <ele>172.9</ele>
        <time>2018-11-29T15:17:23.000Z</time>
      </trkpt>
      <trkpt lat="44.00174" lon="5.11013">
        <ele>173.1</ele>
        <time>2018-11-29T15:17:43.000Z</time>
      </trkpt>
      <trkpt lat="44.0017" lon="5.11013">
        <ele>173.4</ele>
        <time>2018-11-29T15:17:43.000Z</time>
      </trkpt>
      <trkpt lat="44.00168" lon="5.11013">
        <ele>173.5</ele>
        <time>2018-11-29T15:17:43.000Z</time>
      </trkpt>
      <trkpt lat="44.00164" lon="5.11013">
        <ele>173.8</ele>
        <time>2018-11-29T15:17:43.000Z</time>
      </trkpt>
      <trkpt lat="44.00161" lon="5.11012">
        <ele>174.3</ele>
        <time>2018-11-29T15:17:59.000Z</time>
      </trkpt>
      <trkpt lat="44.00157" lon="5.11011">
        <ele>174.8</ele>
        <time>2018-11-29T15:17:59.000Z</time>
      </trkpt>
      <trkpt lat="44.00154" lon="5.11012">
        <ele>175.2</ele>
        <time>2018-11-29T15:17:59.000Z</time>
      </trkpt>
      <trkpt lat="44.00145" lon="5.11015">
        <ele>176.2</ele>
        <time>2018-11-29T15:18:15.000Z</time>
      </trkpt>
      <trkpt lat="44.00141" lon="5.11015">
        <ele>176.6</ele>
        <time>2018-11-29T15:18:15.000Z</time>
      </trkpt>
      <trkpt lat="44.00138" lon="5.11015">
        <ele>177</ele>
        <time>2018-11-29T15:18:15.000Z</time>
      </trkpt>
      <trkpt lat="44.00135" lon="5.11016">
        <ele>177.3</ele>
        <time>2018-11-29T15:18:15.000Z</time>
      </trkpt>
      <trkpt lat="44.00132" lon="5.11015">
        <ele>177.8</ele>
        <time>2018-11-29T15:18:31.000Z</time>
      </trkpt>
      <trkpt lat="44.00121" lon="5.11014">
        <ele>179.1</ele>
        <time>2018-11-29T15:18:31.000Z</time>
      </trkpt>
      <trkpt lat="44.00119" lon="5.11015">
        <ele>179.4</ele>
        <time>2018-11-29T15:18:47.000Z</time>
      </trkpt>
      <trkpt lat="44.00115" lon="5.11014">
        <ele>180</ele>
        <time>2018-11-29T15:18:47.000Z</time>
      </trkpt>
      <trkpt lat="44.0011" lon="5.11016">
        <ele>180.3</ele>
        <time>2018-11-29T15:18:47.000Z</time>
      </trkpt>
      <trkpt lat="44.00107" lon="5.11019">
        <ele>180.4</ele>
        <time>2018-11-29T15:18:47.000Z</time>
      </trkpt>
      <trkpt lat="44.00105" lon="5.11023">
        <ele>180.1</ele>
        <time>2018-11-29T15:19:3.000Z</time>
      </trkpt>
      <trkpt lat="44.00101" lon="5.11026">
        <ele>180.2</ele>
        <time>2018-11-29T15:19:3.000Z</time>
      </trkpt>
      <trkpt lat="44.00097" lon="5.11027">
        <ele>180.3</ele>
        <time>2018-11-29T15:19:3.000Z</time>
      </trkpt>
      <trkpt lat="44.00094" lon="5.11031">
        <ele>180.2</ele>
        <time>2018-11-29T15:19:3.000Z</time>
      </trkpt>
      <trkpt lat="44.00092" lon="5.11033">
        <ele>180.1</ele>
        <time>2018-11-29T15:19:19.000Z</time>
      </trkpt>
      <trkpt lat="44.00089" lon="5.11035">
        <ele>180</ele>
        <time>2018-11-29T15:19:19.000Z</time>
      </trkpt>
      <trkpt lat="44.00086" lon="5.1104">
        <ele>179.6</ele>
        <time>2018-11-29T15:19:19.000Z</time>
      </trkpt>
      <trkpt lat="44.00084" lon="5.11043">
        <ele>179.3</ele>
        <time>2018-11-29T15:19:19.000Z</time>
      </trkpt>
      <trkpt lat="44.0008" lon="5.11045">
        <ele>179.3</ele>
        <time>2018-11-29T15:19:35.000Z</time>
      </trkpt>
      <trkpt lat="44.00077" lon="5.11046">
        <ele>179.3</ele>
        <time>2018-11-29T15:19:35.000Z</time>
      </trkpt>
      <trkpt lat="44.00074" lon="5.11047">
        <ele>179.3</ele>
        <time>2018-11-29T15:19:35.000Z</time>
      </trkpt>
      <trkpt lat="44.00068" lon="5.11045">
        <ele>179.9</ele>
        <time>2018-11-29T15:19:35.000Z</time>
      </trkpt>
      <trkpt lat="44.00064" lon="5.11045">
        <ele>180.1</ele>
        <time>2018-11-29T15:19:55.000Z</time>
      </trkpt>
      <trkpt lat="44.0006" lon="5.11048">
        <ele>179.9</ele>
        <time>2018-11-29T15:19:55.000Z</time>
      </trkpt>
      <trkpt lat="44.00059" lon="5.11051">
        <ele>179.4</ele>
        <time>2018-11-29T15:19:55.000Z</time>
      </trkpt>
      <trkpt lat="44.00058" lon="5.11054">
        <ele>179.1</ele>
        <time>2018-11-29T15:19:55.000Z</time>
      </trkpt>
      <trkpt lat="44.00057" lon="5.11055">
        <ele>179</ele>
        <time>2018-11-29T15:19:55.000Z</time>
      </trkpt>
      <trkpt lat="44.00055" lon="5.11056">
        <ele>178.9</ele>
        <time>2018-11-29T15:20:11.000Z</time>
      </trkpt>
      <trkpt lat="44.00053" lon="5.11057">
        <ele>178.9</ele>
        <time>2018-11-29T15:20:11.000Z</time>
      </trkpt>
      <trkpt lat="44.00049" lon="5.11057">
        <ele>179.2</ele>
        <time>2018-11-29T15:20:11.000Z</time>
      </trkpt>
      <trkpt lat="44.00045" lon="5.11058">
        <ele>179.2</ele>
        <time>2018-11-29T15:20:11.000Z</time>
      </trkpt>
      <trkpt lat="44.00044" lon="5.11059">
        <ele>179.1</ele>
        <time>2018-11-29T15:20:35.000Z</time>
      </trkpt>
      <trkpt lat="44.0004" lon="5.11062">
        <ele>178.9</ele>
        <time>2018-11-29T15:20:35.000Z</time>
      </trkpt>
      <trkpt lat="44.00037" lon="5.11061">
        <ele>179.2</ele>
        <time>2018-11-29T15:20:35.000Z</time>
      </trkpt>
      <trkpt lat="44.00032" lon="5.11065">
        <ele>178.9</ele>
        <time>2018-11-29T15:20:35.000Z</time>
      </trkpt>
      <trkpt lat="44.00029" lon="5.11066">
        <ele>178.9</ele>
        <time>2018-11-29T15:21:3.000Z</time>
      </trkpt>
      <trkpt lat="44.00026" lon="5.11068">
        <ele>178.8</ele>
        <time>2018-11-29T15:21:3.000Z</time>
      </trkpt>
      <trkpt lat="44.00015" lon="5.11072">
        <ele>178.8</ele>
        <time>2018-11-29T15:21:3.000Z</time>
      </trkpt>
      <trkpt lat="44.00009" lon="5.11075">
        <ele>178.7</ele>
        <time>2018-11-29T15:21:3.000Z</time>
      </trkpt>
      <trkpt lat="44" lon="5.11079">
        <ele>178.7</ele>
        <time>2018-11-29T15:22:51.000Z</time>
      </trkpt>
      <trkpt lat="43.99999" lon="5.1108">
        <ele>178.7</ele>
        <time>2018-11-29T15:22:51.000Z</time>
      </trkpt>
      <trkpt lat="43.99994" lon="5.11082">
        <ele>178.9</ele>
        <time>2018-11-29T15:22:51.000Z</time>
      </trkpt>
      <trkpt lat="43.99991" lon="5.11084">
        <ele>179.1</ele>
        <time>2018-11-29T15:22:51.000Z</time>
      </trkpt>
      <trkpt lat="43.99988" lon="5.11084">
        <ele>179.4</ele>
        <time>2018-11-29T15:23:19.000Z</time>
      </trkpt>
      <trkpt lat="43.99985" lon="5.11084">
        <ele>179.7</ele>
        <time>2018-11-29T15:23:19.000Z</time>
      </trkpt>
      <trkpt lat="43.9998" lon="5.11087">
        <ele>180.2</ele>
        <time>2018-11-29T15:23:19.000Z</time>
      </trkpt>
      <trkpt lat="43.99972" lon="5.11092">
        <ele>180.9</ele>
        <time>2018-11-29T15:23:19.000Z</time>
      </trkpt>
      <trkpt lat="43.9997" lon="5.11093">
        <ele>181.1</ele>
        <time>2018-11-29T15:23:43.000Z</time>
      </trkpt>
      <trkpt lat="43.99964" lon="5.11095">
        <ele>181.7</ele>
        <time>2018-11-29T15:23:43.000Z</time>
      </trkpt>
      <trkpt lat="43.99959" lon="5.11098">
        <ele>182.2</ele>
        <time>2018-11-29T15:23:43.000Z</time>
      </trkpt>
      <trkpt lat="43.99954" lon="5.11101">
        <ele>182.5</ele>
        <time>2018-11-29T15:23:43.000Z</time>
      </trkpt>
      <trkpt lat="43.99953" lon="5.11102">
        <ele>182.6</ele>
        <time>2018-11-29T15:24:7.000Z</time>
      </trkpt>
      <trkpt lat="43.9994" lon="5.11109">
        <ele>183.8</ele>
        <time>2018-11-29T15:24:7.000Z</time>
      </trkpt>
      <trkpt lat="43.99933" lon="5.11112">
        <ele>184.5</ele>
        <time>2018-11-29T15:24:7.000Z</time>
      </trkpt>
      <trkpt lat="43.99925" lon="5.11118">
        <ele>185</ele>
        <time>2018-11-29T15:24:23.000Z</time>
      </trkpt>
      <trkpt lat="43.99922" lon="5.11122">
        <ele>185.1</ele>
        <time>2018-11-29T15:24:23.000Z</time>
      </trkpt>
      <trkpt lat="43.99919" lon="5.11127">
        <ele>185.1</ele>
        <time>2018-11-29T15:24:23.000Z</time>
      </trkpt>
      <trkpt lat="43.99917" lon="5.11129">
        <ele>185.2</ele>
        <time>2018-11-29T15:24:47.000Z</time>
      </trkpt>
      <trkpt lat="43.99912" lon="5.11135">
        <ele>185.3</ele>
        <time>2018-11-29T15:24:47.000Z</time>
      </trkpt>
      <trkpt lat="43.9991" lon="5.11136">
        <ele>185.3</ele>
        <time>2018-11-29T15:24:47.000Z</time>
      </trkpt>
      <trkpt lat="43.99901" lon="5.11144">
        <ele>185.1</ele>
        <time>2018-11-29T15:24:47.000Z</time>
      </trkpt>
      <trkpt lat="43.99895" lon="5.11147">
        <ele>185.1</ele>
        <time>2018-11-29T15:25:7.000Z</time>
      </trkpt>
      <trkpt lat="43.9989" lon="5.11147">
        <ele>185.4</ele>
        <time>2018-11-29T15:25:7.000Z</time>
      </trkpt>
      <trkpt lat="43.99888" lon="5.11147">
        <ele>185.5</ele>
        <time>2018-11-29T15:25:7.000Z</time>
      </trkpt>
      <trkpt lat="43.99887" lon="5.11148">
        <ele>185.4</ele>
        <time>2018-11-29T15:25:7.000Z</time>
      </trkpt>
      <trkpt lat="43.99882" lon="5.1115">
        <ele>185.4</ele>
        <time>2018-11-29T15:25:7.000Z</time>
      </trkpt>
      <trkpt lat="43.99879" lon="5.11151">
        <ele>185.4</ele>
        <time>2018-11-29T15:25:31.000Z</time>
      </trkpt>
      <trkpt lat="43.99879" lon="5.11151">
        <ele>185.4</ele>
        <time>2018-11-29T15:25:31.000Z</time>
      </trkpt>
      <trkpt lat="43.99876" lon="5.1115">
        <ele>185.6</ele>
        <time>2018-11-29T15:25:31.000Z</time>
      </trkpt>
      <trkpt lat="43.99873" lon="5.11149">
        <ele>185.8</ele>
        <time>2018-11-29T15:25:31.000Z</time>
      </trkpt>
      <trkpt lat="43.99869" lon="5.11151">
        <ele>185.8</ele>
        <time>2018-11-29T15:25:31.000Z</time>
      </trkpt>
      <trkpt lat="43.99866" lon="5.11148">
        <ele>186.2</ele>
        <time>2018-11-29T15:25:47.000Z</time>
      </trkpt>
      <trkpt lat="43.99861" lon="5.11148">
        <ele>186.5</ele>
        <time>2018-11-29T15:25:47.000Z</time>
      </trkpt>
      <trkpt lat="43.99857" lon="5.11149">
        <ele>186.5</ele>
        <time>2018-11-29T15:25:47.000Z</time>
      </trkpt>
      <trkpt lat="43.99852" lon="5.1115">
        <ele>186.5</ele>
        <time>2018-11-29T15:25:47.000Z</time>
      </trkpt>
      <trkpt lat="43.99847" lon="5.11151">
        <ele>186.5</ele>
        <time>2018-11-29T15:26:3.000Z</time>
      </trkpt>
      <trkpt lat="43.99839" lon="5.11151">
        <ele>186.8</ele>
        <time>2018-11-29T15:26:3.000Z</time>
      </trkpt>
      <trkpt lat="43.99835" lon="5.11152">
        <ele>186.9</ele>
        <time>2018-11-29T15:26:3.000Z</time>
      </trkpt>
      <trkpt lat="43.99828" lon="5.11149">
        <ele>187.8</ele>
        <time>2018-11-29T15:26:19.000Z</time>
      </trkpt>
      <trkpt lat="43.99824" lon="5.11148">
        <ele>188.1</ele>
        <time>2018-11-29T15:26:19.000Z</time>
      </trkpt>
      <trkpt lat="43.99819" lon="5.11148">
        <ele>188.3</ele>
        <time>2018-11-29T15:26:19.000Z</time>
      </trkpt>
      <trkpt lat="43.99815" lon="5.11149">
        <ele>188.4</ele>
        <time>2018-11-29T15:26:35.000Z</time>
      </trkpt>
      <trkpt lat="43.99811" lon="5.11148">
        <ele>188.6</ele>
        <time>2018-11-29T15:26:35.000Z</time>
      </trkpt>
      <trkpt lat="43.99808" lon="5.11147">
        <ele>189.1</ele>
        <time>2018-11-29T15:26:35.000Z</time>
      </trkpt>
      <trkpt lat="43.99805" lon="5.11146">
        <ele>189.3</ele>
        <time>2018-11-29T15:26:35.000Z</time>
      </trkpt>
      <trkpt lat="43.99802" lon="5.11145">
        <ele>189.6</ele>
        <time>2018-11-29T15:26:51.000Z</time>
      </trkpt>
      <trkpt lat="43.99791" lon="5.11143">
        <ele>190.6</ele>
        <time>2018-11-29T15:26:51.000Z</time>
      </trkpt>
      <trkpt lat="43.99785" lon="5.11143">
        <ele>190.8</ele>
        <time>2018-11-29T15:26:51.000Z</time>
      </trkpt>
      <trkpt lat="43.99781" lon="5.11143">
        <ele>191.1</ele>
        <time>2018-11-29T15:27:7.000Z</time>
      </trkpt>
      <trkpt lat="43.99776" lon="5.11144">
        <ele>191</ele>
        <time>2018-11-29T15:27:7.000Z</time>
      </trkpt>
      <trkpt lat="43.99772" lon="5.11145">
        <ele>190.9</ele>
        <time>2018-11-29T15:27:7.000Z</time>
      </trkpt>
      <trkpt lat="43.99769" lon="5.11146">
        <ele>191.1</ele>
        <time>2018-11-29T15:27:7.000Z</time>
      </trkpt>
      <trkpt lat="43.99764" lon="5.11146">
        <ele>191.2</ele>
        <time>2018-11-29T15:27:23.000Z</time>
      </trkpt>
      <trkpt lat="43.9976" lon="5.11147">
        <ele>191.2</ele>
        <time>2018-11-29T15:27:23.000Z</time>
      </trkpt>
      <trkpt lat="43.99755" lon="5.11148">
        <ele>191</ele>
        <time>2018-11-29T15:27:23.000Z</time>
      </trkpt>
      <trkpt lat="43.99748" lon="5.11149">
        <ele>191.3</ele>
        <time>2018-11-29T15:27:39.000Z</time>
      </trkpt>
      <trkpt lat="43.99744" lon="5.1115">
        <ele>191.2</ele>
        <time>2018-11-29T15:27:39.000Z</time>
      </trkpt>
      <trkpt lat="43.9974" lon="5.11149">
        <ele>191.5</ele>
        <time>2018-11-29T15:27:39.000Z</time>
      </trkpt>
      <trkpt lat="43.99736" lon="5.1115">
        <ele>191.3</ele>
        <time>2018-11-29T15:27:39.000Z</time>
      </trkpt>
      <trkpt lat="43.99727" lon="5.11151">
        <ele>191.4</ele>
        <time>2018-11-29T15:27:55.000Z</time>
      </trkpt>
      <trkpt lat="43.99722" lon="5.11152">
        <ele>191.4</ele>
        <time>2018-11-29T15:27:55.000Z</time>
      </trkpt>
      <trkpt lat="43.99718" lon="5.11151">
        <ele>191.7</ele>
        <time>2018-11-29T15:27:55.000Z</time>
      </trkpt>
      <trkpt lat="43.9971" lon="5.11146">
        <ele>193.1</ele>
        <time>2018-11-29T15:28:11.000Z</time>
      </trkpt>
      <trkpt lat="43.99706" lon="5.11143">
        <ele>194</ele>
        <time>2018-11-29T15:28:11.000Z</time>
      </trkpt>
      <trkpt lat="43.99703" lon="5.11138">
        <ele>195</ele>
        <time>2018-11-29T15:28:11.000Z</time>
      </trkpt>
      <trkpt lat="43.99696" lon="5.11135">
        <ele>196</ele>
        <time>2018-11-29T15:28:39.000Z</time>
      </trkpt>
      <trkpt lat="43.99695" lon="5.11132">
        <ele>196.8</ele>
        <time>2018-11-29T15:28:39.000Z</time>
      </trkpt>
      <trkpt lat="43.99694" lon="5.1113">
        <ele>197.1</ele>
        <time>2018-11-29T15:28:39.000Z</time>
      </trkpt>
      <trkpt lat="43.99694" lon="5.11129">
        <ele>197.4</ele>
        <time>2018-11-29T15:28:39.000Z</time>
      </trkpt>
      <trkpt lat="43.99693" lon="5.11122">
        <ele>199</ele>
        <time>2018-11-29T15:28:39.000Z</time>
      </trkpt>
      <trkpt lat="43.99692" lon="5.11118">
        <ele>199.9</ele>
        <time>2018-11-29T15:29:15.000Z</time>
      </trkpt>
      <trkpt lat="43.9969" lon="5.1111">
        <ele>201.8</ele>
        <time>2018-11-29T15:29:15.000Z</time>
      </trkpt>
      <trkpt lat="43.99689" lon="5.11106">
        <ele>202.5</ele>
        <time>2018-11-29T15:29:15.000Z</time>
      </trkpt>
      <trkpt lat="43.99688" lon="5.11102">
        <ele>203.4</ele>
        <time>2018-11-29T15:29:15.000Z</time>
      </trkpt>
      <trkpt lat="43.99685" lon="5.11095">
        <ele>205.1</ele>
        <time>2018-11-29T15:29:47.000Z</time>
      </trkpt>
      <trkpt lat="43.99683" lon="5.11089">
        <ele>206.6</ele>
        <time>2018-11-29T15:29:47.000Z</time>
      </trkpt>
      <trkpt lat="43.9968" lon="5.11079">
        <ele>208.1</ele>
        <time>2018-11-29T15:29:47.000Z</time>
      </trkpt>
      <trkpt lat="43.99674" lon="5.11068">
        <ele>209.2</ele>
        <time>2018-11-29T15:29:47.000Z</time>
      </trkpt>
      <trkpt lat="43.99672" lon="5.11066">
        <ele>209.4</ele>
        <time>2018-11-29T15:30:3.000Z</time>
      </trkpt>
      <trkpt lat="43.99669" lon="5.11062">
        <ele>209.8</ele>
        <time>2018-11-29T15:30:3.000Z</time>
      </trkpt>
      <trkpt lat="43.99668" lon="5.1106">
        <ele>210</ele>
        <time>2018-11-29T15:30:3.000Z</time>
      </trkpt>
      <trkpt lat="43.99666" lon="5.1105">
        <ele>210.8</ele>
        <time>2018-11-29T15:30:19.000Z</time>
      </trkpt>
      <trkpt lat="43.99664" lon="5.11045">
        <ele>211.1</ele>
        <time>2018-11-29T15:30:19.000Z</time>
      </trkpt>
      <trkpt lat="43.99663" lon="5.11039">
        <ele>211.5</ele>
        <time>2018-11-29T15:30:19.000Z</time>
      </trkpt>
      <trkpt lat="43.99662" lon="5.11036">
        <ele>211.7</ele>
        <time>2018-11-29T15:30:19.000Z</time>
      </trkpt>
      <trkpt lat="43.99659" lon="5.11031">
        <ele>211.9</ele>
        <time>2018-11-29T15:30:43.000Z</time>
      </trkpt>
      <trkpt lat="43.99656" lon="5.11028">
        <ele>212</ele>
        <time>2018-11-29T15:30:43.000Z</time>
      </trkpt>
      <trkpt lat="43.99655" lon="5.11027">
        <ele>212</ele>
        <time>2018-11-29T15:30:43.000Z</time>
      </trkpt>
      <trkpt lat="43.99652" lon="5.11026">
        <ele>212</ele>
        <time>2018-11-29T15:30:43.000Z</time>
      </trkpt>
      <trkpt lat="43.9965" lon="5.11026">
        <ele>211.8</ele>
        <time>2018-11-29T15:30:43.000Z</time>
      </trkpt>
      <trkpt lat="43.99646" lon="5.11027">
        <ele>211.6</ele>
        <time>2018-11-29T15:31:47.000Z</time>
      </trkpt>
      <trkpt lat="43.99638" lon="5.11019">
        <ele>211.8</ele>
        <time>2018-11-29T15:31:47.000Z</time>
      </trkpt>
      <trkpt lat="43.99635" lon="5.11016">
        <ele>212</ele>
        <time>2018-11-29T15:31:47.000Z</time>
      </trkpt>
      <trkpt lat="43.99626" lon="5.11015">
        <ele>211.6</ele>
        <time>2018-11-29T15:31:47.000Z</time>
      </trkpt>
      <trkpt lat="43.99621" lon="5.11016">
        <ele>211.2</ele>
        <time>2018-11-29T15:36:31.000Z</time>
      </trkpt>
      <trkpt lat="43.9962" lon="5.11015">
        <ele>211.2</ele>
        <time>2018-11-29T15:36:31.000Z</time>
      </trkpt>
      <trkpt lat="43.99618" lon="5.11016">
        <ele>211.1</ele>
        <time>2018-11-29T15:36:31.000Z</time>
      </trkpt>
      <trkpt lat="43.99609" lon="5.11023">
        <ele>209.8</ele>
        <time>2018-11-29T15:36:31.000Z</time>
      </trkpt>
      <trkpt lat="43.996" lon="5.11029">
        <ele>208.6</ele>
        <time>2018-11-29T15:36:51.000Z</time>
      </trkpt>
      <trkpt lat="43.99599" lon="5.1103">
        <ele>208.4</ele>
        <time>2018-11-29T15:36:51.000Z</time>
      </trkpt>
      <trkpt lat="43.99594" lon="5.11035">
        <ele>207.5</ele>
        <time>2018-11-29T15:36:51.000Z</time>
      </trkpt>
      <trkpt lat="43.99588" lon="5.11044">
        <ele>206.1</ele>
        <time>2018-11-29T15:36:51.000Z</time>
      </trkpt>
      <trkpt lat="43.99587" lon="5.11045">
        <ele>205.9</ele>
        <time>2018-11-29T15:37:23.000Z</time>
      </trkpt>
      <trkpt lat="43.99584" lon="5.11047">
        <ele>205.5</ele>
        <time>2018-11-29T15:37:23.000Z</time>
      </trkpt>
      <trkpt lat="43.9957" lon="5.11058">
        <ele>204.9</ele>
        <time>2018-11-29T15:37:23.000Z</time>
      </trkpt>
      <trkpt lat="43.99562" lon="5.11065">
        <ele>204.5</ele>
        <time>2018-11-29T15:37:39.000Z</time>
      </trkpt>
      <trkpt lat="43.99555" lon="5.11072">
        <ele>204.1</ele>
        <time>2018-11-29T15:37:39.000Z</time>
      </trkpt>
      <trkpt lat="43.99553" lon="5.11075">
        <ele>203.9</ele>
        <time>2018-11-29T15:37:39.000Z</time>
      </trkpt>
      <trkpt lat="43.99546" lon="5.11081">
        <ele>203.6</ele>
        <time>2018-11-29T15:38:11.000Z</time>
      </trkpt>
      <trkpt lat="43.99538" lon="5.11089">
        <ele>203</ele>
        <time>2018-11-29T15:38:11.000Z</time>
      </trkpt>
      <trkpt lat="43.99523" lon="5.11102">
        <ele>202.3</ele>
        <time>2018-11-29T15:38:31.000Z</time>
      </trkpt>
      <trkpt lat="43.9952" lon="5.11105">
        <ele>202.1</ele>
        <time>2018-11-29T15:38:31.000Z</time>
      </trkpt>
      <trkpt lat="43.99511" lon="5.11113">
        <ele>201.5</ele>
        <time>2018-11-29T15:38:31.000Z</time>
      </trkpt>
      <trkpt lat="43.99507" lon="5.11119">
        <ele>200.9</ele>
        <time>2018-11-29T15:38:47.000Z</time>
      </trkpt>
      <trkpt lat="43.99506" lon="5.1112">
        <ele>200.8</ele>
        <time>2018-11-29T15:38:47.000Z</time>
      </trkpt>
      <trkpt lat="43.99504" lon="5.11125">
        <ele>200.3</ele>
        <time>2018-11-29T15:38:47.000Z</time>
      </trkpt>
      <trkpt lat="43.99501" lon="5.11131">
        <ele>199.7</ele>
        <time>2018-11-29T15:38:47.000Z</time>
      </trkpt>
      <trkpt lat="43.99499" lon="5.11133">
        <ele>199.6</ele>
        <time>2018-11-29T15:39:7.000Z</time>
      </trkpt>
      <trkpt lat="43.99497" lon="5.11136">
        <ele>199.4</ele>
        <time>2018-11-29T15:39:7.000Z</time>
      </trkpt>
      <trkpt lat="43.99493" lon="5.11141">
        <ele>199.1</ele>
        <time>2018-11-29T15:39:7.000Z</time>
      </trkpt>
      <trkpt lat="43.99491" lon="5.11146">
        <ele>198.7</ele>
        <time>2018-11-29T15:39:7.000Z</time>
      </trkpt>
      <trkpt lat="43.99487" lon="5.11152">
        <ele>198.4</ele>
        <time>2018-11-29T15:39:27.000Z</time>
      </trkpt>
      <trkpt lat="43.99484" lon="5.11155">
        <ele>198.1</ele>
        <time>2018-11-29T15:39:27.000Z</time>
      </trkpt>
      <trkpt lat="43.99481" lon="5.11159">
        <ele>198</ele>
        <time>2018-11-29T15:39:27.000Z</time>
      </trkpt>
      <trkpt lat="43.99478" lon="5.1116">
        <ele>198.1</ele>
        <time>2018-11-29T15:39:27.000Z</time>
      </trkpt>
      <trkpt lat="43.99473" lon="5.11164">
        <ele>198</ele>
        <time>2018-11-29T15:39:55.000Z</time>
      </trkpt>
      <trkpt lat="43.99471" lon="5.11167">
        <ele>197.8</ele>
        <time>2018-11-29T15:39:55.000Z</time>
      </trkpt>
      <trkpt lat="43.99465" lon="5.11177">
        <ele>197.4</ele>
        <time>2018-11-29T15:39:55.000Z</time>
      </trkpt>
      <trkpt lat="43.99457" lon="5.11185">
        <ele>197.3</ele>
        <time>2018-11-29T15:39:55.000Z</time>
      </trkpt>
      <trkpt lat="43.99453" lon="5.11188">
        <ele>197.4</ele>
        <time>2018-11-29T15:40:23.000Z</time>
      </trkpt>
      <trkpt lat="43.99445" lon="5.11196">
        <ele>197.2</ele>
        <time>2018-11-29T15:40:23.000Z</time>
      </trkpt>
      <trkpt lat="43.99439" lon="5.112">
        <ele>197.1</ele>
        <time>2018-11-29T15:40:23.000Z</time>
      </trkpt>
      <trkpt lat="43.99432" lon="5.11206">
        <ele>197.1</ele>
        <time>2018-11-29T15:40:23.000Z</time>
      </trkpt>
      <trkpt lat="43.99422" lon="5.11216">
        <ele>196.8</ele>
        <time>2018-11-29T15:40:47.000Z</time>
      </trkpt>
      <trkpt lat="43.99418" lon="5.11219">
        <ele>196.6</ele>
        <time>2018-11-29T15:40:47.000Z</time>
      </trkpt>
      <trkpt lat="43.99414" lon="5.11224">
        <ele>196.5</ele>
        <time>2018-11-29T15:40:47.000Z</time>
      </trkpt>
      <trkpt lat="43.99409" lon="5.11231">
        <ele>196.1</ele>
        <time>2018-11-29T15:41:11.000Z</time>
      </trkpt>
      <trkpt lat="43.99405" lon="5.11235">
        <ele>196.1</ele>
        <time>2018-11-29T15:41:11.000Z</time>
      </trkpt>
      <trkpt lat="43.99403" lon="5.11236">
        <ele>196</ele>
        <time>2018-11-29T15:41:11.000Z</time>
      </trkpt>
      <trkpt lat="43.99396" lon="5.11242">
        <ele>195.9</ele>
        <time>2018-11-29T15:41:11.000Z</time>
      </trkpt>
      <trkpt lat="43.99392" lon="5.11246">
        <ele>195.7</ele>
        <time>2018-11-29T15:41:31.000Z</time>
      </trkpt>
      <trkpt lat="43.9939" lon="5.11248">
        <ele>195.6</ele>
        <time>2018-11-29T15:41:31.000Z</time>
      </trkpt>
      <trkpt lat="43.99388" lon="5.1125">
        <ele>195.5</ele>
        <time>2018-11-29T15:41:31.000Z</time>
      </trkpt>
      <trkpt lat="43.99384" lon="5.11254">
        <ele>195.6</ele>
        <time>2018-11-29T15:41:31.000Z</time>
      </trkpt>
      <trkpt lat="43.9938" lon="5.11257">
        <ele>195.7</ele>
        <time>2018-11-29T15:41:47.000Z</time>
      </trkpt>
      <trkpt lat="43.99376" lon="5.11262">
        <ele>195.9</ele>
        <time>2018-11-29T15:41:47.000Z</time>
      </trkpt>
      <trkpt lat="43.9937" lon="5.11267">
        <ele>196</ele>
        <time>2018-11-29T15:41:47.000Z</time>
      </trkpt>
      <trkpt lat="43.99365" lon="5.1127">
        <ele>196.2</ele>
        <time>2018-11-29T15:41:47.000Z</time>
      </trkpt>
      <trkpt lat="43.99359" lon="5.11273">
        <ele>196.5</ele>
        <time>2018-11-29T15:42:7.000Z</time>
      </trkpt>
      <trkpt lat="43.99355" lon="5.11274">
        <ele>196.7</ele>
        <time>2018-11-29T15:42:7.000Z</time>
      </trkpt>
      <trkpt lat="43.99352" lon="5.11275">
        <ele>196.9</ele>
        <time>2018-11-29T15:42:7.000Z</time>
      </trkpt>
      <trkpt lat="43.99351" lon="5.11275">
        <ele>197</ele>
        <time>2018-11-29T15:42:7.000Z</time>
      </trkpt>
      <trkpt lat="43.99347" lon="5.11274">
        <ele>197.3</ele>
        <time>2018-11-29T15:42:7.000Z</time>
      </trkpt>
      <trkpt lat="43.99338" lon="5.11275">
        <ele>198</ele>
        <time>2018-11-29T15:42:23.000Z</time>
      </trkpt>
      <trkpt lat="43.99333" lon="5.11276">
        <ele>198.2</ele>
        <time>2018-11-29T15:42:23.000Z</time>
      </trkpt>
      <trkpt lat="43.99329" lon="5.11277">
        <ele>198.5</ele>
        <time>2018-11-29T15:42:23.000Z</time>
      </trkpt>
      <trkpt lat="43.99325" lon="5.11276">
        <ele>198.8</ele>
        <time>2018-11-29T15:42:39.000Z</time>
      </trkpt>
      <trkpt lat="43.99321" lon="5.11276">
        <ele>199.1</ele>
        <time>2018-11-29T15:42:39.000Z</time>
      </trkpt>
      <trkpt lat="43.99317" lon="5.11277">
        <ele>199.3</ele>
        <time>2018-11-29T15:42:39.000Z</time>
      </trkpt>
      <trkpt lat="43.99314" lon="5.11277">
        <ele>199.6</ele>
        <time>2018-11-29T15:42:39.000Z</time>
      </trkpt>
      <trkpt lat="43.99309" lon="5.11277">
        <ele>200</ele>
        <time>2018-11-29T15:42:55.000Z</time>
      </trkpt>
      <trkpt lat="43.99307" lon="5.11277">
        <ele>200.1</ele>
        <time>2018-11-29T15:42:55.000Z</time>
      </trkpt>
      <trkpt lat="43.99302" lon="5.11276">
        <ele>200.6</ele>
        <time>2018-11-29T15:42:55.000Z</time>
      </trkpt>
      <trkpt lat="43.993" lon="5.11276">
        <ele>200.8</ele>
        <time>2018-11-29T15:42:55.000Z</time>
      </trkpt>
      <trkpt lat="43.99298" lon="5.11276">
        <ele>200.9</ele>
        <time>2018-11-29T15:43:15.000Z</time>
      </trkpt>
      <trkpt lat="43.99295" lon="5.11277">
        <ele>201.1</ele>
        <time>2018-11-29T15:43:15.000Z</time>
      </trkpt>
      <trkpt lat="43.99292" lon="5.11276">
        <ele>201.4</ele>
        <time>2018-11-29T15:43:15.000Z</time>
      </trkpt>
      <trkpt lat="43.99286" lon="5.11277">
        <ele>201.7</ele>
        <time>2018-11-29T15:43:15.000Z</time>
      </trkpt>
      <trkpt lat="43.99282" lon="5.11278">
        <ele>201.9</ele>
        <time>2018-11-29T15:43:31.000Z</time>
      </trkpt>
      <trkpt lat="43.99276" lon="5.11279">
        <ele>202.3</ele>
        <time>2018-11-29T15:43:31.000Z</time>
      </trkpt>
      <trkpt lat="43.99271" lon="5.1128">
        <ele>202.5</ele>
        <time>2018-11-29T15:43:31.000Z</time>
      </trkpt>
      <trkpt lat="43.99267" lon="5.1128">
        <ele>202.8</ele>
        <time>2018-11-29T15:43:31.000Z</time>
      </trkpt>
      <trkpt lat="43.99264" lon="5.11279">
        <ele>203.2</ele>
        <time>2018-11-29T15:43:51.000Z</time>
      </trkpt>
      <trkpt lat="43.99263" lon="5.11278">
        <ele>203.4</ele>
        <time>2018-11-29T15:43:51.000Z</time>
      </trkpt>
      <trkpt lat="43.99262" lon="5.11274">
        <ele>204</ele>
        <time>2018-11-29T15:43:51.000Z</time>
      </trkpt>
      <trkpt lat="43.9926" lon="5.11268">
        <ele>204.9</ele>
        <time>2018-11-29T15:43:51.000Z</time>
      </trkpt>
      <trkpt lat="43.99259" lon="5.11261">
        <ele>205.8</ele>
        <time>2018-11-29T15:43:51.000Z</time>
      </trkpt>
      <trkpt lat="43.99258" lon="5.11255">
        <ele>206.6</ele>
        <time>2018-11-29T15:44:15.000Z</time>
      </trkpt>
      <trkpt lat="43.99257" lon="5.11249">
        <ele>207.5</ele>
        <time>2018-11-29T15:44:15.000Z</time>
      </trkpt>
      <trkpt lat="43.99256" lon="5.11243">
        <ele>208.7</ele>
        <time>2018-11-29T15:44:15.000Z</time>
      </trkpt>
      <trkpt lat="43.99253" lon="5.11234">
        <ele>210.6</ele>
        <time>2018-11-29T15:44:15.000Z</time>
      </trkpt>
      <trkpt lat="43.99249" lon="5.1123">
        <ele>211.8</ele>
        <time>2018-11-29T15:44:35.000Z</time>
      </trkpt>
      <trkpt lat="43.99246" lon="5.11227">
        <ele>212.5</ele>
        <time>2018-11-29T15:44:35.000Z</time>
      </trkpt>
      <trkpt lat="43.99243" lon="5.11226">
        <ele>212.8</ele>
        <time>2018-11-29T15:44:35.000Z</time>
      </trkpt>
      <trkpt lat="43.99243" lon="5.11226">
        <ele>212.9</ele>
        <time>2018-11-29T15:44:35.000Z</time>
      </trkpt>
      <trkpt lat="43.99238" lon="5.11225">
        <ele>213.3</ele>
        <time>2018-11-29T15:44:35.000Z</time>
      </trkpt>
      <trkpt lat="43.99235" lon="5.11225">
        <ele>213.5</ele>
        <time>2018-11-29T15:44:51.000Z</time>
      </trkpt>
      <trkpt lat="43.99227" lon="5.11223">
        <ele>214.3</ele>
        <time>2018-11-29T15:44:51.000Z</time>
      </trkpt>
      <trkpt lat="43.99223" lon="5.11222">
        <ele>214.8</ele>
        <time>2018-11-29T15:44:51.000Z</time>
      </trkpt>
      <trkpt lat="43.9922" lon="5.11222">
        <ele>214.9</ele>
        <time>2018-11-29T15:45:7.000Z</time>
      </trkpt>
      <trkpt lat="43.99217" lon="5.11221">
        <ele>215.2</ele>
        <time>2018-11-29T15:45:7.000Z</time>
      </trkpt>
      <trkpt lat="43.99213" lon="5.11221">
        <ele>215.5</ele>
        <time>2018-11-29T15:45:7.000Z</time>
      </trkpt>
      <trkpt lat="43.9921" lon="5.11219">
        <ele>216</ele>
        <time>2018-11-29T15:45:7.000Z</time>
      </trkpt>
      <trkpt lat="43.99206" lon="5.11218">
        <ele>216.5</ele>
        <time>2018-11-29T15:45:23.000Z</time>
      </trkpt>
      <trkpt lat="43.99203" lon="5.11216">
        <ele>217.1</ele>
        <time>2018-11-29T15:45:23.000Z</time>
      </trkpt>
      <trkpt lat="43.99196" lon="5.11214">
        <ele>217.8</ele>
        <time>2018-11-29T15:45:23.000Z</time>
      </trkpt>
      <trkpt lat="43.99191" lon="5.11214">
        <ele>218</ele>
        <time>2018-11-29T15:45:39.000Z</time>
      </trkpt>
      <trkpt lat="43.99188" lon="5.11214">
        <ele>218.4</ele>
        <time>2018-11-29T15:45:39.000Z</time>
      </trkpt>
      <trkpt lat="43.99184" lon="5.11214">
        <ele>218.6</ele>
        <time>2018-11-29T15:45:39.000Z</time>
      </trkpt>
      <trkpt lat="43.99181" lon="5.11215">
        <ele>218.6</ele>
        <time>2018-11-29T15:45:39.000Z</time>
      </trkpt>
      <trkpt lat="43.99176" lon="5.11215">
        <ele>218.8</ele>
        <time>2018-11-29T15:45:55.000Z</time>
      </trkpt>
      <trkpt lat="43.99169" lon="5.11214">
        <ele>219.3</ele>
        <time>2018-11-29T15:45:55.000Z</time>
      </trkpt>
      <trkpt lat="43.99167" lon="5.11213">
        <ele>219.7</ele>
        <time>2018-11-29T15:45:55.000Z</time>
      </trkpt>
      <trkpt lat="43.99166" lon="5.11213">
        <ele>219.8</ele>
        <time>2018-11-29T15:46:15.000Z</time>
      </trkpt>
      <trkpt lat="43.99162" lon="5.11211">
        <ele>220.4</ele>
        <time>2018-11-29T15:46:15.000Z</time>
      </trkpt>
      <trkpt lat="43.99159" lon="5.11211">
        <ele>220.6</ele>
        <time>2018-11-29T15:46:15.000Z</time>
      </trkpt>
      <trkpt lat="43.99158" lon="5.11211">
        <ele>220.7</ele>
        <time>2018-11-29T15:46:15.000Z</time>
      </trkpt>
      <trkpt lat="43.99154" lon="5.1121">
        <ele>221.2</ele>
        <time>2018-11-29T15:46:15.000Z</time>
      </trkpt>
      <trkpt lat="43.99149" lon="5.11208">
        <ele>221.8</ele>
        <time>2018-11-29T15:46:35.000Z</time>
      </trkpt>
      <trkpt lat="43.99142" lon="5.11206">
        <ele>222.7</ele>
        <time>2018-11-29T15:46:35.000Z</time>
      </trkpt>
      <trkpt lat="43.99136" lon="5.11204">
        <ele>223.4</ele>
        <time>2018-11-29T15:46:35.000Z</time>
      </trkpt>
      <trkpt lat="43.99132" lon="5.112">
        <ele>224.5</ele>
        <time>2018-11-29T15:46:51.000Z</time>
      </trkpt>
      <trkpt lat="43.99126" lon="5.11198">
        <ele>225.3</ele>
        <time>2018-11-29T15:46:51.000Z</time>
      </trkpt>
      <trkpt lat="43.99124" lon="5.11194">
        <ele>226.3</ele>
        <time>2018-11-29T15:46:51.000Z</time>
      </trkpt>
      <trkpt lat="43.99122" lon="5.11189">
        <ele>227.4</ele>
        <time>2018-11-29T15:46:51.000Z</time>
      </trkpt>
      <trkpt lat="43.9912" lon="5.11178">
        <ele>229.6</ele>
        <time>2018-11-29T15:47:11.000Z</time>
      </trkpt>
      <trkpt lat="43.99117" lon="5.11172">
        <ele>231.3</ele>
        <time>2018-11-29T15:47:11.000Z</time>
      </trkpt>
      <trkpt lat="43.99115" lon="5.11169">
        <ele>232</ele>
        <time>2018-11-29T15:47:11.000Z</time>
      </trkpt>
      <trkpt lat="43.99112" lon="5.11165">
        <ele>233</ele>
        <time>2018-11-29T15:47:31.000Z</time>
      </trkpt>
      <trkpt lat="43.99109" lon="5.11159">
        <ele>234.6</ele>
        <time>2018-11-29T15:47:31.000Z</time>
      </trkpt>
      <trkpt lat="43.99102" lon="5.11153">
        <ele>236.5</ele>
        <time>2018-11-29T15:47:31.000Z</time>
      </trkpt>
      <trkpt lat="43.99097" lon="5.1115">
        <ele>237.5</ele>
        <time>2018-11-29T15:47:47.000Z</time>
      </trkpt>
      <trkpt lat="43.99093" lon="5.11145">
        <ele>238.7</ele>
        <time>2018-11-29T15:47:47.000Z</time>
      </trkpt>
      <trkpt lat="43.99089" lon="5.11142">
        <ele>239.8</ele>
        <time>2018-11-29T15:47:47.000Z</time>
      </trkpt>
      <trkpt lat="43.99086" lon="5.1114">
        <ele>240.4</ele>
        <time>2018-11-29T15:47:47.000Z</time>
      </trkpt>
      <trkpt lat="43.99082" lon="5.11138">
        <ele>240.8</ele>
        <time>2018-11-29T15:53:3.000Z</time>
      </trkpt>
      <trkpt lat="43.99081" lon="5.11139">
        <ele>240.4</ele>
        <time>2018-11-29T15:53:3.000Z</time>
      </trkpt>
      <trkpt lat="43.99079" lon="5.1114">
        <ele>240</ele>
        <time>2018-11-29T15:53:3.000Z</time>
      </trkpt>
      <trkpt lat="43.99076" lon="5.1114">
        <ele>239.6</ele>
        <time>2018-11-29T15:53:3.000Z</time>
      </trkpt>
      <trkpt lat="43.99072" lon="5.1114">
        <ele>239.1</ele>
        <time>2018-11-29T15:53:3.000Z</time>
      </trkpt>
      <trkpt lat="43.99069" lon="5.1114">
        <ele>238.7</ele>
        <time>2018-11-29T15:53:19.000Z</time>
      </trkpt>
      <trkpt lat="43.99065" lon="5.11141">
        <ele>237.9</ele>
        <time>2018-11-29T15:53:19.000Z</time>
      </trkpt>
      <trkpt lat="43.99062" lon="5.11142">
        <ele>237.4</ele>
        <time>2018-11-29T15:53:19.000Z</time>
      </trkpt>
      <trkpt lat="43.9906" lon="5.11142">
        <ele>237.2</ele>
        <time>2018-11-29T15:53:19.000Z</time>
      </trkpt>
      <trkpt lat="43.99059" lon="5.11142">
        <ele>237.1</ele>
        <time>2018-11-29T15:53:43.000Z</time>
      </trkpt>
      <trkpt lat="43.99056" lon="5.11146">
        <ele>236</ele>
        <time>2018-11-29T15:53:43.000Z</time>
      </trkpt>
      <trkpt lat="43.99048" lon="5.11153">
        <ele>233.6</ele>
        <time>2018-11-29T15:54:7.000Z</time>
      </trkpt>
      <trkpt lat="43.99039" lon="5.11161">
        <ele>231.3</ele>
        <time>2018-11-29T15:54:7.000Z</time>
      </trkpt>
      <trkpt lat="43.99033" lon="5.11165">
        <ele>230</ele>
        <time>2018-11-29T15:54:7.000Z</time>
      </trkpt>
      <trkpt lat="43.99027" lon="5.1117">
        <ele>228.6</ele>
        <time>2018-11-29T15:54:7.000Z</time>
      </trkpt>
      <trkpt lat="43.99026" lon="5.1117">
        <ele>228.4</ele>
        <time>2018-11-29T15:54:23.000Z</time>
      </trkpt>
      <trkpt lat="43.99023" lon="5.11171">
        <ele>227.9</ele>
        <time>2018-11-29T15:54:23.000Z</time>
      </trkpt>
      <trkpt lat="43.99015" lon="5.11173">
        <ele>227</ele>
        <time>2018-11-29T15:54:23.000Z</time>
      </trkpt>
      <trkpt lat="43.99013" lon="5.11172">
        <ele>226.8</ele>
        <time>2018-11-29T15:54:43.000Z</time>
      </trkpt>
      <trkpt lat="43.99009" lon="5.11172">
        <ele>226.4</ele>
        <time>2018-11-29T15:54:43.000Z</time>
      </trkpt>
      <trkpt lat="43.99008" lon="5.11172">
        <ele>226.3</ele>
        <time>2018-11-29T15:54:43.000Z</time>
      </trkpt>
      <trkpt lat="43.99005" lon="5.1117">
        <ele>226.2</ele>
        <time>2018-11-29T15:54:43.000Z</time>
      </trkpt>
      <trkpt lat="43.99" lon="5.1117">
        <ele>225.8</ele>
        <time>2018-11-29T15:54:43.000Z</time>
      </trkpt>
      <trkpt lat="43.98997" lon="5.11172">
        <ele>225.9</ele>
        <time>2018-11-29T15:54:59.000Z</time>
      </trkpt>
      <trkpt lat="43.98993" lon="5.11172">
        <ele>226.4</ele>
        <time>2018-11-29T15:55:0.000Z</time>
      </trkpt>
      <trkpt lat="43.98989" lon="5.11171">
        <ele>227</ele>
        <time>2018-11-29T15:55:0.000Z</time>
      </trkpt>
      <trkpt lat="43.98985" lon="5.1117">
        <ele>227.7</ele>
        <time>2018-11-29T15:55:0.000Z</time>
      </trkpt>
      <trkpt lat="43.98981" lon="5.11168">
        <ele>228.5</ele>
        <time>2018-11-29T15:55:15.000Z</time>
      </trkpt>
      <trkpt lat="43.98977" lon="5.11165">
        <ele>229.3</ele>
        <time>2018-11-29T15:55:15.000Z</time>
      </trkpt>
      <trkpt lat="43.98975" lon="5.11164">
        <ele>229.8</ele>
        <time>2018-11-29T15:55:15.000Z</time>
      </trkpt>
      <trkpt lat="43.98971" lon="5.11162">
        <ele>230.6</ele>
        <time>2018-11-29T15:55:15.000Z</time>
      </trkpt>
      <trkpt lat="43.98968" lon="5.1116">
        <ele>231.2</ele>
        <time>2018-11-29T15:55:31.000Z</time>
      </trkpt>
      <trkpt lat="43.98965" lon="5.11157">
        <ele>232</ele>
        <time>2018-11-29T15:55:31.000Z</time>
      </trkpt>
      <trkpt lat="43.98964" lon="5.11155">
        <ele>232.5</ele>
        <time>2018-11-29T15:55:31.000Z</time>
      </trkpt>
      <trkpt lat="43.98962" lon="5.11151">
        <ele>233.3</ele>
        <time>2018-11-29T15:55:31.000Z</time>
      </trkpt>
      <trkpt lat="43.98959" lon="5.11148">
        <ele>234</ele>
        <time>2018-11-29T15:55:55.000Z</time>
      </trkpt>
      <trkpt lat="43.98951" lon="5.11146">
        <ele>235.4</ele>
        <time>2018-11-29T15:55:55.000Z</time>
      </trkpt>
      <trkpt lat="43.98948" lon="5.11147">
        <ele>235.6</ele>
        <time>2018-11-29T15:55:55.000Z</time>
      </trkpt>
      <trkpt lat="43.98941" lon="5.1115">
        <ele>236.1</ele>
        <time>2018-11-29T15:56:23.000Z</time>
      </trkpt>
      <trkpt lat="43.98938" lon="5.1115">
        <ele>236.5</ele>
        <time>2018-11-29T15:56:23.000Z</time>
      </trkpt>
      <trkpt lat="43.9893" lon="5.11152">
        <ele>237.3</ele>
        <time>2018-11-29T15:56:23.000Z</time>
      </trkpt>
      <trkpt lat="43.98926" lon="5.11152">
        <ele>237.8</ele>
        <time>2018-11-29T15:56:23.000Z</time>
      </trkpt>
      <trkpt lat="43.98922" lon="5.11152">
        <ele>238.3</ele>
        <time>2018-11-29T15:56:39.000Z</time>
      </trkpt>
      <trkpt lat="43.98918" lon="5.11151">
        <ele>238.8</ele>
        <time>2018-11-29T15:56:39.000Z</time>
      </trkpt>
      <trkpt lat="43.98914" lon="5.11147">
        <ele>240.1</ele>
        <time>2018-11-29T15:56:39.000Z</time>
      </trkpt>
      <trkpt lat="43.98912" lon="5.11145">
        <ele>240.8</ele>
        <time>2018-11-29T15:56:39.000Z</time>
      </trkpt>
      <trkpt lat="43.98908" lon="5.11143">
        <ele>241.9</ele>
        <time>2018-11-29T15:57:7.000Z</time>
      </trkpt>
      <trkpt lat="43.98906" lon="5.11141">
        <ele>242.4</ele>
        <time>2018-11-29T15:57:7.000Z</time>
      </trkpt>
      <trkpt lat="43.98891" lon="5.11133">
        <ele>246.5</ele>
        <time>2018-11-29T15:57:31.000Z</time>
      </trkpt>
      <trkpt lat="43.98884" lon="5.11131">
        <ele>248.1</ele>
        <time>2018-11-29T15:57:31.000Z</time>
      </trkpt>
      <trkpt lat="43.98882" lon="5.11131">
        <ele>248.5</ele>
        <time>2018-11-29T15:57:31.000Z</time>
      </trkpt>
      <trkpt lat="43.98875" lon="5.11131">
        <ele>249.8</ele>
        <time>2018-11-29T15:57:31.000Z</time>
      </trkpt>
      <trkpt lat="43.98867" lon="5.11135">
        <ele>250.9</ele>
        <time>2018-11-29T15:58:3.000Z</time>
      </trkpt>
      <trkpt lat="43.98863" lon="5.11137">
        <ele>251</ele>
        <time>2018-11-29T15:58:3.000Z</time>
      </trkpt>
      <trkpt lat="43.98857" lon="5.11137">
        <ele>252.2</ele>
        <time>2018-11-29T15:58:3.000Z</time>
      </trkpt>
      <trkpt lat="43.98858" lon="5.11137">
        <ele>252.1</ele>
        <time>2018-11-29T15:59:35.000Z</time>
      </trkpt>
      <trkpt lat="43.98859" lon="5.11138">
        <ele>251.7</ele>
        <time>2018-11-29T15:59:35.000Z</time>
      </trkpt>
      <trkpt lat="43.9886" lon="5.11134">
        <ele>252.1</ele>
        <time>2018-11-29T15:59:35.000Z</time>
      </trkpt>
      <trkpt lat="43.98863" lon="5.11133">
        <ele>251.9</ele>
        <time>2018-11-29T15:59:35.000Z</time>
      </trkpt>
      <trkpt lat="43.98864" lon="5.11132">
        <ele>251.8</ele>
        <time>2018-11-29T15:59:35.000Z</time>
      </trkpt>
      <trkpt lat="43.9887" lon="5.1113">
        <ele>251.2</ele>
        <time>2018-11-29T15:59:59.000Z</time>
      </trkpt>
      <trkpt lat="43.98872" lon="5.1113">
        <ele>250.6</ele>
        <time>2018-11-29T15:59:59.000Z</time>
      </trkpt>
      <trkpt lat="43.98873" lon="5.11131">
        <ele>250.3</ele>
        <time>2018-11-29T15:59:59.000Z</time>
      </trkpt>
      <trkpt lat="43.98874" lon="5.11132">
        <ele>249.8</ele>
        <time>2018-11-29T15:59:59.000Z</time>
      </trkpt>
      <trkpt lat="43.98878" lon="5.11134">
        <ele>248.9</ele>
        <time>2018-11-29T15:59:59.000Z</time>
      </trkpt>
      <trkpt lat="43.98881" lon="5.11134">
        <ele>248.2</ele>
        <time>2018-11-29T16:00:19.000Z</time>
      </trkpt>
      <trkpt lat="43.98884" lon="5.11134">
        <ele>247.7</ele>
        <time>2018-11-29T16:00:19.000Z</time>
      </trkpt>
      <trkpt lat="43.98885" lon="5.11133">
        <ele>247.5</ele>
        <time>2018-11-29T16:00:19.000Z</time>
      </trkpt>
      <trkpt lat="43.98887" lon="5.11134">
        <ele>247.1</ele>
        <time>2018-11-29T16:00:19.000Z</time>
      </trkpt>
      <trkpt lat="43.98892" lon="5.11135">
        <ele>245.9</ele>
        <time>2018-11-29T16:00:19.000Z</time>
      </trkpt>
      <trkpt lat="43.98897" lon="5.11138">
        <ele>244.7</ele>
        <time>2018-11-29T16:00:39.000Z</time>
      </trkpt>
      <trkpt lat="43.98897" lon="5.11141">
        <ele>244.1</ele>
        <time>2018-11-29T16:00:39.000Z</time>
      </trkpt>
      <trkpt lat="43.98894" lon="5.11144">
        <ele>244.1</ele>
        <time>2018-11-29T16:00:39.000Z</time>
      </trkpt>
      <trkpt lat="43.98888" lon="5.11144">
        <ele>245.2</ele>
        <time>2018-11-29T16:00:39.000Z</time>
      </trkpt>
      <trkpt lat="43.98886" lon="5.11145">
        <ele>245.3</ele>
        <time>2018-11-29T16:01:3.000Z</time>
      </trkpt>
      <trkpt lat="43.98886" lon="5.11146">
        <ele>245.2</ele>
        <time>2018-11-29T16:01:3.000Z</time>
      </trkpt>
      <trkpt lat="43.98883" lon="5.11146">
        <ele>245.5</ele>
        <time>2018-11-29T16:01:3.000Z</time>
      </trkpt>
      <trkpt lat="43.9888" lon="5.11148">
        <ele>245.8</ele>
        <time>2018-11-29T16:01:3.000Z</time>
      </trkpt>
      <trkpt lat="43.98876" lon="5.1115">
        <ele>246.1</ele>
        <time>2018-11-29T16:01:3.000Z</time>
      </trkpt>
      <trkpt lat="43.98876" lon="5.1115">
        <ele>246.2</ele>
        <time>2018-11-29T16:01:23.000Z</time>
      </trkpt>
      <trkpt lat="43.98877" lon="5.11153">
        <ele>245.3</ele>
        <time>2018-11-29T16:01:23.000Z</time>
      </trkpt>
      <trkpt lat="43.9888" lon="5.11156">
        <ele>244.2</ele>
        <time>2018-11-29T16:01:23.000Z</time>
      </trkpt>
      <trkpt lat="43.9888" lon="5.11158">
        <ele>244</ele>
        <time>2018-11-29T16:01:23.000Z</time>
      </trkpt>
      <trkpt lat="43.98881" lon="5.11161">
        <ele>243.3</ele>
        <time>2018-11-29T16:01:23.000Z</time>
      </trkpt>
      <trkpt lat="43.98877" lon="5.11161">
        <ele>243.8</ele>
        <time>2018-11-29T16:03:7.000Z</time>
      </trkpt>
      <trkpt lat="43.98877" lon="5.11162">
        <ele>243.8</ele>
        <time>2018-11-29T16:03:7.000Z</time>
      </trkpt>
      <trkpt lat="43.98875" lon="5.11161">
        <ele>244.1</ele>
        <time>2018-11-29T16:03:7.000Z</time>
      </trkpt>
      <trkpt lat="43.98875" lon="5.11162">
        <ele>244.1</ele>
        <time>2018-11-29T16:03:7.000Z</time>
      </trkpt>
      <trkpt lat="43.9887" lon="5.11162">
        <ele>244.6</ele>
        <time>2018-11-29T16:03:7.000Z</time>
      </trkpt>
      <trkpt lat="43.98867" lon="5.11162">
        <ele>245.2</ele>
        <time>2018-11-29T16:03:51.000Z</time>
      </trkpt>
      <trkpt lat="43.98862" lon="5.11163">
        <ele>245.7</ele>
        <time>2018-11-29T16:03:51.000Z</time>
      </trkpt>
      <trkpt lat="43.98862" lon="5.11164">
        <ele>245.7</ele>
        <time>2018-11-29T16:03:51.000Z</time>
      </trkpt>
      <trkpt lat="43.9886" lon="5.11164">
        <ele>245.7</ele>
        <time>2018-11-29T16:03:51.000Z</time>
      </trkpt>
      <trkpt lat="43.98857" lon="5.11163">
        <ele>246.5</ele>
        <time>2018-11-29T16:03:51.000Z</time>
      </trkpt>
      <trkpt lat="43.98847" lon="5.11161">
        <ele>248.4</ele>
        <time>2018-11-29T16:04:23.000Z</time>
      </trkpt>
      <trkpt lat="43.98835" lon="5.11162">
        <ele>249.9</ele>
        <time>2018-11-29T16:04:23.000Z</time>
      </trkpt>
      <trkpt lat="43.98832" lon="5.11164">
        <ele>250</ele>
        <time>2018-11-29T16:04:23.000Z</time>
      </trkpt>
      <trkpt lat="43.98828" lon="5.11165">
        <ele>250.2</ele>
        <time>2018-11-29T16:04:23.000Z</time>
      </trkpt>
      <trkpt lat="43.98823" lon="5.11167">
        <ele>250.7</ele>
        <time>2018-11-29T16:04:43.000Z</time>
      </trkpt>
      <trkpt lat="43.98819" lon="5.11167">
        <ele>251.2</ele>
        <time>2018-11-29T16:04:43.000Z</time>
      </trkpt>
      <trkpt lat="43.98816" lon="5.11166">
        <ele>251.9</ele>
        <time>2018-11-29T16:04:43.000Z</time>
      </trkpt>
      <trkpt lat="43.98808" lon="5.11167">
        <ele>253.1</ele>
        <time>2018-11-29T16:04:43.000Z</time>
      </trkpt>
      <trkpt lat="43.98803" lon="5.1117">
        <ele>253.4</ele>
        <time>2018-11-29T16:05:11.000Z</time>
      </trkpt>
      <trkpt lat="43.988" lon="5.1117">
        <ele>253.9</ele>
        <time>2018-11-29T16:05:11.000Z</time>
      </trkpt>
      <trkpt lat="43.98794" lon="5.1117">
        <ele>254.7</ele>
        <time>2018-11-29T16:05:11.000Z</time>
      </trkpt>
      <trkpt lat="43.98788" lon="5.1117">
        <ele>255.6</ele>
        <time>2018-11-29T16:05:11.000Z</time>
      </trkpt>
      <trkpt lat="43.98784" lon="5.11171">
        <ele>256.2</ele>
        <time>2018-11-29T16:05:27.000Z</time>
      </trkpt>
      <trkpt lat="43.98783" lon="5.11171">
        <ele>256.3</ele>
        <time>2018-11-29T16:05:27.000Z</time>
      </trkpt>
      <trkpt lat="43.9878" lon="5.1117">
        <ele>256.9</ele>
        <time>2018-11-29T16:05:27.000Z</time>
      </trkpt>
      <trkpt lat="43.98775" lon="5.11171">
        <ele>257.7</ele>
        <time>2018-11-29T16:05:27.000Z</time>
      </trkpt>
      <trkpt lat="43.98771" lon="5.11171">
        <ele>258.3</ele>
        <time>2018-11-29T16:05:47.000Z</time>
      </trkpt>
      <trkpt lat="43.98768" lon="5.11168">
        <ele>259.1</ele>
        <time>2018-11-29T16:05:47.000Z</time>
      </trkpt>
      <trkpt lat="43.98766" lon="5.11167">
        <ele>259.5</ele>
        <time>2018-11-29T16:05:47.000Z</time>
      </trkpt>
      <trkpt lat="43.98764" lon="5.11164">
        <ele>260.6</ele>
        <time>2018-11-29T16:05:47.000Z</time>
      </trkpt>
      <trkpt lat="43.98762" lon="5.11163">
        <ele>261.1</ele>
        <time>2018-11-29T16:05:47.000Z</time>
      </trkpt>
      <trkpt lat="43.98758" lon="5.11159">
        <ele>262.5</ele>
        <time>2018-11-29T16:06:3.000Z</time>
      </trkpt>
      <trkpt lat="43.98756" lon="5.11156">
        <ele>263.6</ele>
        <time>2018-11-29T16:06:3.000Z</time>
      </trkpt>
      <trkpt lat="43.98752" lon="5.11152">
        <ele>265.1</ele>
        <time>2018-11-29T16:06:3.000Z</time>
      </trkpt>
      <trkpt lat="43.98749" lon="5.11151">
        <ele>265.7</ele>
        <time>2018-11-29T16:06:3.000Z</time>
      </trkpt>
      <trkpt lat="43.98746" lon="5.1115">
        <ele>266.2</ele>
        <time>2018-11-29T16:06:23.000Z</time>
      </trkpt>
      <trkpt lat="43.98744" lon="5.11149">
        <ele>266.7</ele>
        <time>2018-11-29T16:06:23.000Z</time>
      </trkpt>
      <trkpt lat="43.98743" lon="5.11147">
        <ele>267.3</ele>
        <time>2018-11-29T16:06:23.000Z</time>
      </trkpt>
      <trkpt lat="43.98739" lon="5.11144">
        <ele>268.4</ele>
        <time>2018-11-29T16:06:23.000Z</time>
      </trkpt>
      <trkpt lat="43.98737" lon="5.11141">
        <ele>269.2</ele>
        <time>2018-11-29T16:06:23.000Z</time>
      </trkpt>
      <trkpt lat="43.98734" lon="5.11139">
        <ele>269.9</ele>
        <time>2018-11-29T16:06:43.000Z</time>
      </trkpt>
      <trkpt lat="43.98731" lon="5.11139">
        <ele>270.3</ele>
        <time>2018-11-29T16:06:43.000Z</time>
      </trkpt>
      <trkpt lat="43.9873" lon="5.11137">
        <ele>270.8</ele>
        <time>2018-11-29T16:06:43.000Z</time>
      </trkpt>
      <trkpt lat="43.98727" lon="5.11133">
        <ele>271.8</ele>
        <time>2018-11-29T16:06:43.000Z</time>
      </trkpt>
      <trkpt lat="43.98724" lon="5.11129">
        <ele>272.8</ele>
        <time>2018-11-29T16:06:43.000Z</time>
      </trkpt>
      <trkpt lat="43.98718" lon="5.11127">
        <ele>273.7</ele>
        <time>2018-11-29T16:07:27.000Z</time>
      </trkpt>
      <trkpt lat="43.98717" lon="5.11127">
        <ele>273.9</ele>
        <time>2018-11-29T16:07:27.000Z</time>
      </trkpt>
      <trkpt lat="43.98716" lon="5.11127">
        <ele>274</ele>
        <time>2018-11-29T16:07:27.000Z</time>
      </trkpt>
      <trkpt lat="43.98713" lon="5.11128">
        <ele>274.1</ele>
        <time>2018-11-29T16:07:27.000Z</time>
      </trkpt>
      <trkpt lat="43.98711" lon="5.11129">
        <ele>274.1</ele>
        <time>2018-11-29T16:07:27.000Z</time>
      </trkpt>
      <trkpt lat="43.98706" lon="5.11131">
        <ele>274.3</ele>
        <time>2018-11-29T16:07:47.000Z</time>
      </trkpt>
      <trkpt lat="43.98704" lon="5.11132">
        <ele>274.5</ele>
        <time>2018-11-29T16:07:47.000Z</time>
      </trkpt>
      <trkpt lat="43.98699" lon="5.11132">
        <ele>275</ele>
        <time>2018-11-29T16:07:47.000Z</time>
      </trkpt>
      <trkpt lat="43.98693" lon="5.11134">
        <ele>275.3</ele>
        <time>2018-11-29T16:07:47.000Z</time>
      </trkpt>
      <trkpt lat="43.98689" lon="5.11139">
        <ele>275.1</ele>
        <time>2018-11-29T16:15:11.000Z</time>
      </trkpt>
      <trkpt lat="43.9869" lon="5.11145">
        <ele>274.3</ele>
        <time>2018-11-29T16:15:11.000Z</time>
      </trkpt>
      <trkpt lat="43.98691" lon="5.11149">
        <ele>273.5</ele>
        <time>2018-11-29T16:15:11.000Z</time>
      </trkpt>
      <trkpt lat="43.98693" lon="5.11153">
        <ele>272.8</ele>
        <time>2018-11-29T16:15:11.000Z</time>
      </trkpt>
      <trkpt lat="43.98694" lon="5.11158">
        <ele>272</ele>
        <time>2018-11-29T16:15:11.000Z</time>
      </trkpt>
      <trkpt lat="43.98694" lon="5.11164">
        <ele>271.1</ele>
        <time>2018-11-29T16:15:27.000Z</time>
      </trkpt>
      <trkpt lat="43.98695" lon="5.1117">
        <ele>270.4</ele>
        <time>2018-11-29T16:15:27.000Z</time>
      </trkpt>
      <trkpt lat="43.98696" lon="5.11174">
        <ele>270.1</ele>
        <time>2018-11-29T16:15:27.000Z</time>
      </trkpt>
      <trkpt lat="43.98697" lon="5.11179">
        <ele>269.8</ele>
        <time>2018-11-29T16:15:27.000Z</time>
      </trkpt>
      <trkpt lat="43.98698" lon="5.11184">
        <ele>269.5</ele>
        <time>2018-11-29T16:15:43.000Z</time>
      </trkpt>
      <trkpt lat="43.98698" lon="5.11189">
        <ele>269.2</ele>
        <time>2018-11-29T16:15:43.000Z</time>
      </trkpt>
      <trkpt lat="43.98699" lon="5.11195">
        <ele>268.8</ele>
        <time>2018-11-29T16:15:43.000Z</time>
      </trkpt>
      <trkpt lat="43.987" lon="5.11201">
        <ele>268.4</ele>
        <time>2018-11-29T16:15:43.000Z</time>
      </trkpt>
      <trkpt lat="43.987" lon="5.11208">
        <ele>268</ele>
        <time>2018-11-29T16:15:59.000Z</time>
      </trkpt>
      <trkpt lat="43.98702" lon="5.11214">
        <ele>267.5</ele>
        <time>2018-11-29T16:15:59.000Z</time>
      </trkpt>
      <trkpt lat="43.98706" lon="5.11224">
        <ele>266</ele>
        <time>2018-11-29T16:15:59.000Z</time>
      </trkpt>
      <trkpt lat="43.98713" lon="5.11233">
        <ele>263.6</ele>
        <time>2018-11-29T16:16:35.000Z</time>
      </trkpt>
      <trkpt lat="43.98715" lon="5.11235">
        <ele>263.1</ele>
        <time>2018-11-29T16:16:35.000Z</time>
      </trkpt>
      <trkpt lat="43.98718" lon="5.11236">
        <ele>262.3</ele>
        <time>2018-11-29T16:16:35.000Z</time>
      </trkpt>
      <trkpt lat="43.98722" lon="5.1124">
        <ele>260.9</ele>
        <time>2018-11-29T16:16:35.000Z</time>
      </trkpt>
      <trkpt lat="43.98726" lon="5.11242">
        <ele>259.7</ele>
        <time>2018-11-29T16:16:35.000Z</time>
      </trkpt>
      <trkpt lat="43.98726" lon="5.11243">
        <ele>259.4</ele>
        <time>2018-11-29T16:16:51.000Z</time>
      </trkpt>
      <trkpt lat="43.98733" lon="5.11247">
        <ele>257.1</ele>
        <time>2018-11-29T16:16:51.000Z</time>
      </trkpt>
      <trkpt lat="43.98736" lon="5.1125">
        <ele>256</ele>
        <time>2018-11-29T16:16:51.000Z</time>
      </trkpt>
      <trkpt lat="43.9874" lon="5.11252">
        <ele>255</ele>
        <time>2018-11-29T16:17:7.000Z</time>
      </trkpt>
      <trkpt lat="43.98747" lon="5.11258">
        <ele>253</ele>
        <time>2018-11-29T16:17:7.000Z</time>
      </trkpt>
      <trkpt lat="43.98751" lon="5.1126">
        <ele>251.8</ele>
        <time>2018-11-29T16:17:7.000Z</time>
      </trkpt>
      <trkpt lat="43.98757" lon="5.11262">
        <ele>250.6</ele>
        <time>2018-11-29T16:17:23.000Z</time>
      </trkpt>
      <trkpt lat="43.98761" lon="5.11264">
        <ele>249.8</ele>
        <time>2018-11-29T16:17:23.000Z</time>
      </trkpt>
      <trkpt lat="43.98767" lon="5.11274">
        <ele>248.5</ele>
        <time>2018-11-29T16:17:23.000Z</time>
      </trkpt>
      <trkpt lat="43.98769" lon="5.11279">
        <ele>247.9</ele>
        <time>2018-11-29T16:17:39.000Z</time>
      </trkpt>
      <trkpt lat="43.98771" lon="5.11286">
        <ele>247.5</ele>
        <time>2018-11-29T16:17:39.000Z</time>
      </trkpt>
      <trkpt lat="43.98776" lon="5.11291">
        <ele>246.2</ele>
        <time>2018-11-29T16:17:39.000Z</time>
      </trkpt>
      <trkpt lat="43.98779" lon="5.11296">
        <ele>245.5</ele>
        <time>2018-11-29T16:17:55.000Z</time>
      </trkpt>
      <trkpt lat="43.98782" lon="5.11301">
        <ele>244.8</ele>
        <time>2018-11-29T16:17:55.000Z</time>
      </trkpt>
      <trkpt lat="43.98783" lon="5.11307">
        <ele>244.4</ele>
        <time>2018-11-29T16:17:55.000Z</time>
      </trkpt>
      <trkpt lat="43.98786" lon="5.11314">
        <ele>243.6</ele>
        <time>2018-11-29T16:17:55.000Z</time>
      </trkpt>
      <trkpt lat="43.98789" lon="5.11324">
        <ele>242.8</ele>
        <time>2018-11-29T16:18:11.000Z</time>
      </trkpt>
      <trkpt lat="43.9879" lon="5.11327">
        <ele>242.6</ele>
        <time>2018-11-29T16:18:11.000Z</time>
      </trkpt>
      <trkpt lat="43.9879" lon="5.11331">
        <ele>242.3</ele>
        <time>2018-11-29T16:18:11.000Z</time>
      </trkpt>
      <trkpt lat="43.98789" lon="5.11337">
        <ele>242.3</ele>
        <time>2018-11-29T16:18:27.000Z</time>
      </trkpt>
      <trkpt lat="43.98785" lon="5.11347">
        <ele>241.6</ele>
        <time>2018-11-29T16:18:27.000Z</time>
      </trkpt>
      <trkpt lat="43.98781" lon="5.11351">
        <ele>242</ele>
        <time>2018-11-29T16:18:27.000Z</time>
      </trkpt>
      <trkpt lat="43.98769" lon="5.11358">
        <ele>243.8</ele>
        <time>2018-11-29T16:18:43.000Z</time>
      </trkpt>
      <trkpt lat="43.98767" lon="5.11361">
        <ele>243.7</ele>
        <time>2018-11-29T16:18:43.000Z</time>
      </trkpt>
      <trkpt lat="43.98764" lon="5.11364">
        <ele>243.9</ele>
        <time>2018-11-29T16:18:59.000Z</time>
      </trkpt>
      <trkpt lat="43.9876" lon="5.11368">
        <ele>244.2</ele>
        <time>2018-11-29T16:18:59.000Z</time>
      </trkpt>
      <trkpt lat="43.98753" lon="5.11372">
        <ele>245</ele>
        <time>2018-11-29T16:18:59.000Z</time>
      </trkpt>
      <trkpt lat="43.98749" lon="5.11372">
        <ele>245.9</ele>
        <time>2018-11-29T16:19:15.000Z</time>
      </trkpt>
      <trkpt lat="43.98746" lon="5.11374">
        <ele>246.2</ele>
        <time>2018-11-29T16:19:15.000Z</time>
      </trkpt>
      <trkpt lat="43.98741" lon="5.11376">
        <ele>247.1</ele>
        <time>2018-11-29T16:19:15.000Z</time>
      </trkpt>
      <trkpt lat="43.98735" lon="5.11378">
        <ele>247.9</ele>
        <time>2018-11-29T16:19:15.000Z</time>
      </trkpt>
      <trkpt lat="43.98731" lon="5.11378">
        <ele>249</ele>
        <time>2018-11-29T16:19:31.000Z</time>
      </trkpt>
      <trkpt lat="43.98723" lon="5.1138">
        <ele>250.3</ele>
        <time>2018-11-29T16:19:31.000Z</time>
      </trkpt>
      <trkpt lat="43.98717" lon="5.1138">
        <ele>251.7</ele>
        <time>2018-11-29T16:19:31.000Z</time>
      </trkpt>
      <trkpt lat="43.98711" lon="5.11379">
        <ele>253.2</ele>
        <time>2018-11-29T16:19:31.000Z</time>
      </trkpt>
      <trkpt lat="43.98705" lon="5.11379">
        <ele>254.7</ele>
        <time>2018-11-29T16:19:47.000Z</time>
      </trkpt>
      <trkpt lat="43.98701" lon="5.1138">
        <ele>255.3</ele>
        <time>2018-11-29T16:19:47.000Z</time>
      </trkpt>
      <trkpt lat="43.98698" lon="5.1138">
        <ele>255.9</ele>
        <time>2018-11-29T16:19:47.000Z</time>
      </trkpt>
      <trkpt lat="43.98694" lon="5.11382">
        <ele>256.6</ele>
        <time>2018-11-29T16:19:47.000Z</time>
      </trkpt>
      <trkpt lat="43.98691" lon="5.11383">
        <ele>256.8</ele>
        <time>2018-11-29T16:20:3.000Z</time>
      </trkpt>
      <trkpt lat="43.98687" lon="5.11387">
        <ele>256.7</ele>
        <time>2018-11-29T16:20:3.000Z</time>
      </trkpt>
      <trkpt lat="43.98685" lon="5.1139">
        <ele>256.4</ele>
        <time>2018-11-29T16:20:3.000Z</time>
      </trkpt>
      <trkpt lat="43.98684" lon="5.11394">
        <ele>255.5</ele>
        <time>2018-11-29T16:20:3.000Z</time>
      </trkpt>
      <trkpt lat="43.98686" lon="5.11403">
        <ele>252.9</ele>
        <time>2018-11-29T16:20:31.000Z</time>
      </trkpt>
      <trkpt lat="43.98688" lon="5.11406">
        <ele>251.8</ele>
        <time>2018-11-29T16:20:31.000Z</time>
      </trkpt>
      <trkpt lat="43.98688" lon="5.11406">
        <ele>251.6</ele>
        <time>2018-11-29T16:20:31.000Z</time>
      </trkpt>
      <trkpt lat="43.98687" lon="5.1141">
        <ele>250.9</ele>
        <time>2018-11-29T16:20:31.000Z</time>
      </trkpt>
      <trkpt lat="43.98684" lon="5.11417">
        <ele>249.7</ele>
        <time>2018-11-29T16:20:31.000Z</time>
      </trkpt>
      <trkpt lat="43.98683" lon="5.11423">
        <ele>248.3</ele>
        <time>2018-11-29T16:20:47.000Z</time>
      </trkpt>
      <trkpt lat="43.98681" lon="5.11429">
        <ele>247.1</ele>
        <time>2018-11-29T16:20:47.000Z</time>
      </trkpt>
      <trkpt lat="43.98679" lon="5.11434">
        <ele>245.9</ele>
        <time>2018-11-29T16:20:47.000Z</time>
      </trkpt>
      <trkpt lat="43.98675" lon="5.11439">
        <ele>245.2</ele>
        <time>2018-11-29T16:20:47.000Z</time>
      </trkpt>
      <trkpt lat="43.98672" lon="5.11443">
        <ele>244.7</ele>
        <time>2018-11-29T16:21:3.000Z</time>
      </trkpt>
      <trkpt lat="43.98666" lon="5.11448">
        <ele>244.3</ele>
        <time>2018-11-29T16:21:3.000Z</time>
      </trkpt>
      <trkpt lat="43.98662" lon="5.11452">
        <ele>243.9</ele>
        <time>2018-11-29T16:21:3.000Z</time>
      </trkpt>
      <trkpt lat="43.98657" lon="5.11454">
        <ele>243.8</ele>
        <time>2018-11-29T16:21:3.000Z</time>
      </trkpt>
      <trkpt lat="43.98653" lon="5.11458">
        <ele>243.5</ele>
        <time>2018-11-29T16:21:19.000Z</time>
      </trkpt>
      <trkpt lat="43.98649" lon="5.11461">
        <ele>243.3</ele>
        <time>2018-11-29T16:21:19.000Z</time>
      </trkpt>
      <trkpt lat="43.98645" lon="5.11464">
        <ele>243.2</ele>
        <time>2018-11-29T16:21:19.000Z</time>
      </trkpt>
      <trkpt lat="43.9864" lon="5.11465">
        <ele>243.4</ele>
        <time>2018-11-29T16:21:19.000Z</time>
      </trkpt>
      <trkpt lat="43.98636" lon="5.11468">
        <ele>243.4</ele>
        <time>2018-11-29T16:21:35.000Z</time>
      </trkpt>
      <trkpt lat="43.98632" lon="5.11471">
        <ele>243.2</ele>
        <time>2018-11-29T16:21:35.000Z</time>
      </trkpt>
      <trkpt lat="43.98628" lon="5.11475">
        <ele>242.4</ele>
        <time>2018-11-29T16:21:35.000Z</time>
      </trkpt>
      <trkpt lat="43.98624" lon="5.11477">
        <ele>242.5</ele>
        <time>2018-11-29T16:21:35.000Z</time>
      </trkpt>
      <trkpt lat="43.98621" lon="5.11479">
        <ele>242.4</ele>
        <time>2018-11-29T16:21:51.000Z</time>
      </trkpt>
      <trkpt lat="43.98618" lon="5.11482">
        <ele>242.2</ele>
        <time>2018-11-29T16:21:51.000Z</time>
      </trkpt>
      <trkpt lat="43.98615" lon="5.11484">
        <ele>242</ele>
        <time>2018-11-29T16:21:51.000Z</time>
      </trkpt>
      <trkpt lat="43.9861" lon="5.11486">
        <ele>242</ele>
        <time>2018-11-29T16:21:51.000Z</time>
      </trkpt>
      <trkpt lat="43.98607" lon="5.11489">
        <ele>241.8</ele>
        <time>2018-11-29T16:22:7.000Z</time>
      </trkpt>
      <trkpt lat="43.98602" lon="5.11493">
        <ele>241.3</ele>
        <time>2018-11-29T16:22:7.000Z</time>
      </trkpt>
      <trkpt lat="43.98598" lon="5.11496">
        <ele>241</ele>
        <time>2018-11-29T16:22:7.000Z</time>
      </trkpt>
      <trkpt lat="43.98593" lon="5.11501">
        <ele>240.3</ele>
        <time>2018-11-29T16:22:7.000Z</time>
      </trkpt>
      <trkpt lat="43.98588" lon="5.11504">
        <ele>240.3</ele>
        <time>2018-11-29T16:22:23.000Z</time>
      </trkpt>
      <trkpt lat="43.98584" lon="5.11507">
        <ele>240.2</ele>
        <time>2018-11-29T16:22:23.000Z</time>
      </trkpt>
      <trkpt lat="43.98581" lon="5.11511">
        <ele>239.8</ele>
        <time>2018-11-29T16:22:23.000Z</time>
      </trkpt>
      <trkpt lat="43.98577" lon="5.11515">
        <ele>239.3</ele>
        <time>2018-11-29T16:22:23.000Z</time>
      </trkpt>
      <trkpt lat="43.98572" lon="5.11521">
        <ele>238.3</ele>
        <time>2018-11-29T16:23:3.000Z</time>
      </trkpt>
      <trkpt lat="43.98566" lon="5.11521">
        <ele>239.1</ele>
        <time>2018-11-29T16:23:3.000Z</time>
      </trkpt>
      <trkpt lat="43.98561" lon="5.11521">
        <ele>239.6</ele>
        <time>2018-11-29T16:23:3.000Z</time>
      </trkpt>
      <trkpt lat="43.9856" lon="5.11522">
        <ele>239.6</ele>
        <time>2018-11-29T16:23:3.000Z</time>
      </trkpt>
      <trkpt lat="43.9856" lon="5.11521">
        <ele>239.7</ele>
        <time>2018-11-29T16:23:47.000Z</time>
      </trkpt>
      <trkpt lat="43.98562" lon="5.11524">
        <ele>238.9</ele>
        <time>2018-11-29T16:23:47.000Z</time>
      </trkpt>
      <trkpt lat="43.98563" lon="5.11525">
        <ele>238.5</ele>
        <time>2018-11-29T16:23:47.000Z</time>
      </trkpt>
      <trkpt lat="43.98564" lon="5.11531">
        <ele>236.9</ele>
        <time>2018-11-29T16:23:47.000Z</time>
      </trkpt>
      <trkpt lat="43.98563" lon="5.11535">
        <ele>236.1</ele>
        <time>2018-11-29T16:23:47.000Z</time>
      </trkpt>
      <trkpt lat="43.98563" lon="5.11536">
        <ele>235.8</ele>
        <time>2018-11-29T16:24:11.000Z</time>
      </trkpt>
      <trkpt lat="43.9856" lon="5.11538">
        <ele>235.6</ele>
        <time>2018-11-29T16:24:11.000Z</time>
      </trkpt>
      <trkpt lat="43.98557" lon="5.1154">
        <ele>235.6</ele>
        <time>2018-11-29T16:24:11.000Z</time>
      </trkpt>
      <trkpt lat="43.98554" lon="5.11542">
        <ele>235.4</ele>
        <time>2018-11-29T16:24:11.000Z</time>
      </trkpt>
      <trkpt lat="43.98541" lon="5.11549">
        <ele>235.1</ele>
        <time>2018-11-29T16:25:31.000Z</time>
      </trkpt>
      <trkpt lat="43.98532" lon="5.11554">
        <ele>235</ele>
        <time>2018-11-29T16:25:31.000Z</time>
      </trkpt>
      <trkpt lat="43.9852" lon="5.11562">
        <ele>234.4</ele>
        <time>2018-11-29T16:25:31.000Z</time>
      </trkpt>
      <trkpt lat="43.9851" lon="5.11572">
        <ele>233</ele>
        <time>2018-11-29T16:25:31.000Z</time>
      </trkpt>
      <trkpt lat="43.98507" lon="5.1158">
        <ele>231.2</ele>
        <time>2018-11-29T16:26:59.000Z</time>
      </trkpt>
      <trkpt lat="43.98505" lon="5.11582">
        <ele>230.9</ele>
        <time>2018-11-29T16:26:59.000Z</time>
      </trkpt>
      <trkpt lat="43.98504" lon="5.11583">
        <ele>230.7</ele>
        <time>2018-11-29T16:26:59.000Z</time>
      </trkpt>
      <trkpt lat="43.98497" lon="5.11593">
        <ele>230.1</ele>
        <time>2018-11-29T16:26:59.000Z</time>
      </trkpt>
      <trkpt lat="43.9849" lon="5.11601">
        <ele>229.5</ele>
        <time>2018-11-29T16:26:59.000Z</time>
      </trkpt>
      <trkpt lat="43.98484" lon="5.11605">
        <ele>229.2</ele>
        <time>2018-11-29T16:27:59.000Z</time>
      </trkpt>
      <trkpt lat="43.98482" lon="5.1161">
        <ele>228.7</ele>
        <time>2018-11-29T16:27:59.000Z</time>
      </trkpt>
      <trkpt lat="43.98478" lon="5.11612">
        <ele>228.6</ele>
        <time>2018-11-29T16:27:59.000Z</time>
      </trkpt>
      <trkpt lat="43.98473" lon="5.11614">
        <ele>228.6</ele>
        <time>2018-11-29T16:27:59.000Z</time>
      </trkpt>
      <trkpt lat="43.98469" lon="5.11617">
        <ele>228.5</ele>
        <time>2018-11-29T16:28:15.000Z</time>
      </trkpt>
      <trkpt lat="43.98464" lon="5.11619">
        <ele>228.6</ele>
        <time>2018-11-29T16:28:15.000Z</time>
      </trkpt>
      <trkpt lat="43.9846" lon="5.11622">
        <ele>228.3</ele>
        <time>2018-11-29T16:28:15.000Z</time>
      </trkpt>
      <trkpt lat="43.98456" lon="5.11626">
        <ele>228.1</ele>
        <time>2018-11-29T16:28:15.000Z</time>
      </trkpt>
      <trkpt lat="43.98453" lon="5.11628">
        <ele>228</ele>
        <time>2018-11-29T16:28:39.000Z</time>
      </trkpt>
      <trkpt lat="43.98453" lon="5.11628">
        <ele>227.9</ele>
        <time>2018-11-29T16:28:39.000Z</time>
      </trkpt>
      <trkpt lat="43.98448" lon="5.1163">
        <ele>228</ele>
        <time>2018-11-29T16:28:39.000Z</time>
      </trkpt>
      <trkpt lat="43.98444" lon="5.11632">
        <ele>227.9</ele>
        <time>2018-11-29T16:28:39.000Z</time>
      </trkpt>
      <trkpt lat="43.98439" lon="5.11635">
        <ele>227.8</ele>
        <time>2018-11-29T16:28:55.000Z</time>
      </trkpt>
      <trkpt lat="43.98437" lon="5.11636">
        <ele>227.8</ele>
        <time>2018-11-29T16:28:55.000Z</time>
      </trkpt>
      <trkpt lat="43.98431" lon="5.11646">
        <ele>226.9</ele>
        <time>2018-11-29T16:28:55.000Z</time>
      </trkpt>
      <trkpt lat="43.98427" lon="5.11655">
        <ele>226</ele>
        <time>2018-11-29T16:29:15.000Z</time>
      </trkpt>
      <trkpt lat="43.98423" lon="5.11664">
        <ele>225.1</ele>
        <time>2018-11-29T16:29:15.000Z</time>
      </trkpt>
      <trkpt lat="43.98418" lon="5.11672">
        <ele>224.8</ele>
        <time>2018-11-29T16:29:15.000Z</time>
      </trkpt>
      <trkpt lat="43.98415" lon="5.11676">
        <ele>224.8</ele>
        <time>2018-11-29T16:29:15.000Z</time>
      </trkpt>
      <trkpt lat="43.98415" lon="5.11677">
        <ele>224.8</ele>
        <time>2018-11-29T16:29:43.000Z</time>
      </trkpt>
      <trkpt lat="43.98415" lon="5.11681">
        <ele>224.7</ele>
        <time>2018-11-29T16:29:43.000Z</time>
      </trkpt>
      <trkpt lat="43.98415" lon="5.1169">
        <ele>224.5</ele>
        <time>2018-11-29T16:29:43.000Z</time>
      </trkpt>
      <trkpt lat="43.98416" lon="5.11698">
        <ele>224.3</ele>
        <time>2018-11-29T16:29:43.000Z</time>
      </trkpt>
      <trkpt lat="43.98415" lon="5.11708">
        <ele>224.1</ele>
        <time>2018-11-29T16:29:59.000Z</time>
      </trkpt>
      <trkpt lat="43.98413" lon="5.11714">
        <ele>224.1</ele>
        <time>2018-11-29T16:29:59.000Z</time>
      </trkpt>
      <trkpt lat="43.98411" lon="5.11726">
        <ele>224</ele>
        <time>2018-11-29T16:29:59.000Z</time>
      </trkpt>
      <trkpt lat="43.9841" lon="5.11731">
        <ele>223.9</ele>
        <time>2018-11-29T16:29:59.000Z</time>
      </trkpt>
      <trkpt lat="43.98409" lon="5.11734">
        <ele>223.9</ele>
        <time>2018-11-29T16:30:23.000Z</time>
      </trkpt>
      <trkpt lat="43.98409" lon="5.11736">
        <ele>223.9</ele>
        <time>2018-11-29T16:30:23.000Z</time>
      </trkpt>
      <trkpt lat="43.98408" lon="5.11744">
        <ele>223.8</ele>
        <time>2018-11-29T16:30:23.000Z</time>
      </trkpt>
      <trkpt lat="43.98408" lon="5.11745">
        <ele>223.8</ele>
        <time>2018-11-29T16:30:23.000Z</time>
      </trkpt>
      <trkpt lat="43.98408" lon="5.11751">
        <ele>223.7</ele>
        <time>2018-11-29T16:30:23.000Z</time>
      </trkpt>
      <trkpt lat="43.98409" lon="5.11756">
        <ele>223.7</ele>
        <time>2018-11-29T16:30:43.000Z</time>
      </trkpt>
      <trkpt lat="43.98409" lon="5.11761">
        <ele>223.7</ele>
        <time>2018-11-29T16:30:43.000Z</time>
      </trkpt>
      <trkpt lat="43.98409" lon="5.11764">
        <ele>223.7</ele>
        <time>2018-11-29T16:30:43.000Z</time>
      </trkpt>
      <trkpt lat="43.98409" lon="5.11765">
        <ele>223.7</ele>
        <time>2018-11-29T16:30:43.000Z</time>
      </trkpt>
      <trkpt lat="43.98409" lon="5.1177">
        <ele>223.7</ele>
        <time>2018-11-29T16:30:43.000Z</time>
      </trkpt>
      <trkpt lat="43.98409" lon="5.11775">
        <ele>223.7</ele>
        <time>2018-11-29T16:31:11.000Z</time>
      </trkpt>
      <trkpt lat="43.98411" lon="5.11781">
        <ele>223.6</ele>
        <time>2018-11-29T16:31:11.000Z</time>
      </trkpt>
      <trkpt lat="43.98411" lon="5.11785">
        <ele>223.5</ele>
        <time>2018-11-29T16:31:11.000Z</time>
      </trkpt>
      <trkpt lat="43.98412" lon="5.11786">
        <ele>223.5</ele>
        <time>2018-11-29T16:31:11.000Z</time>
      </trkpt>
      <trkpt lat="43.98413" lon="5.11789">
        <ele>223.4</ele>
        <time>2018-11-29T16:31:11.000Z</time>
      </trkpt>
      <trkpt lat="43.98413" lon="5.11791">
        <ele>223.4</ele>
        <time>2018-11-29T16:31:35.000Z</time>
      </trkpt>
      <trkpt lat="43.98413" lon="5.11797">
        <ele>223.3</ele>
        <time>2018-11-29T16:31:35.000Z</time>
      </trkpt>
      <trkpt lat="43.98413" lon="5.11806">
        <ele>223.4</ele>
        <time>2018-11-29T16:31:35.000Z</time>
      </trkpt>
      <trkpt lat="43.98414" lon="5.11818">
        <ele>223.3</ele>
        <time>2018-11-29T16:31:51.000Z</time>
      </trkpt>
    </trkseg>
  </trk>
</gpx>